GFSSE_500_rhum_000.txt.gz
RH
15 18 25 31 31 30 23 22 20 20 20 18 18 22 23 22 12 8 8 8 9 7 7 10 11 11 11 13 14 11 6 9 10 11 10 11 11 10 7 8 8 6 5
21 24 33 38 33 23 22 23 26 26 27 22 25 24 22 17 14 8 8 7 8 8 8 10 11 12 13 14 12 8 7 8 10 11 11 12 12 14 10 10 8 6 4
27 34 41 38 27 29 33 32 30 32 29 27 24 23 22 14 9 9 8 8 9 10 10 10 11 12 12 11 8 9 8 8 10 12 12 12 13 14 16 16 13 12 11
28 42 48 40 35 42 42 38 30 32 32 25 18 11 6 4 6 9 9 10 10 10 10 10 10 12 12 11 10 9 7 6 11 13 15 14 15 18 20 22 26 26 25
36 52 60 37 41 50 44 41 38 36 36 30 21 16 2 2 7 11 12 12 12 12 12 13 13 12 11 10 10 9 5 5 12 12 14 16 18 20 19 22 21 22 22
33 63 64 34 48 52 43 40 36 34 36 33 31 22 17 5 4 8 11 12 13 13 13 14 13 10 11 10 8 7 4 5 11 14 14 16 16 17 20 20 20 20 19
59 67 56 38 50 49 43 44 40 43 39 34 31 31 26 19 13 8 9 11 12 11 9 7 7 8 9 7 8 8 4 4 7 11 13 14 14 13 12 14 15 16 22
62 58 49 47 49 54 42 44 44 42 38 35 35 31 29 30 28 23 20 17 14 10 9 8 8 9 9 10 11 13 14 14 15 16 16 16 15 14 14 14 15 16 18
68 54 48 52 56 53 39 40 42 42 38 34 33 33 35 37 36 32 30 28 29 30 27 17 13 12 12 12 13 13 13 13 13 18 21 22 22 22 21 23 23 22 24
68 47 46 59 50 52 39 33 37 36 26 26 29 31 32 32 36 39 40 38 36 32 30 29 29 23 13 13 13 13 14 18 20 22 25 29 30 30 27 21 20 24 25
54 50 48 56 61 53 38 32 29 27 27 28 27 28 29 31 32 33 37 41 39 36 32 28 25 24 24 23 23 23 24 25 28 29 29 28 21 11 4 6 10 14 14
57 56 53 55 55 50 38 33 32 31 32 32 30 28 29 30 32 33 34 34 31 29 28 26 26 26 25 26 25 26 26 26 24 21 14 7 4 4 5 6 7 7 7
56 64 62 58 61 49 39 35 36 36 35 37 36 33 29 28 28 28 28 26 24 23 23 23 24 22 21 20 20 17 14 6 2 3 4 6 7 8 8 8 8 9 11
65 65 64 62 65 53 42 40 45 46 40 40 39 36 33 28 29 30 30 28 26 22 18 15 13 13 9 5 3 1 1 3 5 7 14 18 22 24 25 24 26 27 28
63 63 63 63 63 57 51 48 49 49 47 46 43 38 34 30 29 30 29 30 32 30 29 24 12 6 3 3 3 3 6 13 20 24 26 29 33 33 32 28 22 18 14
67 59 57 61 64 60 53 46 46 44 43 44 38 36 33 30 32 27 28 31 31 26 21 12 5 3 2 5 10 17 23 27 30 32 29 29 26 21 16 13 11 11 10
64 59 55 56 63 61 56 50 46 44 46 46 46 44 36 38 33 31 35 31 18 7 4 7 10 10 12 16 24 30 32 32 28 26 23 20 18 15 13 12 12 12 12
56 61 60 60 65 57 44 44 43 44 52 52 37 50 49 42 38 38 24 10 8 11 17 29 33 36 37 35 33 30 26 23 22 20 20 18 16 15 14 13 13 14 14
56 55 69 67 53 46 48 52 53 53 49 23 52 57 50 41 39 26 14 12 16 26 32 35 36 34 31 29 25 22 20 18 17 17 16 14 13 13 13 13 13 12 12
59 60 68 62 56 42 39 44 53 50 29 47 53 52 43 38 32 19 14 15 25 32 40 40 35 30 26 23 20 20 20 20 18 16 15 16 15 15 16 16 15 15 14
62 61 62 56 48 40 37 41 43 32 49 53 52 44 38 39 30 21 13 21 35 44 44 37 31 27 23 21 20 18 17 17 17 17 16 16 16 15 14 14 14 14 15
60 62 58 46 44 42 42 50 51 39 52 55 52 48 47 40 28 13 14 34 44 41 32 32 31 25 20 18 18 19 19 21 19 19 19 19 19 19 19 18 18 17 16
52 55 51 47 46 42 41 24 55 73 66 59 55 53 40 23 10 19 38 47 37 32 32 26 23 21 19 21 23 22 20 20 20 22 22 22 22 22 21 20 20 18 17
46 46 44 48 44 37 13 19 40 48 54 58 50 31 16 10 28 45 42 34 31 27 26 22 20 20 23 24 26 27 26 25 23 18 20 21 22 22 22 21 20 18 17
38 44 49 47 44 30 26 37 47 53 54 37 23 12 11 33 44 41 34 28 27 25 23 23 24 25 27 28 29 29 30 29 29 26 20 22 23 23 21 20 18 17 14
46 51 51 50 51 48 38 44 47 43 29 19 12 18 43 49 40 30 28 28 27 26 27 28 30 31 32 34 33 33 33 32 31 29 26 23 20 20 20 18 16 13 11

GFSSE_500_rhum_003.txt.gz
RH
9 12 12 13 19 26 25 18 17 17 21 21 20 19 17 22 22 20 9 8 8 9 7 6 10 11 10 10 11 13 12 8 8 9 10 11 12 12 13 11 8 7 5
13 15 19 21 28 30 23 25 25 24 29 29 25 21 23 22 17 15 10 8 7 8 8 8 8 12 12 12 13 14 10 7 8 9 10 12 12 12 13 15 16 12 10
13 26 27 30 37 33 26 30 28 22 28 28 26 22 18 22 15 9 8 8 8 8 10 10 10 10 11 12 12 12 9 9 8 7 8 12 12 13 16 16 17 20 24
13 21 32 44 46 35 41 37 33 30 32 36 30 20 16 9 6 5 8 10 10 10 11 11 11 11 10 11 12 12 10 10 8 4 9 12 15 16 17 16 18 20 20
18 25 41 52 53 39 48 42 37 32 37 36 33 30 20 11 1 5 10 12 13 13 13 13 13 14 14 13 13 12 10 9 6 2 11 13 16 18 17 16 19 19 20
21 28 37 68 43 43 50 37 36 37 41 33 32 31 30 23 15 5 8 12 13 14 15 14 14 13 12 10 11 11 9 6 4 2 10 13 16 15 15 14 14 15 16
21 36 67 66 40 46 45 44 41 38 40 39 36 31 29 30 29 23 14 10 11 12 12 10 7 5 5 6 8 8 9 9 6 4 7 11 13 14 14 15 15 14 15
21 35 64 58 42 45 47 44 40 43 42 38 35 34 34 32 30 30 29 26 24 22 21 21 17 12 8 7 8 9 11 12 14 15 15 16 16 16 17 17 18 17 18
24 59 61 52 48 55 51 41 39 41 40 32 30 31 33 34 34 36 37 37 35 32 31 30 28 28 27 17 11 11 13 13 13 13 16 17 19 21 23 25 26 27 27
18 64 60 50 47 53 47 45 35 36 26 26 28 27 26 27 30 31 32 33 36 39 39 37 33 30 26 25 25 24 22 21 21 22 23 24 27 29 30 30 29 25 14
14 50 64 48 48 47 45 45 34 30 28 30 32 32 30 27 28 31 33 33 34 35 35 35 33 30 27 25 24 24 25 27 30 30 28 27 24 20 15 10 5 4 5
15 17 49 53 51 54 47 46 36 31 34 35 34 35 36 34 30 29 29 26 25 25 23 24 24 24 24 25 25 24 24 21 19 14 11 6 2 2 5 7 8 9 10
20 24 35 50 50 53 53 49 35 35 35 38 38 39 41 41 38 33 29 30 32 31 29 28 27 24 19 18 16 16 11 8 2 2 3 5 8 14 18 25 26 29 28
34 37 39 55 55 48 49 47 41 40 43 44 43 43 42 41 37 33 32 32 31 31 33 34 32 30 27 21 13 5 3 3 5 8 13 20 26 29 30 31 31 30 27
27 58 62 60 56 57 51 54 50 48 48 47 47 45 44 41 38 36 33 33 31 29 33 31 24 20 14 10 7 4 5 9 13 16 19 26 29 31 30 28 25 21 18
31 69 69 63 60 57 53 61 58 52 46 44 45 47 46 45 44 39 37 35 34 34 29 16 8 6 9 10 11 14 17 24 26 25 29 30 25 22 21 17 15 14 14
35 47 74 65 54 54 63 62 59 53 51 45 46 50 45 34 51 44 43 40 38 27 13 10 13 19 28 31 34 35 33 31 29 29 27 24 23 21 19 17 16 16 15
34 43 66 59 56 57 62 63 53 47 49 50 53 53 26 54 57 50 42 38 26 16 11 12 19 28 34 38 33 30 28 25 24 21 20 19 19 18 17 16 14 14 15
34 37 57 54 64 69 63 48 48 44 45 44 46 41 46 55 50 43 40 39 33 21 12 13 19 32 42 40 35 28 22 20 21 21 20 18 17 16 16 16 16 16 16
39 43 57 54 67 67 59 49 38 38 41 47 35 43 51 52 48 47 48 43 31 14 10 32 45 45 42 35 30 27 23 19 18 18 19 20 21 21 21 20 20 21 20
40 44 58 61 64 62 51 46 42 42 47 60 44 49 52 54 53 52 44 30 11 7 24 47 46 33 31 27 24 21 20 18 20 22 24 25 26 26 26 26 26 25 24
38 41 50 64 63 56 48 47 45 42 33 36 50 54 56 58 54 36 20 6 12 31 47 41 32 28 25 23 21 19 20 23 25 27 30 30 30 29 28 28 28 29 28
33 43 52 59 60 56 49 48 46 21 19 36 49 52 56 48 27 14 9 14 36 43 36 30 26 25 23 20 20 24 27 28 27 27 28 28 27 28 29 30 31 31 30
27 43 49 52 54 52 49 49 43 34 36 46 49 48 38 19 11 10 22 45 46 34 27 27 26 23 23 27 30 30 29 27 26 23 24 26 27 28 30 30 28 25 23
27 43 46 47 46 48 52 55 58 48 41 31 26 21 12 10 15 36 54 42 31 30 29 27 27 30 32 33 32 32 32 33 31 26 21 23 26 28 26 25 24 20 15
20 37 43 42 47 53 57 59 60 48 25 17 12 12 12 23 53 54 36 32 31 30 32 34 36 37 37 36 35 34 32 32 32 32 28 25 22 24 22 17 10 6 4

GFSSE_500_rhum_006.txt.gz
RH
15 13 12 12 12 13 19 22 16 16 16 20 25 20 19 18 21 21 20 11 9 8 9 8 6 9 12 11 10 11 12 13 10 8 10 10 12 12 13 14 14 10 9
12 12 13 15 16 20 24 26 23 22 19 22 22 25 22 20 24 20 14 12 8 8 8 8 8 8 11 13 12 12 14 14 11 7 9 10 11 12 12 14 15 16 16
13 10 10 14 17 23 29 28 29 25 18 20 22 21 20 14 18 20 11 8 8 8 9 10 11 11 11 12 13 13 13 12 10 8 8 8 10 12 14 13 14 15 21
12 12 14 18 21 28 33 28 29 27 21 26 30 29 24 18 9 6 6 8 9 9 11 11 12 13 13 13 12 12 12 12 11 10 9 6 9 12 11 13 14 16 17
12 14 19 25 31 35 36 30 32 30 31 24 27 32 30 25 15 2 5 8 11 12 13 14 13 13 14 14 14 13 12 11 11 10 9 6 5 11 12 12 12 14 12
13 16 21 24 31 40 35 42 34 38 32 39 34 25 27 29 29 20 9 5 10 13 13 13 14 14 13 12 12 11 9 11 11 9 6 3 3 12 15 17 14 17 15
18 19 22 28 43 47 35 38 45 40 36 34 32 33 31 28 29 30 29 26 17 11 10 12 12 13 11 9 6 5 7 8 8 9 9 5 3 7 13 16 14 14 14
20 20 21 42 56 50 33 36 49 39 40 42 38 36 34 34 34 33 32 31 31 31 28 27 26 26 26 25 17 10 9 9 10 11 13 14 14 14 14 15 16 16 18
22 18 22 35 51 49 33 41 48 39 40 40 27 27 27 28 30 32 33 34 36 38 39 40 38 35 33 31 29 28 27 22 15 13 13 13 13 13 14 17 19 21 24
26 19 18 43 52 46 37 43 51 41 36 31 28 31 32 31 29 28 31 33 34 34 35 37 40 41 39 36 32 29 26 24 24 24 23 23 23 25 26 27 27 26 26
26 20 18 52 53 44 43 42 48 42 34 30 32 33 34 36 38 35 31 30 28 26 24 23 25 25 26 27 27 27 26 26 26 26 25 25 24 22 17 10 5 3 4
29 22 20 20 53 46 46 44 43 47 34 32 37 37 39 41 44 43 40 37 31 29 32 32 30 29 28 25 22 20 17 17 16 14 11 8 4 2 2 4 6 9 14
31 26 19 27 34 44 46 47 41 47 36 37 38 34 36 35 36 44 44 38 37 35 32 31 31 32 34 33 32 30 25 17 9 4 3 4 5 6 11 20 26 30 31
30 27 21 38 32 46 50 52 50 56 44 39 40 44 46 46 44 46 44 42 39 36 34 31 32 33 30 23 16 13 12 9 6 6 7 14 19 22 25 30 28 30 32
29 28 24 42 56 54 61 60 54 54 52 47 50 49 45 46 48 43 41 43 44 39 38 36 37 25 14 9 10 14 17 17 17 21 26 31 31 31 31 31 29 26 23
26 27 28 40 63 64 67 63 64 59 62 59 56 48 50 48 48 31 33 46 45 41 37 34 21 12 10 14 21 32 37 38 39 36 34 32 31 29 27 23 20 18 18
20 23 30 44 60 70 62 64 63 61 65 62 52 52 50 53 44 43 46 52 47 41 38 32 29 18 10 12 18 27 35 36 34 31 29 24 21 20 20 20 20 19 19
16 24 33 42 43 71 63 61 63 64 64 50 49 49 47 40 41 51 54 49 44 44 45 41 29 14 9 20 32 39 40 40 37 32 27 23 21 21 21 20 18 17 17
14 24 32 38 46 63 63 76 71 63 51 42 40 44 50 40 47 49 48 50 48 47 41 28 14 8 11 36 49 45 40 35 32 29 26 23 20 19 18 20 21 22 22
21 22 32 38 51 59 66 69 65 59 48 44 44 46 51 47 44 46 50 53 50 39 23 15 9 11 21 42 45 34 30 27 24 22 21 20 20 21 24 26 27 28 27
30 23 30 42 53 58 64 65 61 52 46 47 44 34 31 51 49 49 50 49 37 18 11 11 12 24 38 41 35 30 27 24 21 20 22 24 27 29 28 27 28 28 29
30 26 29 41 45 61 66 64 59 50 49 48 24 21 40 45 47 48 46 30 14 12 12 18 46 46 42 37 30 26 23 24 27 29 31 32 32 33 34 34 34 35 36
26 33 30 36 43 56 65 63 60 51 50 49 39 39 43 41 37 30 16 11 11 16 42 53 44 34 30 29 28 30 32 32 31 33 34 33 32 34 35 35 35 34 34
23 33 38 33 44 54 59 58 54 50 51 56 53 49 38 22 15 12 12 14 31 56 47 39 36 28 27 30 33 32 31 32 31 30 30 32 31 31 33 34 31 26 22
26 31 22 23 38 46 53 54 48 52 54 57 59 51 27 15 12 13 19 46 61 44 39 31 28 29 32 34 33 32 33 32 31 27 24 24 28 28 23 19 14 10 8
28 31 21 21 35 46 47 46 50 55 54 60 49 23 15 11 16 26 58 59 41 31 30 35 36 36 36 36 37 35 33 30 29 26 24 22 20 19 17 12 9 8 8

GFSSE_500_rhum_009.txt.gz
RH
22 16 13 13 12 12 11 13 15 14 12 12 18 20 19 18 17 20 20 18 16 10 8 8 9 8 8 12 11 11 11 11 12 13 11 9 10 11 12 13 14 14 13
20 16 15 12 11 10 11 13 17 16 15 13 15 18 19 19 17 22 22 16 16 11 8 8 8 7 7 8 12 12 11 11 12 15 14 11 8 9 10 13 14 16 17
20 19 13 11 11 10 12 15 19 19 19 16 16 20 19 20 13 17 20 20 13 11 8 8 9 9 10 10 12 13 13 13 13 13 13 11 9 9 9 12 14 15 15
14 14 14 12 11 11 13 20 24 22 21 19 17 23 26 24 19 15 10 12 9 9 9 9 10 11 11 11 11 11 11 10 11 12 12 11 10 10 6 9 15 16 16
16 17 13 12 11 12 17 26 27 22 21 23 28 22 25 28 27 22 10 4 6 9 11 11 12 13 13 13 13 13 14 14 13 12 12 12 11 10 8 5 13 15 15
17 15 14 13 13 15 20 32 31 26 24 30 27 28 28 27 25 29 28 24 14 6 8 12 14 13 12 13 13 13 12 12 11 10 10 11 10 8 5 3 10 13 14
16 16 16 17 18 19 28 35 33 32 35 32 32 36 32 29 31 29 28 29 30 30 28 22 15 14 12 13 13 12 10 8 7 7 8 9 10 10 7 3 6 13 14
20 22 20 19 21 30 38 39 34 42 39 36 42 38 34 34 34 34 35 36 36 37 37 36 34 33 32 31 30 30 30 28 24 17 11 10 11 13 13 14 12 11 12
27 26 21 18 20 34 42 41 35 45 40 39 41 28 29 30 28 27 28 30 33 34 34 35 37 39 41 42 41 38 35 32 30 28 28 26 19 14 14 14 14 14 15
30 29 27 22 22 31 46 48 41 46 47 38 38 29 32 34 34 36 37 36 31 30 30 27 27 28 30 31 31 34 35 35 33 30 28 25 24 24 24 25 26 27 27
31 29 29 23 21 38 55 53 44 45 53 40 34 32 34 35 36 39 41 42 40 37 33 31 31 32 32 30 27 26 23 20 19 20 23 23 22 21 19 15 12 9 4
34 35 32 26 20 21 48 53 46 48 50 49 37 36 39 41 37 38 40 38 40 42 38 34 31 30 30 30 30 32 33 33 32 27 20 15 12 8 5 4 3 4 6
36 37 32 28 22 24 26 52 48 52 50 54 39 38 44 40 36 41 46 46 45 44 43 39 36 32 32 30 30 30 23 18 19 20 19 15 11 6 5 8 13 17 23
33 35 31 31 26 28 36 34 50 56 60 56 51 44 48 42 44 46 43 49 43 36 37 42 40 33 31 30 22 14 10 8 9 12 12 11 11 13 17 21 25 26 29
28 27 30 30 28 28 51 47 56 68 67 62 63 62 52 49 49 47 49 45 35 37 42 48 43 39 36 26 23 13 11 13 20 29 36 37 36 36 35 33 32 30 29
32 24 24 25 28 30 58 75 78 80 80 71 64 65 60 56 50 50 49 43 45 48 48 44 41 41 41 39 27 14 11 15 23 32 35 36 34 32 30 29 27 24 22
32 26 21 22 26 31 51 80 84 75 71 70 68 68 61 53 51 50 41 44 48 46 46 49 49 48 42 25 14 9 11 23 34 40 42 41 38 34 28 24 22 21 21
26 23 18 20 25 36 52 76 83 64 75 71 68 62 52 50 49 49 44 49 49 47 49 49 44 36 26 19 15 11 15 31 42 45 42 38 34 31 28 25 22 20 19
24 24 14 18 28 37 46 71 69 73 76 65 60 52 45 47 47 51 52 50 44 45 46 41 38 31 20 18 17 16 32 44 42 36 32 28 26 24 22 20 20 21 23
23 25 13 14 27 35 42 66 65 73 67 61 58 47 47 46 37 29 50 48 46 44 44 39 24 13 12 14 18 29 43 40 35 31 29 26 25 24 28 31 31 31 30
21 27 27 20 23 37 42 59 64 67 62 61 50 48 49 32 22 40 44 43 41 34 21 12 12 10 20 50 51 45 43 39 33 29 28 32 34 34 33 33 32 31 31
21 20 33 32 22 33 45 57 63 67 64 60 52 50 47 38 40 44 40 29 20 14 14 17 14 38 53 49 45 37 30 30 33 36 36 35 35 35 35 34 32 32 32
25 22 22 33 26 29 42 51 63 68 64 61 54 50 58 57 52 49 41 23 14 17 19 18 50 56 47 42 34 35 38 39 39 39 40 39 37 35 34 33 33 32 28
32 30 25 29 39 39 35 44 55 64 62 59 54 51 57 59 56 46 24 15 17 22 21 48 58 42 34 36 40 39 41 43 40 40 41 38 35 32 30 27 24 21 18
35 34 30 28 34 40 34 40 49 57 58 55 51 54 57 60 53 29 15 15 20 22 50 58 39 33 41 42 43 46 44 43 45 44 37 33 31 30 26 21 15 12 12
34 33 32 35 33 17 18 28 40 47 49 48 46 54 55 51 34 17 15 21 32 59 57 39 36 43 42 46 48 48 44 50 49 40 32 27 24 25 24 18 14 16 16

GFSSE_500_rhum_012.txt.gz
RH
21 22 18 14 11 10 9 7 8 9 10 10 8 8 10 13 13 12 10 15 19 21 14 10 8 9 10 9 9 10 11 10 10 10 11 12 13 10 9 10 11 14 14
26 20 17 15 12 9 9 7 8 9 12 12 9 9 10 12 14 15 16 20 20 17 17 12 8 8 8 8 7 8 11 12 12 11 11 12 14 14 11 9 10 13 15
25 21 18 15 12 10 8 9 11 12 15 14 12 11 13 14 15 16 12 18 19 17 11 10 8 8 9 10 10 10 11 13 13 14 13 13 13 12 12 10 10 9 15
20 18 18 16 14 11 10 12 16 16 20 19 18 16 18 20 21 22 17 9 7 11 10 9 9 9 11 11 12 12 12 12 12 12 12 12 12 12 12 11 10 8 9
23 20 20 16 14 12 13 16 23 23 26 24 22 25 23 19 18 24 26 24 14 6 6 9 12 13 13 14 14 14 14 14 14 14 14 14 12 12 12 12 11 8 5
21 24 26 20 16 14 16 23 30 30 27 26 30 29 25 22 22 26 26 28 29 28 24 17 10 8 9 10 11 12 12 10 9 8 6 6 6 8 9 10 9 6 2
21 27 30 21 18 18 22 25 36 35 34 38 34 35 37 35 30 30 29 30 30 28 28 30 31 30 29 26 24 23 26 26 27 27 24 19 12 9 10 10 12 13 11
21 27 28 26 22 21 26 37 43 39 38 41 37 42 35 33 32 32 33 33 33 34 35 36 37 37 38 38 38 38 37 36 35 34 33 31 30 28 23 14 12 13 14
27 32 31 30 26 25 32 47 52 45 41 46 38 42 30 31 32 31 34 36 36 34 31 31 32 31 30 30 31 32 33 35 36 38 38 36 34 30 27 26 26 24 20
34 34 34 36 33 29 33 44 60 55 43 51 44 40 31 32 34 35 36 38 40 40 40 38 34 31 30 30 31 32 31 30 29 28 26 23 23 24 23 25 25 25 24
34 33 35 37 32 27 25 42 70 66 53 56 56 41 36 35 37 38 38 38 36 36 38 38 40 39 34 31 29 29 28 27 28 28 29 31 31 28 21 16 15 15 14
38 35 32 39 39 31 24 24 60 76 62 53 55 53 40 41 46 44 39 37 38 40 43 44 39 39 38 34 29 26 28 26 23 21 18 15 19 24 25 23 17 10 5
37 39 39 37 35 32 29 23 28 64 68 55 55 54 49 44 51 47 41 38 44 42 44 42 38 36 33 41 34 30 28 22 17 11 8 8 9 10 8 9 8 10 14
33 37 38 37 34 33 31 27 36 37 64 68 61 54 60 60 55 53 44 48 49 47 45 38 38 39 41 37 29 29 31 30 20 13 9 9 14 20 27 30 32 32 31
34 34 33 32 33 32 30 29 41 45 49 72 70 63 64 68 62 58 49 52 49 47 41 39 46 47 44 44 43 42 32 22 15 13 13 12 17 26 32 34 34 31 30
31 37 33 27 28 30 30 29 34 69 73 86 81 75 70 68 67 59 53 52 48 43 36 42 46 54 54 50 40 31 26 23 22 14 14 22 33 40 43 42 40 36 31
37 30 32 31 25 23 26 28 32 66 84 84 75 78 75 67 64 60 54 51 50 44 48 51 53 49 45 39 36 34 26 18 20 20 25 32 40 46 43 38 35 32 30
40 36 29 30 27 22 23 27 52 70 91 74 76 75 69 66 60 50 52 50 48 52 51 45 46 43 41 42 34 20 12 12 16 27 38 43 40 35 31 28 27 25 23
37 37 30 29 25 18 21 32 54 64 86 82 77 64 60 57 49 48 48 46 39 45 52 46 45 42 31 16 12 11 15 27 42 45 42 38 35 31 29 27 28 30 32
38 34 30 27 26 14 18 29 48 58 77 74 73 60 58 53 49 47 48 29 38 44 45 40 31 17 13 15 17 31 50 51 45 40 36 33 32 32 36 38 37 37 38
42 38 32 25 27 14 21 28 38 48 68 70 68 60 59 52 49 50 33 26 39 44 40 32 16 15 22 21 38 49 52 54 47 36 35 38 40 40 39 39 40 40 39
45 40 37 26 30 35 29 24 37 44 61 69 68 63 60 53 52 52 54 52 53 49 38 18 14 25 25 33 54 56 46 36 40 42 42 43 44 44 44 45 44 41 37
44 43 40 30 26 38 36 24 30 47 60 67 70 67 62 58 53 52 57 61 59 47 25 14 22 24 26 39 54 45 44 47 46 45 48 51 50 51 52 50 42 37 34
42 44 36 33 22 26 38 29 27 41 49 61 66 67 63 59 55 51 55 60 58 39 16 18 23 25 42 58 49 48 51 46 45 43 49 51 53 57 51 43 36 34 32
29 49 37 36 27 25 28 36 40 38 40 46 58 63 61 58 53 47 51 56 47 22 15 23 31 52 60 54 54 52 49 52 54 50 50 56 57 53 44 37 34 30 25
29 48 41 41 35 32 28 28 39 35 33 40 46 51 52 51 47 44 52 48 29 15 22 38 58 65 55 60 57 50 51 55 58 57 54 49 44 44 41 34 27 26 28

GFSSE_500_rhum_015.txt.gz
RH
18 21 22 20 15 11 9 8 6 6 7 8 9 8 8 8 10 10 10 10 12 17 20 19 13 10 9 9 9 9 8 10 11 11 12 11 11 12 13 13 12 10 10
22 27 25 20 16 14 10 8 7 7 8 9 10 9 8 9 10 10 10 11 14 18 16 17 17 13 8 8 8 8 7 9 11 12 13 12 12 13 14 14 13 12 10
24 31 23 18 16 14 11 10 9 9 11 13 13 11 9 11 11 12 13 12 15 18 19 17 12 10 9 9 10 12 12 12 13 14 14 14 14 13 13 13 13 12 10
12 15 19 16 15 14 12 11 10 13 16 19 16 12 13 12 14 17 18 16 12 7 10 10 10 10 10 11 12 13 13 13 14 14 14 14 14 14 14 13 12 13 12
22 12 15 16 14 15 14 13 14 18 23 24 20 18 17 16 16 17 21 24 24 20 13 7 7 9 12 13 13 14 14 13 12 13 12 12 11 9 8 8 9 10 11
89 43 17 18 18 18 16 17 20 26 29 30 25 26 22 19 19 19 20 22 27 28 29 29 28 27 24 22 17 14 12 12 13 16 20 22 23 21 15 9 8 9 10
36 29 32 24 25 21 20 20 23 33 37 37 38 36 34 36 34 31 30 27 30 30 31 32 32 32 32 34 35 35 34 34 33 34 34 34 34 33 32 30 28 18 12
30 28 28 30 32 27 25 24 33 47 45 42 43 40 41 36 34 32 32 32 32 32 32 32 33 34 34 34 34 34 34 34 35 36 36 38 38 38 38 36 34 30 27
30 25 26 36 32 30 30 32 37 55 59 46 45 42 43 32 31 31 31 35 36 37 38 38 38 36 34 31 30 30 31 31 31 30 30 30 29 28 26 25 24 26 28
27 25 38 38 33 33 30 28 30 38 59 57 47 50 41 36 33 35 36 37 39 37 36 34 33 34 35 38 39 35 30 28 26 26 24 23 24 26 28 31 30 26 20
29 34 42 37 35 38 33 27 25 32 52 66 53 56 52 40 35 35 38 40 40 36 36 35 37 35 40 41 36 37 35 30 26 24 23 19 16 17 16 16 25 28 28
30 34 44 46 40 39 35 31 25 23 47 73 68 60 59 53 40 38 42 44 43 40 37 42 39 42 33 33 31 29 36 33 28 27 26 20 15 9 8 8 9 11 10
30 34 41 42 39 41 40 34 31 24 26 49 76 64 57 56 53 43 48 50 47 41 44 49 46 34 32 34 34 38 37 30 32 32 26 20 16 14 10 8 9 20 24
32 32 38 41 40 39 38 36 33 28 28 34 53 71 63 63 59 59 55 56 53 47 47 48 45 31 37 44 47 46 43 39 34 29 24 24 22 19 19 16 12 15 20
37 35 34 36 39 39 36 34 33 31 30 44 44 66 72 66 64 66 67 62 58 51 46 48 42 35 40 44 48 47 44 38 34 33 27 20 21 18 18 22 27 32 35
37 36 38 37 36 34 32 31 32 33 30 54 58 66 74 72 70 69 67 63 58 52 51 49 44 43 46 45 46 43 40 41 36 24 15 13 16 20 28 39 43 44 43
41 37 38 38 37 34 29 27 28 32 32 45 76 83 76 77 76 70 64 63 57 54 51 49 51 50 48 46 46 41 38 19 17 14 13 16 22 31 39 42 38 34 31
48 44 41 39 34 29 32 28 26 28 35 45 77 87 75 78 73 70 65 55 51 51 49 44 39 54 54 49 42 31 16 20 16 17 36 50 49 44 39 36 33 30 28
44 49 48 42 37 28 28 30 28 24 44 65 71 85 74 74 66 61 55 48 50 48 49 29 36 49 44 36 25 16 21 22 28 44 50 49 48 41 35 32 32 35 38
17 45 49 45 40 34 28 30 29 24 39 52 59 82 77 70 60 56 52 50 49 48 24 33 42 46 41 31 15 20 26 26 40 50 49 48 40 39 42 42 41 40 38
14 22 46 46 40 38 32 30 28 24 30 40 52 72 76 71 59 58 53 51 51 53 50 49 52 51 34 18 14 25 27 32 46 49 44 43 45 44 39 38 40 42 40
16 16 31 45 42 38 36 30 30 25 26 39 47 67 73 72 62 61 56 54 52 53 59 62 62 53 28 14 19 29 40 47 51 45 44 48 45 46 48 50 49 48 48
17 16 20 47 45 38 40 29 40 36 36 36 45 58 69 71 67 64 61 57 55 52 55 58 59 46 23 16 26 36 43 50 49 49 50 48 48 52 54 54 59 60 58
17 16 16 30 46 42 42 31 33 44 32 25 40 56 64 70 69 67 64 60 57 52 51 52 54 39 17 24 36 44 54 52 49 41 47 48 53 62 64 63 62 58 54
22 18 18 17 39 45 48 41 29 38 40 29 31 40 48 55 59 59 59 56 53 48 48 48 46 25 17 35 48 56 57 52 46 46 51 52 66 59 58 60 62 63 56
25 21 19 18 33 47 50 46 38 31 36 41 43 41 38 43 48 49 49 47 44 45 44 42 30 16 26 44 60 59 53 53 59 58 60 64 56 53 56 62 68 56 46

GFSSE_500_rhum_018.txt.gz
RH
13 13 15 14 14 15 12 10 8 7 6 7 7 8 7 8 9 10 9 9 9 10 11 14 17 16 13 11 9 8 9 9 9 10 12 11 11 11 12 12 14 15 13
13 16 20 20 17 14 12 11 9 8 7 9 9 9 9 9 9 10 10 11 12 11 14 15 16 17 16 13 9 9 8 8 8 9 13 14 14 14 14 13 14 14 13
12 18 20 21 18 15 11 10 10 9 9 11 11 12 11 10 11 11 12 11 10 12 14 18 17 16 15 12 10 9 10 11 12 12 12 12 13 13 12 12 12 12 12
15 14 20 18 14 12 11 10 10 10 10 12 13 13 12 12 11 12 13 13 13 12 11 14 16 14 12 10 10 11 12 12 13 14 14 14 14 14 14 14 13 12 11
34 27 20 16 12 11 11 12 10 10 12 16 18 18 17 17 15 13 13 16 18 18 16 11 8 7 8 10 11 13 12 12 12 11 11 12 12 12 13 14 14 10 7
74 42 67 55 16 11 12 11 11 10 13 21 23 22 20 20 16 16 16 16 18 23 26 27 28 29 29 29 29 29 30 30 31 31 32 31 31 31 32 32 32 31 30
35 42 54 37 19 16 16 14 13 15 17 24 29 28 28 25 25 28 28 26 24 25 28 29 30 32 33 34 35 36 36 36 36 37 37 38 38 38 39 39 39 38 36
36 33 30 26 21 15 20 22 20 20 25 34 37 38 36 35 34 33 31 32 33 32 32 33 34 34 33 32 32 31 31 31 30 31 30 29 29 29 29 29 29 29 29
36 35 39 33 21 20 21 22 22 23 34 48 42 44 45 41 37 32 31 30 32 37 37 37 35 34 33 31 33 36 38 34 31 29 28 28 26 24 23 24 26 28 30
38 44 34 33 24 24 24 27 26 23 25 34 52 45 52 45 41 33 34 35 36 38 39 37 36 34 32 34 35 37 36 34 38 35 28 25 24 22 21 17 16 18 17
34 40 33 31 36 35 27 32 32 25 23 30 46 63 49 54 45 40 36 37 39 42 41 39 36 36 39 40 30 29 34 34 33 36 32 26 26 25 22 19 12 9 9
34 40 37 30 41 49 37 59 37 31 26 23 35 56 59 53 59 50 41 42 44 46 45 43 40 40 44 30 28 29 28 34 40 34 30 32 31 25 20 16 14 11 8
34 38 40 33 40 52 94 42 39 37 34 27 24 35 56 59 54 55 55 45 43 50 49 48 43 40 46 32 36 42 45 46 45 42 40 34 30 26 25 23 21 19 17
35 33 36 37 38 45 95 42 39 38 35 33 28 31 41 61 59 54 56 58 53 50 57 54 48 42 47 34 36 42 46 44 40 33 33 36 35 29 26 22 20 17 18
42 37 34 33 36 37 48 38 37 37 34 33 32 36 41 47 62 62 64 63 63 61 64 55 50 46 48 41 38 44 46 46 44 38 36 23 20 16 13 12 14 14 18
50 40 34 33 35 36 36 37 37 35 32 33 34 35 48 49 54 62 70 70 64 65 61 53 54 50 49 49 48 53 53 50 44 37 19 25 20 14 14 20 23 22 24
56 46 38 39 38 37 37 37 36 33 32 32 34 35 49 67 70 71 77 79 72 66 58 55 52 50 49 42 49 53 52 46 36 17 26 24 19 24 35 42 44 44 43
48 52 49 44 40 38 35 33 31 33 32 29 32 38 36 60 84 77 79 75 72 67 55 47 49 49 49 29 51 54 45 36 21 18 26 24 28 40 45 46 48 46 42
25 39 51 51 47 42 39 37 31 30 34 32 28 34 51 70 85 75 77 71 65 57 46 48 49 47 31 38 44 46 43 29 15 20 27 27 37 46 46 46 42 40 40
15 18 40 60 55 50 44 40 37 32 32 36 33 34 48 61 84 81 74 62 56 50 48 50 49 49 41 48 53 52 41 22 15 23 28 31 43 45 44 42 42 40 36
17 15 15 29 57 58 52 46 40 36 34 29 28 26 42 56 80 84 76 59 56 53 52 52 51 54 59 62 62 60 44 20 16 27 34 37 44 44 41 38 35 33 33
22 19 16 16 28 47 58 53 48 46 43 35 28 25 32 48 64 79 76 69 60 59 57 56 55 52 52 54 55 58 52 27 20 31 38 42 43 44 45 43 39 40 47
25 23 20 18 20 16 43 56 53 48 50 40 34 26 29 41 50 70 74 73 63 63 65 62 58 55 52 52 52 50 41 23 27 40 47 54 55 54 49 48 50 54 59
24 26 22 20 19 15 24 46 53 56 48 33 43 39 40 38 47 60 68 73 69 64 70 72 56 54 48 48 50 44 35 18 25 38 54 57 58 58 55 56 65 72 67
28 29 27 22 17 16 17 33 54 60 48 35 36 52 36 27 37 47 56 59 56 53 53 52 48 46 45 48 42 36 20 25 31 36 47 51 53 65 66 74 80 70 60
23 25 31 24 19 16 16 20 47 55 52 46 38 42 51 44 46 41 38 39 42 43 43 41 40 41 38 36 33 20 26 35 43 40 36 55 66 78 79 60 58 61 61

GFSSE_500_rhum_021.txt.gz
RH
7 7 6 9 8 8 10 9 8 7 6 6 5 5 6 6 8 8 8 9 8 9 11 12 14 14 16 14 12 10 9 8 9 9 9 10 12 12 12 12 11 12 13
8 10 9 9 10 8 8 11 10 8 7 6 6 6 6 8 8 8 9 9 9 10 12 15 14 15 16 16 15 11 10 10 8 9 9 10 11 12 13 14 14 13 13
13 12 12 9 10 12 12 10 9 8 7 7 7 6 7 9 8 9 10 10 10 11 12 14 14 15 16 15 15 13 12 9 10 10 11 12 12 13 13 13 14 14 14
23 19 15 16 18 17 14 11 9 8 8 8 7 7 9 9 9 10 12 12 12 12 11 11 12 14 16 16 14 11 10 11 11 12 13 14 14 13 13 13 12 11 10
28 22 23 19 18 13 12 10 9 9 9 9 9 9 9 10 12 12 12 12 14 16 14 13 10 8 8 8 9 9 10 10 10 10 11 12 12 14 16 20 25 27 28
53 46 45 29 32 29 12 11 10 9 9 9 10 13 15 14 13 14 13 14 15 15 17 22 24 25 26 29 30 32 32 32 34 34 33 34 34 35 36 36 37 37 36
70 37 47 29 24 30 14 12 11 10 11 11 14 18 20 20 20 20 20 20 20 19 19 20 22 27 30 32 33 33 33 33 32 32 33 32 32 32 30 31 31 31 32
47 27 29 26 24 21 17 12 12 13 15 17 21 24 28 27 27 28 28 29 29 29 30 31 32 33 34 35 35 34 35 34 32 31 31 31 32 31 31 30 28 28 29
32 29 28 26 29 25 22 15 16 15 17 19 28 32 33 38 37 37 33 31 31 30 32 35 36 36 35 34 33 30 29 31 34 37 37 33 30 26 24 23 22 21 19
25 26 24 26 34 28 25 20 20 19 20 20 22 34 39 40 44 44 39 33 32 33 38 39 38 37 36 35 31 36 28 28 37 38 36 36 35 31 28 25 24 23 23
26 24 25 28 32 50 26 21 23 24 26 24 22 26 33 44 44 53 46 38 37 39 40 41 40 39 38 35 34 39 26 25 30 31 31 33 33 31 28 29 25 22 19
32 29 28 28 30 30 26 29 29 29 31 28 25 22 28 46 52 50 58 49 41 40 42 44 45 43 42 38 38 39 35 38 39 36 37 33 32 36 34 30 27 26 24
38 36 32 30 29 29 28 55 76 82 38 32 32 29 25 28 57 65 57 60 58 48 41 45 49 49 46 39 38 46 31 42 45 45 46 40 34 32 34 28 23 20 22
42 41 38 35 35 31 30 37 46 83 47 34 34 32 30 28 29 42 59 60 53 55 56 50 49 53 50 43 41 48 36 38 43 44 48 43 35 33 23 27 20 14 11
50 46 41 38 38 33 28 30 33 80 83 37 36 35 34 32 31 37 42 56 58 55 57 60 57 57 56 47 47 48 48 40 43 44 47 40 37 21 27 22 17 14 15
37 55 52 47 40 36 34 31 31 40 45 38 37 40 38 36 34 43 50 55 57 58 62 61 61 64 57 50 51 50 47 47 47 48 50 42 28 21 29 21 16 17 22
18 39 57 54 49 40 36 35 32 33 35 37 36 35 35 35 37 35 57 62 70 71 78 75 66 63 56 53 50 49 48 35 50 52 43 37 23 22 28 20 18 22 32
15 15 32 50 53 47 40 37 36 34 34 34 35 34 33 31 35 38 38 71 83 79 80 77 74 70 54 46 49 48 40 34 46 45 44 32 18 21 28 23 21 29 35
13 13 12 27 53 53 50 43 40 38 41 39 34 32 35 34 30 36 50 68 90 78 77 70 66 60 47 48 49 41 34 44 54 56 54 41 19 19 26 26 24 33 36
20 16 13 11 22 49 54 53 50 45 48 45 37 36 33 37 36 33 49 72 87 83 77 66 56 51 48 51 51 56 58 58 59 59 61 60 41 20 24 27 26 34 40
19 19 20 16 13 17 35 53 58 53 52 48 50 51 46 34 31 32 48 60 76 91 81 68 56 53 54 54 53 53 54 53 54 54 52 52 47 21 24 28 26 28 29
15 15 22 22 19 15 14 26 38 57 60 56 58 56 50 41 34 27 38 46 65 86 83 76 68 63 63 62 60 58 56 54 51 53 51 50 45 21 24 25 26 29 30
12 13 15 23 25 20 16 17 15 26 46 61 59 57 59 50 38 28 27 36 49 74 78 77 75 71 69 76 75 64 55 47 47 51 46 39 22 22 25 31 38 34 34
15 14 13 16 26 24 20 19 19 16 18 56 64 62 59 50 53 44 34 40 42 52 64 70 76 74 64 61 60 51 48 44 47 42 36 23 22 28 41 51 48 50 51
18 15 16 13 28 27 21 22 20 15 15 42 63 64 59 42 47 54 45 33 32 44 50 55 55 49 47 48 45 42 43 41 37 34 22 24 21 29 34 38 57 61 68
17 16 16 15 23 25 23 24 21 16 18 33 52 64 58 54 42 43 61 62 49 43 42 40 38 36 35 31 32 37 30 31 29 22 21 21 26 44 48 55 62 55 47

GFSSE_500_rhum_024.txt.gz
RH
8 6 5 5 5 6 5 6 7 8 7 6 6 5 4 4 5 6 6 7 8 8 10 10 12 15 17 16 15 13 12 10 9 8 9 9 10 10 11 11 12 12 11
14 8 6 5 5 6 7 7 7 8 8 7 6 6 6 4 4 5 6 8 10 10 10 11 12 13 15 15 16 15 14 11 12 10 8 8 8 9 10 10 11 12 12
21 11 9 8 6 8 10 9 8 9 8 8 7 6 6 5 5 6 7 8 9 10 11 12 12 14 15 16 16 16 15 13 12 10 10 11 11 12 12 12 12 12 12
25 21 18 14 10 8 7 8 9 8 8 7 7 6 6 6 6 7 8 9 10 11 12 12 11 11 13 14 14 15 13 12 12 11 12 12 13 13 13 12 12 12 11
22 23 21 19 13 10 11 10 9 7 6 6 6 7 7 7 8 8 9 10 11 12 13 14 12 11 11 10 11 11 13 12 14 14 16 17 16 17 16 17 21 24 27
18 22 25 27 25 19 14 10 7 6 6 7 6 7 7 8 10 11 12 13 13 14 14 14 16 21 24 23 23 25 26 29 28 28 28 30 32 33 33 35 37 38 38
17 36 30 24 27 30 20 18 14 8 7 7 7 7 8 10 13 15 16 18 18 17 17 17 18 21 23 26 28 31 32 33 33 32 32 31 31 32 31 31 31 31 31
18 22 32 24 18 20 21 21 19 10 8 9 9 10 12 15 20 24 24 24 26 27 29 30 30 30 31 32 33 35 34 33 32 32 34 35 32 32 31 30 28 26 23
19 21 23 33 20 18 16 18 19 15 11 11 11 12 14 19 26 30 32 34 32 32 32 32 32 33 35 36 36 35 33 30 28 25 29 32 36 38 37 33 29 28 26
24 20 20 19 18 18 19 21 20 18 16 14 15 15 16 18 26 30 37 37 37 33 32 33 36 38 39 38 36 36 30 30 23 19 25 31 38 38 37 34 31 27 27
29 25 23 22 19 20 21 18 21 21 19 20 20 23 21 19 22 26 35 40 42 37 34 35 39 42 42 40 39 37 32 36 26 23 26 25 30 32 37 34 29 32 30
32 30 27 25 24 23 22 21 19 21 24 24 25 26 25 23 21 23 37 42 46 47 41 37 39 40 43 46 46 41 35 36 33 39 43 43 41 39 40 36 32 32 27
35 35 33 29 29 27 26 26 22 20 26 35 48 44 30 30 28 27 29 44 54 49 56 53 43 42 45 47 50 48 41 36 39 33 42 43 44 43 40 36 34 24 25
19 32 40 38 34 32 31 30 26 25 28 33 49 61 32 33 33 31 30 30 36 49 59 58 59 57 55 50 49 49 47 39 41 45 37 40 45 46 43 38 23 27 26
12 14 19 34 40 36 34 32 28 26 29 30 37 71 55 35 36 39 36 32 34 36 38 46 49 51 52 59 58 57 54 44 46 48 48 42 43 44 45 38 24 27 26
11 10 12 17 36 43 42 38 37 33 29 28 32 61 48 38 36 37 39 38 33 37 41 43 45 51 62 63 64 64 55 50 51 48 46 41 46 47 42 39 22 24 30
10 9 8 10 11 29 46 45 43 41 36 36 31 32 35 34 37 36 33 36 38 33 38 50 66 69 75 74 71 68 59 50 50 49 42 36 50 45 46 36 20 22 29
9 9 7 7 10 11 42 48 49 45 40 34 37 35 36 40 44 37 35 30 31 32 35 51 73 79 77 76 74 70 53 48 49 41 36 46 54 58 58 58 50 30 24
12 10 9 9 9 11 16 28 47 52 46 47 46 44 43 47 42 34 34 34 30 28 32 59 73 83 77 76 61 55 49 50 51 56 58 56 56 57 58 58 56 50 26
13 14 14 14 14 12 11 17 17 42 52 54 50 50 52 47 42 40 39 35 35 32 32 51 58 82 81 77 61 54 52 54 54 54 56 56 55 53 54 53 52 50 27
11 12 14 15 17 17 15 13 12 26 31 46 55 58 58 57 57 60 55 37 33 28 29 46 53 75 88 84 73 69 67 68 63 63 58 54 51 49 51 53 49 42 22
12 12 12 14 16 15 16 15 19 19 13 17 38 50 57 64 62 59 56 52 39 31 27 34 43 56 79 82 80 77 76 72 78 85 72 58 50 45 49 48 40 26 24
14 12 13 12 15 18 14 11 16 31 21 16 18 26 36 58 63 62 64 60 49 43 28 28 38 44 60 73 75 76 77 70 61 58 54 49 45 42 41 35 23 25 25
16 14 14 16 14 13 13 12 16 22 22 18 17 25 31 42 66 67 67 59 47 54 41 39 41 39 46 56 60 65 59 48 48 44 41 40 32 27 24 22 26 24 21
16 16 16 14 14 16 14 14 16 22 24 21 19 20 26 27 57 69 71 59 56 45 51 60 53 35 35 39 41 41 39 36 28 23 20 17 16 19 22 26 22 24 34
13 14 14 16 16 14 16 17 16 19 25 24 22 22 25 38 49 71 69 67 58 50 41 43 51 54 50 44 33 22 20 15 11 8 7 18 25 30 23 29 36 46 50

GFSSE_500_rhum_030.txt.gz
RH
13 13 5 6 5 5 5 5 5 5 5 6 6 7 7 6 6 5 5 4 4 4 5 6 7 7 8 9 10 12 14 14 15 14 12 10 12 10 9 9 9 9 10
22 21 14 10 6 5 4 4 5 5 5 6 6 6 7 7 6 6 6 5 4 4 5 6 7 8 9 9 11 13 13 13 13 14 13 13 12 10 10 10 11 10 10
19 22 21 17 13 10 5 5 5 6 6 6 6 7 8 8 7 7 6 6 5 5 6 7 8 9 10 12 13 14 14 14 15 14 13 12 12 12 13 13 13 13 12
15 14 16 20 21 16 13 7 5 5 6 7 8 7 7 7 7 7 6 6 6 6 7 8 9 10 10 11 11 12 11 10 9 9 9 9 9 10 11 12 14 14 13
13 13 13 13 16 19 19 17 14 8 5 6 7 8 9 8 7 7 7 6 6 7 8 10 11 12 13 13 12 12 13 17 20 22 21 20 21 21 23 23 24 26 30
12 12 12 11 11 12 16 20 20 16 11 9 7 6 6 6 7 7 8 8 8 8 9 11 12 12 14 16 17 20 20 20 24 23 27 27 28 30 30 32 32 31 31
14 14 14 13 12 11 13 16 20 24 25 20 15 11 7 6 6 6 7 8 10 11 12 13 14 15 16 17 18 19 23 28 31 31 31 28 25 26 31 32 34 34 32
15 14 15 16 15 14 12 13 14 14 14 15 17 17 14 8 8 7 8 8 11 15 18 20 23 24 23 25 26 27 32 35 34 34 32 30 24 20 18 21 28 36 38
16 17 18 19 18 17 16 14 16 16 16 17 16 17 16 13 11 11 10 14 16 22 24 26 27 30 32 33 34 34 37 38 37 37 36 34 30 21 17 19 29 36 39
16 20 21 21 21 20 18 17 16 16 15 18 20 20 17 15 16 16 16 18 24 28 33 34 33 33 34 34 37 39 42 42 40 40 39 38 37 32 32 29 26 27 34
16 21 24 24 23 22 21 20 18 18 17 16 18 20 21 20 20 21 21 21 22 25 31 36 42 39 36 37 37 41 45 46 46 45 44 43 39 38 37 39 41 40 39
10 15 18 22 24 24 25 24 24 23 22 18 17 19 22 23 26 27 28 27 27 27 29 34 41 46 45 40 39 40 45 48 48 49 47 49 49 42 44 38 43 45 42
7 8 13 18 24 27 30 30 30 28 26 25 22 19 20 22 28 41 53 37 32 33 33 32 30 32 39 42 49 48 46 47 49 51 51 52 56 52 48 51 44 40 43
8 9 9 11 15 19 24 28 29 29 29 30 29 28 24 23 24 32 34 43 40 35 36 35 33 32 31 31 33 37 50 55 55 57 59 58 60 60 53 52 51 49 48
11 11 12 12 13 14 14 14 18 24 30 33 35 34 33 28 26 28 30 40 67 47 35 35 33 31 30 30 29 29 33 37 41 50 58 63 61 67 58 54 52 50 42
9 9 10 10 11 12 13 13 13 11 22 28 33 38 39 39 35 33 36 33 38 36 33 35 36 33 30 29 28 27 32 55 62 70 73 75 71 70 63 51 49 39 37
8 7 14 9 8 8 8 8 9 10 15 16 14 31 43 43 43 42 42 34 36 35 40 39 35 34 33 31 28 28 34 55 64 74 76 71 64 59 51 52 54 49 52
7 6 6 17 9 9 8 5 6 10 11 12 11 23 50 54 54 46 43 48 44 43 49 45 39 37 33 32 34 31 32 49 54 75 80 68 58 55 53 53 53 56 57
7 7 7 7 23 12 11 10 6 12 18 22 27 18 33 53 53 52 51 47 48 50 50 51 52 54 53 43 33 30 31 43 49 64 82 81 67 59 65 69 68 65 64
7 7 8 7 12 26 28 35 36 32 35 32 35 40 49 37 44 51 53 56 54 55 55 54 58 56 54 49 48 37 28 33 41 48 68 84 85 84 84 83 79 74 69
9 9 8 8 7 12 32 39 39 35 41 42 33 31 28 33 39 37 38 44 40 42 49 46 51 59 62 57 52 46 37 29 29 39 46 58 71 77 79 80 80 74 67
10 11 11 10 9 8 12 21 22 16 29 37 35 45 41 43 53 43 35 29 24 21 28 34 46 62 63 62 50 45 51 43 37 39 37 35 39 43 46 46 45 43 42
12 12 12 12 11 9 9 16 32 46 41 48 56 54 51 67 58 52 43 28 25 35 32 28 39 61 64 63 60 55 46 50 57 59 56 52 48 45 41 34 25 18 16
13 14 14 15 13 11 10 10 17 22 35 45 35 35 48 54 64 58 62 45 36 30 22 24 32 44 63 63 65 63 59 48 46 45 43 41 38 37 37 37 38 38 37
11 12 13 13 13 13 12 12 13 15 17 20 28 31 36 47 66 70 62 54 41 38 30 28 49 48 47 50 60 63 61 56 54 52 50 46 45 45 49 47 45 43 41
10 10 11 12 13 14 14 12 11 10 15 16 19 20 28 40 44 55 62 57 46 45 37 34 48 47 35 40 56 60 58 56 55 54 54 56 61 68 63 57 52 49 45

GFSSE_500_rhum_033.txt.gz
RH
18 15 11 8 4 6 4 4 4 4 4 4 4 5 6 6 6 6 6 5 5 4 4 4 5 6 6 7 8 8 10 12 13 13 14 13 11 12 11 9 9 9 9
21 22 25 17 11 8 5 4 3 4 4 4 4 4 6 6 6 7 6 6 6 5 5 5 5 6 7 8 9 10 12 12 12 12 14 14 13 12 12 12 12 12 12
24 24 21 20 18 14 10 8 5 4 4 5 6 5 5 6 8 8 8 7 6 6 6 5 6 7 8 9 10 11 12 13 14 14 14 13 12 12 12 12 12 12 12
19 17 15 15 17 19 17 14 12 7 5 5 5 6 7 7 7 8 8 8 7 7 6 6 7 8 10 10 11 12 12 12 10 9 9 10 14 18 20 21 21 23 24
12 13 14 12 12 13 14 17 19 18 15 10 7 6 6 6 7 7 7 7 7 8 8 8 8 9 11 13 13 12 11 11 15 20 22 22 22 25 26 25 25 27 28
12 11 11 11 10 10 11 11 12 16 18 20 18 12 11 9 7 6 6 7 7 8 9 9 10 11 14 16 19 21 24 24 22 22 24 29 29 27 26 24 26 31 33
12 13 13 13 12 12 11 11 12 14 14 14 16 19 19 16 11 8 7 6 8 9 10 12 13 14 14 16 18 21 22 24 26 30 32 34 31 32 27 21 18 18 25
12 11 13 16 16 14 14 13 12 14 16 14 13 12 13 15 16 14 10 9 9 10 15 16 20 20 21 21 25 28 30 32 34 34 36 36 36 36 34 26 20 16 17
12 14 14 14 15 17 18 16 14 14 16 16 16 16 17 16 16 16 13 13 12 14 18 19 23 25 26 28 32 33 34 36 37 38 38 39 40 39 38 36 31 28 24
9 12 15 16 18 21 21 20 20 17 16 16 16 17 17 20 20 17 17 18 18 18 19 23 26 30 33 32 33 35 36 40 41 41 42 43 44 45 43 40 38 38 38
10 15 18 19 19 20 21 22 22 20 20 18 17 19 18 18 19 23 24 23 24 22 22 22 24 30 32 37 39 38 38 41 44 45 46 48 48 49 50 48 42 44 41
7 9 11 19 20 23 21 23 23 23 22 22 21 20 19 19 20 20 21 26 30 30 30 30 29 28 28 33 43 44 42 40 41 43 45 46 45 46 50 55 52 47 49
6 6 6 7 10 15 20 22 23 23 22 22 23 23 22 20 22 24 24 26 30 43 36 31 32 33 32 31 30 30 34 43 46 47 49 51 56 57 55 54 58 56 51
8 7 7 7 8 12 16 20 22 21 21 22 24 26 28 27 26 26 27 26 26 29 38 41 38 34 32 32 32 32 31 31 32 32 34 36 40 44 51 60 62 63 56
9 11 11 10 10 10 12 14 15 15 13 14 16 23 28 29 32 31 32 30 30 31 39 69 54 34 33 32 31 30 30 30 30 30 33 45 53 58 62 64 66 71 64
9 11 11 11 11 10 12 12 13 13 13 13 15 22 30 29 31 37 39 39 37 40 37 36 36 35 38 34 30 31 31 29 29 29 43 50 59 72 73 72 68 65 58
8 9 10 12 12 10 11 9 9 10 9 11 12 17 23 17 28 44 47 46 43 41 42 42 39 42 44 38 37 34 32 33 34 32 37 47 51 73 76 63 55 53 52
7 7 8 9 14 21 28 19 8 18 21 23 17 12 12 13 25 41 51 52 52 48 51 47 47 48 46 47 48 49 48 43 34 30 32 46 48 62 80 69 58 61 60
8 7 6 6 6 12 16 31 36 27 22 24 30 20 23 22 19 36 48 56 56 54 50 48 49 50 52 53 54 54 53 50 48 41 29 35 41 47 64 80 80 78 79
8 7 6 5 5 6 8 20 40 39 38 25 36 28 31 46 46 44 43 50 57 54 53 56 56 52 50 53 50 49 51 51 50 46 37 30 30 37 45 56 67 72 74
8 8 8 7 6 7 9 13 32 46 63 55 55 53 42 35 28 44 44 37 34 35 33 33 34 31 22 26 33 46 57 57 50 43 45 47 44 43 39 34 34 38 41
8 9 9 8 8 7 8 11 11 26 48 54 57 52 53 42 40 52 46 50 56 43 36 27 23 24 30 23 34 47 55 58 59 52 46 43 44 48 49 47 44 41 38
9 10 10 10 10 8 8 8 11 13 15 26 41 48 59 61 54 66 71 70 63 61 49 29 26 28 21 20 28 34 51 57 59 60 58 54 50 48 46 45 43 42 40
12 12 12 12 12 12 10 9 9 12 18 27 45 66 66 69 67 73 72 80 94 85 71 52 41 35 26 22 27 44 40 36 41 55 57 56 53 52 48 44 41 41 40
15 14 14 14 14 14 14 11 11 11 12 17 20 28 35 52 59 58 58 64 73 91 94 72 59 44 42 34 30 42 39 28 36 43 54 54 51 47 46 44 43 44 45
14 14 13 13 12 12 12 13 12 11 12 14 14 19 29 25 34 42 49 48 57 69 74 80 82 58 51 39 38 41 41 36 34 43 51 52 52 51 50 48 46 47 49

GFSSE_500_rhum_036.txt.gz
RH
12 20 14 10 10 6 3 3 3 3 4 4 4 4 3 4 5 6 6 6 6 6 5 5 5 5 5 6 7 8 8 9 10 11 12 12 12 12 12 12 11 10 10
23 21 21 17 14 11 9 7 5 4 3 3 4 4 4 4 5 6 6 6 6 6 6 6 5 5 5 6 8 8 10 11 12 12 12 12 13 14 13 12 13 13 13
26 21 21 20 20 18 14 12 10 8 6 4 4 4 4 4 4 4 5 7 7 7 7 6 6 6 6 7 8 10 11 12 13 13 13 13 12 11 11 11 13 15 17
21 20 18 16 15 15 15 16 15 14 12 9 6 4 4 4 5 6 6 6 6 6 7 7 7 7 8 9 10 11 11 11 12 11 10 9 11 19 23 23 25 26 27
15 14 14 13 11 11 11 12 13 13 14 15 16 13 9 6 6 5 5 6 6 6 6 7 8 9 10 11 13 13 12 11 11 12 16 21 22 23 27 28 26 24 24
10 9 8 8 8 8 10 9 9 10 10 11 12 13 16 16 15 14 8 6 6 6 6 7 8 9 11 12 14 15 16 18 20 20 19 21 24 29 29 31 30 23 18
9 9 9 9 9 10 9 9 9 10 10 10 9 10 10 11 13 16 16 14 10 8 7 7 8 10 13 15 15 16 16 18 18 19 23 29 31 32 33 34 34 31 24
10 10 10 11 12 12 11 11 10 12 12 12 13 13 13 13 13 13 14 15 14 12 11 11 15 16 22 24 24 25 26 26 28 30 31 34 35 35 36 37 38 37 34
11 9 10 12 12 12 15 15 13 12 14 14 15 14 14 14 15 17 17 16 15 16 16 15 18 22 26 30 32 32 33 35 34 35 37 38 38 39 39 40 42 42 40
8 8 9 10 11 15 14 14 16 16 15 16 16 15 15 15 16 17 19 20 19 19 19 19 20 22 28 29 33 36 35 36 36 38 41 42 43 44 43 45 47 49 46
8 9 10 11 12 12 13 16 18 20 19 20 18 18 18 19 18 17 17 19 22 24 25 26 24 24 25 26 26 31 34 37 37 38 40 44 46 48 48 46 44 46 51
7 7 8 8 11 11 13 19 20 18 20 21 21 21 21 21 20 19 19 19 20 21 22 29 29 30 30 30 30 30 29 31 37 42 44 42 42 43 44 46 49 53 53
12 14 11 9 10 12 14 17 19 19 20 21 22 24 24 24 25 24 23 22 23 22 22 24 28 29 32 32 32 32 32 32 31 30 31 33 35 35 34 35 37 40 45
9 12 16 11 11 10 11 13 16 18 18 21 22 22 25 24 24 26 28 28 25 23 25 26 26 32 44 54 46 31 28 29 30 30 30 30 29 29 32 38 44 48 47
8 11 10 11 15 10 12 12 13 14 14 14 12 15 16 17 18 21 26 28 29 27 30 31 33 35 40 33 30 31 32 30 30 29 29 28 28 29 37 40 48 64 68
7 8 12 12 11 10 11 11 11 11 12 12 11 11 12 11 16 25 24 25 26 31 35 37 38 36 36 34 37 39 36 33 30 28 28 30 31 31 37 42 44 64 72
8 8 9 14 16 11 18 12 11 11 10 10 16 12 8 8 13 15 16 18 27 36 43 45 43 41 45 43 44 43 43 43 44 44 44 40 32 28 31 40 42 57 74
10 10 8 11 21 21 18 12 12 13 13 10 12 17 23 15 10 10 12 12 19 35 47 51 47 48 45 45 47 48 47 46 45 49 48 46 45 40 29 34 39 45 64
9 9 9 8 10 16 14 12 16 31 40 48 36 24 25 30 18 19 19 15 25 35 40 46 49 51 49 48 49 48 42 40 40 40 41 48 46 43 35 29 30 37 45
8 8 9 8 8 8 8 9 14 24 28 33 44 44 40 33 27 22 32 39 42 37 39 43 48 48 38 39 29 22 24 25 28 37 42 50 49 43 42 42 40 41 40
7 7 9 9 10 9 8 9 9 11 21 29 39 54 64 51 44 46 47 68 42 51 38 35 38 36 30 23 20 22 24 22 27 32 43 52 55 51 43 38 36 37 38
8 7 8 9 9 8 8 9 9 10 10 17 28 42 60 79 74 77 64 61 50 51 54 43 57 46 38 28 23 25 21 18 31 32 34 46 51 53 51 49 47 46 45
9 8 8 8 9 8 8 8 8 10 10 11 12 23 40 68 76 70 71 72 71 64 68 71 76 67 54 39 34 30 25 20 23 37 31 24 27 34 37 40 47 47 45
9 8 9 9 10 12 12 10 10 11 12 13 16 17 15 22 44 51 68 82 94 92 95 95 97 94 90 72 54 45 40 35 29 34 35 33 30 30 36 41 44 48 47
9 9 8 8 9 11 12 12 12 11 12 14 15 18 32 32 32 65 77 89 95 91 86 78 86 86 94 98 92 77 60 45 37 35 39 40 37 32 38 44 44 46 46
9 9 10 11 10 11 12 13 12 11 10 11 14 17 18 30 32 34 42 51 55 60 57 68 73 70 72 86 95 92 87 66 57 43 45 46 41 39 42 49 50 48 48

GFSSE_500_rhum_039.txt.gz
RH
8 13 15 12 7 5 4 3 3 2 2 2 3 3 4 4 4 5 6 6 6 6 6 6 6 6 5 6 6 7 8 8 9 10 11 12 12 12 12 13 13 12 12
15 16 16 16 12 9 8 7 5 5 4 3 3 3 3 4 4 4 5 6 6 7 7 7 7 7 7 7 7 8 9 9 10 11 12 12 13 14 14 13 12 12 11
21 24 21 18 18 16 14 11 10 10 10 8 7 5 4 3 4 4 4 4 5 6 7 7 7 7 7 7 7 8 10 10 11 12 13 13 13 12 10 9 12 16 18
22 21 19 18 17 16 15 14 13 13 13 13 13 11 8 6 5 4 4 4 5 5 6 6 7 7 8 7 7 8 9 10 11 11 11 11 9 11 16 18 18 20 20
18 18 17 15 14 13 12 11 11 11 11 11 12 13 14 13 11 8 6 5 5 5 6 6 6 8 8 9 9 10 11 11 12 12 12 14 17 17 17 20 22 25 26
12 11 10 9 8 7 7 7 7 7 7 7 7 8 8 10 11 13 13 12 11 8 6 6 6 7 8 8 10 11 13 15 16 18 20 19 19 22 25 28 30 30 30
10 10 9 8 8 7 8 8 7 7 7 7 7 6 8 8 8 9 10 12 15 14 13 10 9 9 9 9 12 13 15 17 18 20 21 22 24 29 32 33 35 35 35
10 11 10 10 10 9 8 8 8 8 8 8 8 9 9 9 9 11 11 12 12 14 14 14 13 13 13 12 15 20 21 22 24 26 29 30 33 36 36 38 38 39 41
11 11 11 11 10 9 10 11 10 9 9 9 10 10 10 11 10 11 10 13 15 16 15 15 16 16 18 20 23 26 27 27 29 31 33 33 35 37 38 40 42 41 44
10 10 11 10 10 11 11 13 13 12 11 12 11 11 12 12 12 12 13 13 14 18 22 22 23 21 21 22 23 24 26 29 32 34 35 36 37 39 41 44 45 46 47
8 11 11 10 10 11 11 12 12 14 15 15 15 15 15 15 15 15 14 14 14 14 16 20 22 23 26 28 28 27 27 28 29 31 35 39 38 38 40 43 44 44 44
7 7 7 8 8 9 9 10 11 15 19 22 18 17 17 17 17 17 17 17 17 17 17 18 19 19 22 26 27 28 30 30 30 29 29 29 30 32 35 35 38 36 35
8 8 7 6 6 7 7 8 13 16 20 21 18 16 16 16 17 18 18 17 19 19 20 21 20 20 19 21 24 28 33 34 30 25 24 26 28 29 29 29 28 29 31
11 8 10 13 13 12 11 12 11 12 15 17 17 14 12 11 12 11 13 15 16 16 20 23 24 26 25 24 27 28 37 33 25 25 25 26 27 28 28 27 27 30 35
14 11 16 16 14 17 17 32 15 13 13 14 12 10 10 11 8 8 8 8 12 14 14 18 20 26 31 33 34 31 29 29 31 31 30 29 27 26 26 26 28 31 36
7 8 12 9 9 13 17 21 19 14 10 11 11 9 8 9 8 8 7 12 18 10 9 12 19 28 33 35 36 38 39 39 39 38 37 37 37 39 39 35 29 29 34
8 7 9 9 10 9 16 20 23 26 8 8 9 9 8 10 12 6 6 9 8 7 8 10 22 28 36 39 40 42 40 40 41 41 38 34 34 44 45 44 41 34 30
11 9 10 10 10 9 11 15 19 18 15 13 8 8 9 9 15 20 16 10 9 10 10 15 23 29 32 36 39 42 41 39 31 28 20 21 22 25 38 45 43 40 31
10 10 8 10 9 10 10 14 18 23 26 36 27 24 32 34 24 33 32 20 14 17 15 22 26 19 26 30 38 38 35 24 18 21 19 18 19 25 36 46 46 41 40
7 8 8 8 9 11 10 11 14 15 22 28 27 28 42 50 57 47 44 29 21 20 31 42 38 26 24 28 29 27 22 17 18 23 18 24 20 22 35 43 47 46 41
7 6 6 8 8 10 10 10 9 10 12 19 19 18 26 37 52 65 60 42 36 38 42 61 44 42 35 37 42 34 29 24 21 26 18 17 27 25 22 27 36 40 41
8 6 6 6 8 8 9 10 10 10 11 13 16 20 21 26 39 56 78 84 84 73 69 66 62 45 53 47 53 50 47 34 29 28 25 21 22 30 29 25 23 23 23
8 7 6 6 8 8 8 8 10 11 10 11 14 19 13 17 19 30 49 75 85 89 89 81 74 66 72 79 82 72 64 52 51 45 39 37 33 29 32 34 31 28 26
7 6 6 6 7 9 9 7 7 10 11 13 14 14 13 13 19 31 32 44 69 83 87 82 84 92 96 97 88 94 91 92 81 70 63 49 44 38 36 41 38 34 32
7 6 6 6 8 9 9 8 9 8 8 11 12 13 15 14 20 26 38 44 43 52 71 86 97 98 97 91 85 89 77 77 80 87 87 84 66 54 45 47 48 41 39
10 9 8 8 7 8 8 8 8 9 10 11 13 14 14 15 18 19 26 36 47 50 59 81 92 90 82 76 69 77 81 82 79 76 75 85 96 80 59 54 53 46 46

GFSSE_500_rhum_045.txt.gz
RH
6 5 5 5 4 5 4 3 3 3 4 4 4 3 2 2 2 3 3 3 3 4 4 5 6 6 6 6 6 6 6 7 8 10 11 11 12 13 13 13 13 13 12
8 8 9 8 8 9 9 7 5 4 4 3 3 3 3 3 2 2 3 3 3 3 3 4 5 6 6 6 7 7 7 8 9 10 11 13 13 14 13 13 12 10 11
11 12 14 15 16 18 17 16 16 15 11 8 7 7 7 6 6 5 4 3 3 3 4 4 4 4 5 5 6 6 7 8 9 10 11 12 12 12 11 10 10 16 18
19 21 22 21 20 19 19 17 16 15 13 13 12 12 12 12 12 12 12 12 10 8 5 4 4 4 5 5 6 7 8 8 9 10 10 11 11 11 11 14 19 20 20
25 24 23 20 18 17 16 15 13 12 11 10 10 9 8 8 8 7 8 9 10 11 12 12 11 9 6 6 6 6 6 7 8 9 10 12 13 14 17 19 20 22 25
26 23 20 17 14 13 11 9 7 5 5 4 4 4 4 4 3 3 3 3 4 4 5 7 10 12 13 12 12 11 10 10 9 10 12 14 16 19 19 20 23 26 29
23 18 16 13 10 8 7 6 6 5 5 4 3 3 2 3 3 3 3 3 3 3 4 5 6 7 10 12 13 14 13 13 13 14 14 16 18 22 24 26 28 30 34
18 15 13 10 8 6 6 6 5 5 4 4 3 3 3 3 3 3 4 4 4 4 5 6 7 7 8 12 13 14 14 14 15 16 18 21 23 26 28 29 31 34 35
13 12 11 10 9 8 7 6 4 4 4 4 4 4 4 4 4 5 6 6 6 6 6 6 6 7 10 13 17 20 20 22 22 22 23 25 26 28 29 30 32 34 36
10 10 10 9 9 8 6 5 4 4 4 4 4 5 5 5 6 7 7 7 7 8 7 7 7 8 9 10 13 15 19 22 23 24 24 26 28 28 30 30 30 32 34
10 10 9 8 8 6 5 4 4 5 4 4 4 5 5 6 10 12 10 8 8 8 8 8 8 8 9 10 12 14 16 18 19 19 21 25 27 28 27 26 25 26 27
10 10 8 6 5 4 4 5 5 5 5 5 5 5 6 6 9 12 7 8 8 8 8 7 8 8 9 11 13 14 14 14 14 19 20 22 27 32 26 23 22 23 24
6 5 5 5 5 5 6 5 5 5 5 5 5 5 6 6 6 7 8 8 8 7 7 7 7 7 8 10 11 12 12 11 13 14 16 18 22 24 24 25 27 27 26
6 6 6 8 7 6 5 6 6 6 7 9 10 9 9 6 6 6 8 8 8 8 7 6 6 6 9 11 9 9 11 11 14 18 25 27 28 31 32 33 33 30 30
7 7 8 9 9 10 13 10 10 12 14 13 12 13 16 15 8 6 6 7 7 7 7 7 6 7 13 10 6 8 11 14 14 18 30 32 35 33 34 33 22 15 16
7 8 12 12 14 20 23 20 24 16 12 11 12 17 19 22 18 13 6 7 7 6 7 7 6 7 10 7 6 8 12 16 16 19 31 31 27 25 18 16 14 14 13
8 8 8 8 9 8 8 7 7 10 28 11 9 10 17 22 24 25 23 8 7 6 10 12 9 8 7 8 8 11 16 15 17 21 20 28 17 14 18 15 14 13 15
9 10 10 10 9 8 8 8 8 9 8 8 8 8 11 16 21 24 35 50 38 11 7 10 15 18 14 8 10 13 20 16 17 20 20 16 15 15 18 19 20 19 16
9 9 9 9 9 9 9 9 9 14 13 15 15 15 13 11 15 23 31 36 50 62 37 28 18 19 25 22 14 17 24 22 19 23 26 23 14 14 17 18 15 14 17
10 10 11 11 11 11 10 9 9 9 11 15 18 20 15 13 11 13 20 35 40 45 71 62 52 52 47 40 29 20 30 38 31 27 33 36 31 24 19 18 19 18 16
11 10 11 12 12 11 10 10 9 12 8 8 11 13 18 20 17 16 13 14 16 39 53 62 68 66 69 68 52 35 28 47 46 42 42 43 45 47 42 32 26 26 26
11 11 12 11 10 10 11 10 10 9 8 7 7 10 14 11 12 14 13 14 14 14 28 46 52 59 65 68 82 75 68 60 65 57 52 56 68 78 80 68 67 59 56
10 11 11 10 10 10 10 10 9 8 8 8 7 9 12 10 10 10 12 10 12 11 14 26 36 41 52 60 72 91 93 97 90 78 71 75 93 96 88 79 76 80 74
10 11 11 10 10 9 8 8 7 7 6 7 7 8 11 12 12 14 15 13 20 26 25 20 71 80 89 84 77 95 94 95 98 86 85 93 97 94 94 74 74 72 72
11 10 9 9 8 7 8 10 10 10 9 8 7 7 9 12 13 15 14 14 15 20 26 42 59 68 85 88 79 75 88 97 93 88 94 98 96 97 89 72 73 67 66
10 9 8 8 9 15 16 15 14 12 11 11 10 9 9 9 10 12 20 23 23 22 22 24 45 65 80 94 95 94 96 94 88 92 97 92 100 98 89 65 59 48 58

GFSSE_500_rhum_048.txt.gz
RH
10 10 5 4 4 3 4 3 3 3 3 3 3 2 3 2 2 2 2 2 2 3 3 3 4 4 5 6 6 6 6 6 6 7 7 8 10 11 12 12 12 13 12
6 6 5 5 6 6 6 6 6 5 4 4 3 3 3 3 3 3 4 4 3 3 3 3 4 4 4 4 5 5 6 6 6 7 7 8 9 9 10 11 11 10 11
8 8 8 8 11 12 13 15 15 15 15 14 13 12 11 10 10 9 9 9 8 8 8 7 4 4 4 4 5 5 6 6 6 7 8 8 9 10 11 10 10 12 16
13 13 13 14 17 19 19 18 17 16 15 14 13 13 12 12 12 12 12 12 11 11 12 12 12 10 9 7 6 5 5 6 6 7 8 10 11 11 11 12 16 18 19
17 18 20 20 21 19 18 17 15 14 12 11 10 8 6 4 4 3 3 3 3 3 4 4 5 7 10 12 12 10 10 10 9 9 10 10 12 13 15 18 20 20 22
23 25 24 22 19 16 14 13 12 10 7 5 4 4 3 3 2 2 2 2 2 2 2 3 3 5 6 8 10 12 13 13 12 12 12 13 14 16 19 21 23 25 25
28 27 24 20 17 14 12 10 8 6 5 4 3 3 2 2 2 2 2 2 2 2 3 3 3 4 4 6 7 10 12 13 14 14 14 16 17 18 21 23 25 27 30
29 26 21 17 14 11 8 6 5 5 5 4 3 2 2 2 2 2 2 2 2 2 3 3 3 4 5 5 6 9 13 16 17 18 20 21 22 23 24 26 28 30 31
26 22 18 14 11 8 6 5 5 4 3 3 3 2 3 3 2 2 2 3 3 4 4 4 4 4 5 5 6 8 11 15 18 18 18 19 23 24 26 27 28 29 30
18 15 13 10 8 6 6 6 5 3 3 2 3 3 3 3 3 3 4 6 7 6 4 4 4 5 5 5 6 6 8 10 9 10 11 14 16 19 21 25 25 25 22
13 11 10 8 7 7 7 6 4 3 3 3 3 3 4 3 3 3 4 6 6 4 4 4 4 5 6 6 6 6 6 7 7 9 9 10 11 14 15 18 22 20 20
12 9 9 8 8 7 5 4 4 3 3 4 4 3 4 4 4 4 5 5 5 5 4 4 4 5 6 6 5 6 6 6 6 8 7 9 10 13 15 18 22 23 24
10 10 9 8 6 5 4 4 4 4 4 4 4 4 5 8 8 8 7 5 5 5 5 5 4 6 6 6 5 8 8 5 5 8 8 11 16 19 20 23 26 24 23
11 9 8 6 5 5 5 6 6 5 5 5 6 8 11 11 12 13 15 7 5 6 6 5 5 5 6 6 6 12 7 5 6 11 11 14 17 24 27 26 20 17 12
11 9 8 6 6 6 6 8 8 11 15 12 13 12 9 8 8 13 20 18 12 6 6 6 6 6 6 5 5 8 7 6 7 13 14 12 18 20 20 17 12 11 11
11 9 9 7 7 7 9 10 13 20 22 17 18 16 16 8 7 8 14 24 25 19 8 6 7 7 8 6 5 6 7 7 11 14 19 17 18 19 15 12 12 13 12
11 10 8 7 7 7 7 7 6 6 7 8 9 8 7 7 7 7 8 10 21 23 38 30 8 7 8 12 14 13 8 8 12 17 16 19 18 19 13 10 15 16 16
12 11 10 9 8 7 7 7 7 8 11 12 14 14 13 13 14 23 18 9 10 20 27 40 63 52 26 15 12 17 20 12 12 18 19 17 21 23 19 12 14 16 16
15 12 11 10 9 8 11 9 9 10 10 10 9 10 13 16 16 18 18 27 14 14 17 22 33 50 67 50 42 42 42 39 21 18 26 23 23 29 31 25 14 14 16
17 16 13 11 10 10 10 9 10 13 16 17 16 12 12 10 16 16 25 26 25 22 27 18 13 22 45 64 68 67 67 58 48 29 25 42 38 33 38 41 39 38 29
21 20 17 13 11 11 10 10 10 14 17 16 14 12 10 16 16 18 26 23 33 26 33 26 22 12 14 25 51 60 55 63 66 68 38 41 52 42 40 50 51 59 60
18 19 19 15 12 11 12 12 10 8 9 13 11 10 10 13 24 23 23 28 28 30 38 32 24 29 22 19 21 40 47 58 66 75 86 74 63 66 55 58 66 84 86
17 17 18 16 12 11 12 11 10 10 8 9 9 9 8 8 9 21 18 19 21 34 44 46 42 53 62 74 59 62 53 54 68 76 87 97 95 92 86 87 85 96 95
12 12 13 12 11 10 11 11 11 10 9 7 7 7 8 10 11 10 10 16 20 27 31 44 47 45 51 63 71 85 88 90 97 100 96 97 95 99 97 95 89 97 95
12 10 10 10 10 11 10 9 9 8 8 10 13 14 12 10 9 10 10 9 10 12 31 22 28 21 43 61 68 72 76 78 89 98 98 100 91 93 99 100 90 96 97
16 12 10 10 10 10 9 8 8 13 16 17 15 14 13 12 11 10 10 16 20 18 12 13 19 25 24 41 56 62 71 84 84 93 100 99 99 97 95 88 98 97 96

GFSSE_500_rhum_051.txt.gz
RH
10 12 12 10 4 4 4 5 5 4 3 3 3 3 2 3 3 3 3 3 3 3 3 3 3 3 4 4 4 4 5 5 5 5 6 6 7 7 8 9 10 11 11
6 6 6 4 5 6 6 8 7 6 5 5 5 6 6 6 6 6 7 8 9 8 7 7 8 6 5 4 4 4 4 5 6 6 6 7 7 8 9 10 10 10 10
6 6 5 6 8 10 11 12 13 14 14 14 14 14 14 13 13 13 12 12 12 12 12 12 12 12 11 10 9 7 7 6 6 6 6 6 7 8 9 10 11 12 15
8 9 9 10 11 14 16 16 16 16 16 15 14 13 13 12 11 9 7 5 3 3 2 3 3 4 5 6 7 10 11 9 9 9 9 9 9 10 11 12 13 15 17
13 14 14 15 16 19 19 18 17 15 14 13 11 8 6 4 3 3 2 2 2 2 2 2 2 2 3 4 5 6 8 11 12 12 12 12 12 12 13 15 16 17 19
16 17 18 20 20 21 19 17 15 14 12 9 6 4 3 3 2 2 2 2 2 2 2 2 2 2 3 3 3 4 6 8 11 13 13 14 14 14 16 17 19 21 23
20 22 24 24 22 20 18 15 13 11 8 5 4 4 3 2 2 2 2 2 2 2 2 2 2 2 3 3 4 4 6 9 11 14 14 14 16 18 20 22 23 25 27
25 26 26 24 22 19 16 13 9 6 6 5 4 3 2 2 2 2 2 2 2 3 3 3 3 3 3 3 4 5 6 8 13 15 16 17 18 20 21 20 21 26 27
30 28 26 23 21 17 14 9 6 5 5 4 3 2 2 2 2 2 2 2 3 4 5 5 3 3 3 4 4 4 5 6 7 7 7 9 10 11 10 12 14 16 21
33 28 24 22 19 14 10 6 5 5 4 3 2 2 3 3 3 2 2 2 3 4 4 3 3 3 3 3 4 4 4 5 5 6 6 8 7 8 9 10 11 11 14
33 27 22 18 14 10 8 6 6 5 3 3 2 3 3 3 3 3 4 5 6 4 3 3 3 3 3 3 4 3 4 4 6 5 6 6 6 6 7 9 10 12 14
32 24 18 14 11 9 7 7 6 4 3 3 3 3 3 4 4 6 7 8 10 8 5 3 3 3 3 3 4 4 4 6 8 5 5 5 6 7 9 11 13 16 19
25 18 15 12 9 8 7 6 5 4 4 4 4 4 4 5 7 8 9 10 14 12 6 4 4 4 4 4 5 5 5 8 10 5 5 6 8 9 11 14 15 15 14
19 16 13 10 9 12 8 5 5 5 6 6 8 11 12 14 10 8 7 8 11 17 17 9 5 5 4 5 5 5 4 6 9 6 6 8 10 10 10 15 14 12 9
17 13 11 10 9 8 7 6 6 6 8 10 16 18 16 15 11 12 7 6 9 15 21 22 13 6 6 6 6 6 5 5 6 6 8 12 13 9 10 12 13 12 8
16 14 12 12 9 8 7 7 7 9 9 12 14 7 10 11 8 7 7 7 6 7 12 18 22 32 27 8 6 7 12 13 13 8 8 13 16 11 11 11 12 9 10
16 13 12 11 10 9 8 7 7 6 6 6 6 9 10 12 12 10 10 12 16 22 14 9 12 23 33 62 52 21 10 9 14 21 13 12 18 18 13 15 16 12 11
15 14 14 12 10 9 8 8 8 8 9 18 14 9 8 8 9 9 10 12 12 16 17 23 16 15 17 20 29 46 61 50 36 35 40 25 18 23 20 18 23 24 15
16 15 14 13 12 11 26 33 13 9 9 11 11 15 12 15 14 12 12 10 17 15 14 19 22 23 23 19 12 17 33 49 70 55 60 56 36 24 30 25 26 32 33
20 18 15 14 15 12 11 13 14 30 34 34 38 27 21 15 15 21 18 23 24 28 31 27 24 27 32 32 24 19 13 22 37 58 59 63 72 50 29 40 39 35 38
21 21 21 18 15 15 15 13 11 10 10 16 18 10 9 14 23 23 28 25 30 26 36 37 58 49 40 55 61 49 28 18 18 32 61 57 71 80 74 39 50 47 44
23 22 20 20 19 19 17 14 13 11 10 11 10 10 9 8 18 18 24 22 37 41 40 41 45 53 59 66 74 69 61 57 64 73 60 64 67 70 85 95 68 65 65
22 20 21 20 19 18 18 17 14 11 9 9 10 10 11 10 8 6 7 17 23 36 38 38 37 50 66 78 80 85 80 75 72 78 86 87 91 81 79 88 100 98 94
22 20 20 20 19 17 16 15 13 11 10 8 9 9 9 8 8 8 12 14 13 13 20 31 38 38 42 60 74 78 84 85 77 67 81 79 88 94 96 96 86 92 94
23 20 17 15 12 12 12 11 11 10 11 10 8 7 7 12 15 14 13 13 12 12 11 11 23 25 32 31 36 42 48 74 86 91 97 96 89 87 87 96 97 80 80
15 14 12 13 16 13 14 11 10 10 10 9 8 9 16 18 16 14 12 10 10 10 10 14 21 25 32 34 36 46 54 55 57 60 81 96 98 98 96 94 98 97 89

GFSSE_500_rhum_054.txt.gz
RH
12 12 12 18 14 6 4 4 5 5 4 4 4 5 5 5 4 5 6 7 8 9 9 7 7 7 7 6 6 5 5 5 5 5 6 6 7 7 8 8 9 10 10
10 9 9 9 7 4 5 7 8 9 10 10 10 11 12 13 13 12 13 12 12 12 12 12 12 12 12 11 10 10 8 7 7 6 7 6 6 7 8 9 9 10 10
8 5 6 6 5 6 8 11 13 15 15 15 15 14 14 13 13 12 12 11 9 7 5 3 3 2 3 4 4 6 7 10 9 8 9 9 8 8 9 10 10 11 12
7 6 6 7 8 10 12 14 17 17 17 16 14 13 12 11 9 5 3 2 2 2 2 2 2 2 2 3 3 5 7 8 9 10 11 11 12 12 12 12 13 14 15
11 9 10 11 13 15 17 18 18 18 16 14 13 11 8 4 3 3 2 2 2 2 2 2 2 2 2 2 3 4 5 6 8 9 11 11 12 13 13 13 14 15 18
13 14 14 15 16 19 20 20 18 16 14 13 10 6 4 3 3 2 2 2 2 2 2 2 2 2 2 2 3 3 4 5 6 8 9 10 12 12 13 15 16 19 21
14 15 16 18 20 21 22 20 17 14 12 10 6 4 4 3 2 2 2 2 2 2 2 3 3 3 3 3 3 3 4 4 5 6 8 11 10 11 14 17 20 20 22
15 17 20 22 23 23 22 19 15 12 8 6 5 4 3 2 2 2 2 2 2 2 3 3 4 4 3 3 3 3 4 4 4 5 5 6 6 7 8 8 10 12 12
18 20 23 26 25 24 22 18 14 9 6 5 5 3 2 2 2 2 2 2 2 2 3 3 3 3 3 3 3 3 4 3 4 4 4 5 5 6 6 7 9 9 10
23 25 27 28 26 23 21 17 12 7 5 5 4 3 2 3 3 3 2 3 3 5 6 5 3 3 3 3 3 3 4 4 4 3 4 5 4 5 5 6 8 8 9
28 30 31 31 26 22 19 14 9 6 5 4 3 3 3 3 3 3 3 4 6 7 9 9 6 4 3 3 3 3 3 4 3 4 6 5 4 4 6 6 7 9 10
44 39 39 31 25 20 16 11 8 6 6 4 3 3 3 3 3 4 6 8 9 9 10 11 9 6 4 3 3 3 3 4 4 4 8 5 4 5 7 8 8 10 11
45 44 37 31 24 18 14 10 8 7 5 4 5 6 5 8 11 13 11 8 7 6 7 10 13 14 8 4 4 4 4 4 4 4 6 5 5 7 9 10 9 10 9
47 37 32 26 21 16 12 9 10 6 5 5 6 6 9 14 15 14 8 9 6 5 5 6 12 16 17 10 5 4 4 5 5 5 5 6 6 9 12 11 8 11 10
54 38 27 21 17 14 11 8 7 7 6 6 7 8 11 11 8 12 8 6 5 5 6 5 6 9 15 18 23 20 9 5 7 12 14 10 7 8 15 15 10 12 12
40 34 24 18 15 12 10 9 8 7 7 7 8 6 8 6 7 8 10 10 9 9 9 12 19 15 10 10 14 19 34 41 24 11 11 17 16 10 12 18 14 12 14
32 32 29 23 16 14 12 10 9 9 7 7 6 6 7 9 9 8 8 9 10 10 10 10 11 14 17 19 15 13 14 20 30 56 60 41 28 27 16 15 22 17 16
29 26 23 18 14 12 11 10 9 8 8 8 8 9 17 15 13 10 12 16 13 12 10 12 16 15 18 21 22 22 22 19 15 28 45 71 71 57 51 34 21 25 22
28 23 19 17 14 13 12 11 13 16 27 21 10 9 10 22 23 20 18 17 19 22 22 27 30 29 33 31 28 33 32 30 29 27 21 38 66 75 74 68 52 27 31
28 24 21 19 17 15 13 13 12 22 24 32 43 40 37 50 43 34 32 39 39 40 34 30 25 28 32 47 60 52 53 54 51 51 45 40 30 41 73 76 82 72 37
27 24 22 21 21 19 17 15 14 13 12 13 17 34 40 22 20 30 51 45 54 28 38 37 25 29 33 56 61 72 70 68 68 78 68 68 72 79 50 54 75 88 96
29 26 24 20 17 18 20 19 19 18 16 14 18 15 24 26 22 33 11 17 19 14 7 11 45 36 47 50 57 61 56 64 79 91 86 84 88 81 78 90 76 72 78
38 29 25 23 23 21 24 27 16 16 17 18 15 12 11 9 8 9 14 13 8 7 9 12 18 23 24 28 46 54 52 50 62 76 93 91 88 86 86 84 91 96 88
53 43 41 40 42 34 21 18 16 15 15 14 13 11 10 10 10 10 9 8 7 14 17 16 17 12 12 26 37 48 59 58 50 44 49 57 60 63 88 95 85 88 90
58 58 59 50 36 22 19 18 17 16 13 11 9 8 9 10 10 9 8 10 16 18 17 14 11 10 10 13 25 28 35 42 43 46 46 57 75 73 62 64 90 97 96
43 40 37 32 28 21 18 15 13 10 14 15 14 11 9 10 9 8 14 18 16 14 12 11 11 10 10 14 15 14 13 16 24 27 45 39 81 69 88 80 69 88 100

GFSSE_500_rhum_057.txt.gz
RH
18 17 14 13 19 17 7 4 3 4 4 4 6 8 9 10 11 12 12 12 12 12 12 12 12 12 11 10 10 9 9 8 8 8 7 7 7 6 7 7 8 9 9
18 14 12 12 15 12 4 4 6 8 11 13 14 14 14 13 13 13 12 12 10 9 8 5 4 3 3 3 4 4 5 6 7 9 8 8 9 8 9 8 9 10 10
15 11 10 9 8 6 6 8 12 15 16 16 16 15 14 13 12 11 8 4 2 2 2 2 2 2 2 2 2 2 3 4 6 8 9 10 10 11 11 12 11 12 12
10 8 7 6 6 6 7 13 17 18 17 16 15 14 12 10 7 4 3 2 2 1 2 2 2 2 2 2 2 2 3 3 5 6 6 8 10 11 12 12 12 13 13
10 8 7 7 8 10 14 16 18 19 17 16 14 12 9 6 4 3 2 2 2 2 2 2 2 2 2 2 2 2 3 3 3 4 4 6 8 9 10 11 11 13 15
10 11 10 11 13 16 19 20 19 18 16 14 13 10 6 4 3 2 2 2 2 2 2 2 2 3 3 3 3 2 2 3 3 3 4 4 6 8 9 10 14 17 19
10 11 13 14 16 20 22 22 20 18 16 14 10 6 4 4 3 2 2 2 2 2 2 2 2 3 3 3 2 2 2 2 3 3 4 4 5 5 7 8 9 11 13
10 11 13 16 19 23 24 23 20 17 13 10 7 5 4 3 2 2 2 2 2 2 2 2 3 3 3 2 2 2 2 2 3 3 3 3 4 4 4 5 5 5 6
11 14 15 18 22 25 25 23 20 17 13 9 6 5 4 3 2 2 2 2 2 2 3 4 5 5 4 3 2 2 2 2 2 3 3 3 4 4 4 4 4 5 5
14 17 18 20 24 26 26 23 21 17 12 7 5 5 3 3 2 2 2 2 3 4 5 6 8 8 7 5 3 3 3 2 2 3 3 3 4 5 4 4 5 6 6
19 20 22 24 27 28 27 23 21 17 10 7 5 4 3 3 3 3 3 3 4 6 7 7 6 6 7 7 5 4 3 3 3 3 3 3 5 6 4 4 6 7 8
31 32 27 28 30 32 28 24 19 14 10 6 5 4 4 4 4 4 7 10 10 9 7 5 5 5 7 9 10 8 4 3 3 3 3 3 4 6 4 6 8 10 9
35 37 41 40 39 37 29 23 17 13 9 7 5 5 5 6 6 8 12 13 10 7 5 4 4 4 5 7 10 13 12 8 4 4 4 5 4 5 6 7 11 12 11
56 50 46 45 44 37 31 22 17 12 9 8 6 5 6 7 9 11 10 9 8 6 5 5 6 7 7 6 6 7 9 14 22 22 9 5 9 12 9 7 11 16 14
64 64 60 48 40 34 26 21 16 11 8 7 6 6 7 8 8 8 5 6 7 8 8 8 8 9 11 14 15 13 10 9 11 16 32 39 21 8 13 15 10 16 20
65 61 60 54 43 30 23 18 14 11 8 8 7 7 7 6 6 5 8 9 8 7 8 8 8 8 8 9 11 12 16 18 17 17 21 29 36 51 43 27 22 15 17
64 57 57 52 45 31 23 19 16 13 9 9 8 8 7 7 7 14 16 12 11 11 12 12 11 10 11 15 17 18 18 20 21 24 26 26 22 35 54 62 50 45 30
46 48 48 43 36 30 22 19 16 12 10 9 8 8 8 8 9 10 12 17 17 18 17 15 19 23 26 29 28 26 29 29 32 35 34 36 43 45 32 48 73 74 63
37 39 39 37 31 30 26 19 15 12 11 10 10 16 25 17 15 26 35 42 39 31 34 42 42 41 39 36 33 30 30 34 44 47 58 66 69 75 76 71 41 42 74
37 34 33 32 29 24 19 16 15 13 12 11 20 26 22 26 31 35 40 40 34 31 46 59 59 35 30 32 29 30 38 50 53 59 65 73 87 93 98 95 89 85 56
48 35 32 30 28 26 21 18 15 14 13 13 13 14 13 21 33 35 41 44 41 49 30 15 18 18 8 8 11 27 32 42 52 61 64 61 68 81 95 100 97 96 97
54 44 34 31 28 25 23 20 18 16 14 14 15 15 14 14 18 24 20 39 19 9 10 15 13 8 8 14 16 18 19 32 32 46 50 54 55 60 65 90 97 98 97
52 44 37 32 28 25 24 22 22 21 19 20 23 19 14 14 14 13 12 9 8 9 9 10 8 8 16 18 16 15 13 11 16 28 40 43 50 50 60 68 68 75 80
63 58 49 35 30 27 24 22 21 21 23 22 20 20 20 20 18 14 11 9 9 9 10 9 9 16 18 16 12 10 11 11 9 12 14 15 25 34 40 43 45 88 92
73 70 66 66 63 47 34 34 33 35 47 33 17 16 17 16 14 11 9 10 10 10 9 8 15 19 17 14 11 11 11 14 14 12 8 9 10 13 21 31 48 58 66
63 63 67 65 65 68 67 59 56 52 28 19 18 16 13 11 12 14 12 10 11 10 8 13 19 19 17 12 11 10 13 11 13 10 11 12 9 9 14 19 20 22 57

GFSSE_500_rhum_060.txt.gz
RH
23 23 22 20 17 18 18 9 4 3 3 4 4 5 8 13 14 13 12 12 11 10 7 4 3 2 2 3 3 3 3 3 4 5 6 7 8 9 9 9 9 9 10
24 19 17 13 12 16 16 6 4 4 7 10 12 14 14 14 13 11 10 8 4 2 2 2 2 2 2 2 2 2 2 3 3 4 5 6 7 8 10 10 11 12 12
27 19 15 12 10 10 9 5 5 8 13 16 16 15 14 12 11 8 5 3 2 2 1 1 2 2 2 2 2 2 2 2 2 3 3 4 5 6 8 10 12 12 12
27 20 11 9 8 7 6 7 11 14 17 17 16 14 12 11 8 5 3 2 2 1 1 2 2 2 2 2 2 3 2 2 2 2 2 3 3 4 5 7 8 9 10
23 12 7 7 7 7 7 10 16 18 18 16 15 13 11 8 5 3 2 2 2 1 2 2 2 2 2 2 2 2 2 2 2 2 3 3 3 3 4 4 5 6 9
16 9 9 8 9 11 14 16 18 20 18 16 14 12 9 5 3 3 2 2 2 2 2 2 2 2 2 2 2 2 2 2 2 2 2 2 3 3 3 4 4 5 6
10 9 10 10 14 15 19 21 22 20 18 16 14 11 6 4 4 3 2 2 2 2 2 2 2 3 3 3 3 2 2 2 2 2 2 2 2 2 3 4 4 4 4
10 9 9 12 15 18 22 24 23 20 18 16 14 11 6 4 3 2 2 2 2 2 2 2 3 4 5 5 5 4 4 3 2 2 2 2 2 2 3 4 3 3 4
10 10 11 12 15 19 24 25 23 21 18 16 11 7 6 5 3 2 2 2 2 2 2 3 4 5 6 6 6 5 4 3 3 2 2 2 2 2 3 5 4 3 4
10 10 12 15 17 20 24 26 24 22 20 16 8 6 5 4 3 3 2 2 2 3 4 6 6 6 5 5 6 6 6 5 4 3 3 3 3 3 3 6 5 4 5
12 13 15 18 19 22 25 27 26 22 21 15 10 6 5 4 4 3 3 4 5 8 10 9 7 5 4 4 4 6 8 8 8 7 5 4 3 3 3 4 5 5 7
14 15 16 19 22 25 28 29 28 24 21 15 11 6 5 4 4 5 5 6 8 10 10 6 4 4 4 4 5 5 6 6 7 9 11 13 10 6 5 5 5 5 8
16 18 28 31 28 28 30 33 31 25 20 16 11 8 5 5 5 5 6 7 8 8 7 6 6 6 6 6 8 8 11 12 10 8 8 9 14 24 22 12 9 10 7
29 36 36 36 40 41 41 40 34 27 21 16 11 8 6 6 6 6 6 6 5 5 6 7 8 7 7 7 8 8 8 10 12 14 16 16 15 15 18 28 32 15 13
41 45 42 41 41 42 42 42 35 27 20 15 10 8 7 7 6 7 6 6 7 10 9 8 8 9 10 10 9 9 10 13 16 17 18 20 21 20 21 20 21 33 46
47 49 51 54 54 54 50 41 34 25 19 14 11 8 7 7 7 7 6 7 13 14 11 12 13 14 13 11 12 17 21 24 25 27 31 31 30 32 32 33 33 28 30
56 57 60 60 61 60 54 50 38 25 19 15 13 9 9 8 8 8 8 8 9 10 20 24 24 23 22 26 31 33 31 30 30 28 28 33 48 56 60 64 61 59 52
56 74 72 70 63 61 59 51 39 27 20 18 14 10 9 9 8 9 12 11 13 26 34 38 36 32 32 44 50 38 32 35 28 25 31 44 58 66 67 71 70 78 73
64 72 76 74 68 63 56 53 48 34 26 21 15 12 10 10 11 22 24 29 30 32 37 33 30 29 50 59 47 26 18 7 8 22 31 42 54 56 61 68 64 72 81
59 58 56 52 50 47 44 39 44 36 24 19 15 13 11 13 18 21 17 23 30 37 41 40 45 54 42 16 15 13 8 9 15 17 22 38 50 45 57 71 60 62 73
59 55 47 42 41 40 39 35 31 25 20 18 16 14 13 13 25 26 26 17 19 22 24 38 46 18 9 11 11 9 8 16 17 18 18 15 22 32 39 46 48 61 63
86 75 62 53 40 35 34 33 29 25 24 23 18 16 15 16 16 15 17 16 15 15 13 13 10 9 9 10 10 8 11 17 16 13 12 12 13 17 32 28 23 22 21
87 83 68 60 57 49 39 33 30 29 26 21 19 17 17 16 20 25 23 17 16 16 14 12 9 9 10 11 9 11 16 18 17 14 13 13 14 15 14 13 12 12 12
83 81 76 65 60 55 46 38 34 30 26 23 21 19 18 19 26 32 34 16 15 15 12 9 10 10 10 10 9 17 18 17 16 13 9 10 12 12 11 13 14 11 12
68 82 79 67 57 51 44 38 33 30 27 25 24 24 27 39 42 26 19 18 17 14 12 14 11 11 11 9 14 18 16 14 12 9 9 9 8 12 16 16 14 15 20
62 66 74 75 70 63 60 60 59 54 47 38 33 36 38 48 30 20 18 16 12 16 14 14 16 14 10 11 18 19 15 12 9 10 10 7 8 15 16 16 16 16 11

GFSSE_500_rhum_063.txt.gz
RH
35 30 29 26 25 21 19 16 9 5 3 3 4 5 8 11 13 12 11 9 7 4 2 2 1 1 1 1 2 2 2 2 2 2 2 2 3 3 5 6 7 7 9
38 26 22 19 17 14 17 15 6 4 5 8 10 12 14 13 12 10 7 4 2 2 2 1 1 1 1 1 1 2 2 2 2 2 2 2 2 2 3 5 6 6 7
41 32 20 15 12 10 11 11 6 6 10 12 14 15 13 12 10 7 4 3 2 2 1 1 2 1 1 2 2 2 2 2 2 2 2 2 2 2 2 3 4 5 6
48 33 20 13 11 9 8 7 7 10 14 16 16 14 13 11 8 5 3 2 2 2 1 2 2 2 2 2 2 2 2 2 2 2 2 2 2 2 2 2 3 4 4
46 30 19 12 8 7 6 7 11 15 17 17 15 14 12 9 5 3 3 2 2 2 2 2 2 2 2 2 2 2 2 2 2 2 2 2 2 2 2 2 2 3 3
45 36 15 8 7 8 7 11 16 18 19 17 16 14 11 6 4 3 3 2 2 2 2 2 2 2 2 3 3 4 4 3 3 2 2 2 2 2 2 2 2 3 3
44 34 12 10 8 11 14 17 18 20 20 18 16 14 10 6 4 3 3 2 2 2 2 2 2 2 3 3 4 5 5 4 4 3 3 2 2 2 2 2 3 4 3
40 29 10 11 12 15 18 22 23 22 20 18 17 15 10 7 5 3 3 2 2 2 2 2 2 3 4 5 5 5 4 4 4 4 3 3 3 3 2 2 2 3 4
31 18 10 10 14 16 19 24 25 23 21 19 17 14 11 8 5 4 3 3 2 2 2 3 6 7 7 5 4 4 4 4 5 5 5 5 5 4 4 3 3 3 4
21 13 11 12 13 15 19 24 26 24 22 20 16 12 9 7 5 4 4 3 3 4 6 8 9 8 6 4 4 3 4 4 5 6 6 6 7 8 9 8 6 4 4
17 14 12 12 14 16 19 24 27 27 23 21 18 12 9 6 5 4 4 4 5 5 6 8 7 4 4 4 5 5 6 7 8 9 9 8 8 8 9 11 15 14 10
14 13 13 12 15 18 20 25 28 29 26 23 19 14 11 6 5 5 5 5 6 6 7 6 6 6 7 7 6 6 7 8 8 8 8 10 12 13 14 15 15 17 19
11 11 14 14 16 18 23 27 29 31 30 24 21 17 13 9 6 6 6 6 6 6 5 5 6 7 7 7 8 9 9 8 8 10 14 16 17 18 20 19 18 19 18
16 15 15 16 21 26 29 31 35 37 34 28 22 19 15 10 8 6 6 6 6 6 7 11 11 9 9 11 12 12 10 10 15 21 23 23 23 25 26 26 26 27 27
32 28 20 22 30 33 36 40 43 41 38 32 25 20 15 11 9 7 7 7 6 7 10 12 10 12 16 19 20 17 18 24 29 30 30 31 26 24 25 28 36 38 46
64 55 40 35 39 38 39 42 44 44 41 33 26 21 17 13 10 8 8 7 7 8 9 9 14 25 28 30 29 30 33 40 38 28 24 21 20 27 30 38 45 51 49
92 68 44 40 45 49 51 54 56 50 40 33 26 21 17 15 12 9 8 8 8 10 13 16 25 28 32 32 29 30 49 49 36 16 11 7 10 23 23 25 36 43 43
95 94 42 42 50 52 57 62 61 58 54 43 32 23 19 18 14 10 9 9 12 18 20 25 26 31 34 31 35 46 44 16 15 12 8 9 15 18 19 22 30 28 33
92 92 82 49 58 67 68 66 62 59 57 49 36 29 25 21 15 12 11 12 13 16 14 18 19 17 23 33 46 50 21 11 12 9 9 14 18 17 17 16 15 16 23
97 96 93 82 58 66 67 68 64 59 53 47 43 37 32 22 17 14 12 13 13 18 17 15 16 14 17 16 28 12 9 10 10 9 12 16 17 14 14 13 12 12 15
95 90 83 79 66 68 69 67 58 50 46 40 40 34 27 23 19 17 14 14 16 14 15 18 17 15 14 13 12 10 10 11 10 10 14 16 15 14 14 12 11 12 14
92 89 79 72 66 60 58 52 47 43 41 37 33 29 27 24 23 18 16 16 15 18 23 23 21 17 15 15 10 10 11 11 11 12 16 16 15 14 12 11 13 13 12
96 96 97 96 78 61 54 49 44 40 37 35 33 30 30 32 25 20 18 17 18 22 27 32 29 16 15 12 12 13 14 12 11 14 15 14 15 11 11 12 12 12 16
95 88 83 86 96 96 81 63 53 45 39 35 32 30 29 26 23 22 20 18 18 28 37 31 19 17 13 14 14 12 14 14 10 13 18 16 12 14 15 13 10 16 18
88 85 87 86 84 86 94 82 64 58 53 48 42 37 32 30 28 26 24 22 20 32 38 20 18 13 14 16 16 19 17 10 15 19 18 11 8 11 12 11 17 18 18
94 90 81 76 76 74 75 75 73 68 64 58 50 43 38 36 35 35 32 36 49 41 23 16 13 14 15 20 24 17 11 13 19 18 15 10 8 12 11 16 16 18 20

GFSSE_500_rhum_066.txt.gz
RH
44 35 33 27 24 22 18 18 12 7 3 3 4 4 6 8 12 11 9 7 5 2 2 1 1 1 1 1 1 2 2 2 2 2 2 1 2 2 2 2 2 3 3
44 36 29 27 24 20 18 17 13 6 4 5 6 9 12 12 11 9 7 5 4 2 1 1 1 1 1 2 2 2 2 2 2 2 2 2 2 1 1 2 2 2 3
45 38 28 20 17 14 13 14 12 5 5 8 12 14 13 12 10 7 5 4 2 2 1 1 2 2 2 2 2 2 2 2 2 2 2 2 2 2 2 2 2 2 2
50 41 33 22 14 11 9 9 9 7 9 14 15 14 13 11 8 5 4 3 2 2 1 1 2 2 2 2 2 2 2 3 3 3 2 2 2 2 2 2 2 2 3
52 46 34 23 14 9 7 7 6 9 14 16 16 14 13 10 6 4 3 3 2 2 2 2 2 2 2 2 3 3 4 4 4 4 3 3 2 2 2 2 2 2 2
63 48 35 19 12 8 7 7 9 12 16 18 16 15 13 9 5 4 3 2 2 2 2 2 2 2 2 2 3 4 5 4 4 4 4 3 3 3 3 3 2 2 2
66 52 45 22 11 7 8 10 17 19 20 19 17 16 13 9 6 4 3 3 2 2 2 2 2 2 3 5 6 5 4 3 4 4 4 4 5 5 5 5 4 4 3
65 52 50 20 13 11 11 16 19 22 21 20 18 17 14 10 7 4 3 3 3 2 2 2 3 5 7 7 6 4 3 4 4 5 5 6 6 6 6 7 7 7 6
56 50 49 18 12 14 16 19 23 24 22 20 19 17 15 12 8 5 4 4 3 3 3 5 6 7 7 6 3 3 4 5 5 6 7 7 7 7 7 8 9 10 10
46 43 41 18 12 14 16 21 26 26 24 22 20 18 16 14 10 6 4 4 4 5 5 6 7 7 5 4 5 6 5 6 6 7 8 7 7 8 10 12 14 15 14
39 32 30 17 13 13 16 20 26 28 26 23 21 19 15 13 11 7 5 5 5 5 6 6 6 5 5 6 6 6 7 8 8 8 8 9 12 15 17 17 19 19 19
47 32 26 16 13 12 14 18 24 29 29 26 22 19 16 14 10 7 6 5 5 6 6 6 5 6 7 7 8 9 10 11 10 9 12 17 20 21 21 21 22 22 21
23 18 16 12 12 13 15 18 23 29 31 30 26 22 19 16 12 9 7 6 6 6 6 6 7 10 11 9 10 14 16 16 14 16 22 24 26 28 28 23 21 22 24
53 37 12 11 12 13 16 19 24 29 32 35 32 26 22 20 15 12 9 7 6 6 6 7 9 11 9 13 20 24 25 24 26 28 32 29 22 17 14 13 18 23 31
46 40 13 12 13 14 16 21 27 30 36 42 37 32 25 21 18 15 12 10 8 7 7 7 8 9 12 22 25 26 26 27 27 42 43 33 14 10 8 8 16 18 20
47 61 38 13 13 14 18 29 32 38 42 44 42 37 29 23 20 18 16 14 10 8 8 8 10 14 19 21 24 26 26 29 35 44 20 14 13 10 8 12 17 18 19
41 64 70 39 20 17 20 29 35 38 42 47 47 38 31 27 24 20 19 17 12 9 9 11 15 16 15 21 22 21 23 36 44 43 13 10 10 9 10 15 17 17 17
41 68 76 93 58 38 31 36 38 45 54 57 50 48 45 39 32 25 21 19 14 12 11 11 15 13 14 16 16 16 18 20 26 11 9 10 10 10 11 16 17 16 16
49 66 80 93 95 67 40 44 50 56 63 60 59 56 51 44 35 29 27 23 18 14 13 12 14 18 15 16 19 17 15 13 12 10 10 10 11 11 13 16 17 17 14
47 67 89 88 98 95 62 50 52 58 64 64 62 59 54 51 43 37 30 22 20 18 15 14 18 14 17 24 28 24 17 15 13 11 12 11 11 12 14 16 17 15 11
46 48 85 88 80 86 98 72 51 61 67 69 66 60 51 44 42 38 27 24 21 20 18 16 15 15 21 27 33 36 20 17 14 14 13 12 12 13 14 17 16 11 9
63 70 89 97 98 97 94 85 75 65 66 67 64 55 47 43 38 34 29 26 29 24 19 17 17 18 23 29 33 39 19 17 15 14 13 14 14 14 16 16 13 10 10
87 91 98 97 88 81 85 78 71 66 64 60 56 50 45 41 37 34 31 31 29 24 20 20 20 20 28 34 35 25 18 14 15 16 15 14 15 14 16 15 10 9 11
97 96 95 90 93 94 83 76 70 64 66 60 54 48 45 42 38 36 33 30 27 24 23 22 22 21 24 42 25 18 14 14 18 25 18 14 15 14 17 14 10 11 12
94 94 96 97 96 95 97 97 94 91 70 61 57 54 49 44 40 37 35 34 31 29 26 25 26 34 51 29 16 14 18 20 26 27 19 13 16 17 16 13 16 17 15
85 94 99 98 98 94 90 83 81 87 92 92 89 72 57 55 56 54 48 41 36 38 44 55 63 43 28 22 17 27 37 37 35 20 14 16 19 17 14 12 18 15 18

GFSSE_500_rhum_069.txt.gz
RH
51 44 36 30 25 21 18 18 15 11 5 3 4 4 5 7 9 10 8 6 4 3 2 1 1 1 1 1 2 2 2 2 2 2 2 2 2 2 2 2 2 2 2
59 47 36 32 26 24 20 18 16 11 6 4 5 7 9 10 11 9 7 4 3 2 2 1 1 2 2 2 2 2 2 2 2 2 2 2 2 2 2 2 2 2 2
62 49 38 29 26 22 18 15 15 10 6 7 11 13 12 12 11 9 5 3 2 2 2 1 1 2 2 2 2 2 2 3 4 4 4 3 3 3 2 2 2 2 2
61 48 37 30 20 16 13 11 12 11 7 8 12 14 13 12 10 7 4 3 2 2 2 1 2 2 2 2 2 2 4 4 4 4 4 3 3 3 3 3 4 3 3
64 52 42 33 23 14 11 8 8 8 8 12 14 14 14 12 8 5 4 3 2 2 2 2 2 2 2 2 2 4 5 5 4 4 4 4 4 4 5 5 5 5 5
68 59 44 36 25 15 9 8 7 8 10 15 16 15 14 12 8 5 4 3 2 2 2 2 2 2 2 3 5 6 5 4 3 4 4 5 6 6 6 6 6 7 7
68 64 48 37 26 14 9 7 7 10 14 17 17 16 15 12 9 6 4 3 3 2 2 2 2 4 6 7 7 6 4 4 5 5 6 6 6 6 7 6 8 10 11
68 65 56 41 31 16 8 7 9 15 19 20 18 17 16 14 10 7 5 4 3 3 3 3 4 6 7 7 5 4 4 5 5 6 7 7 7 8 8 9 13 14 15
63 62 58 47 37 16 10 8 12 19 22 22 20 19 17 15 12 9 7 4 4 4 4 5 5 6 6 5 4 5 6 6 7 8 9 9 9 11 12 16 17 18 18
61 58 59 51 44 15 11 12 15 20 24 23 21 20 18 16 14 11 7 5 4 5 5 6 5 5 5 5 6 6 7 8 10 11 11 11 13 16 17 18 19 20 19
68 56 51 48 46 19 11 14 17 23 26 25 23 21 19 18 16 13 8 6 5 5 6 6 5 5 6 8 9 8 9 11 16 16 15 16 19 20 19 18 19 19 15
71 51 39 46 43 23 11 13 17 24 28 28 25 22 20 18 16 15 11 8 6 6 6 6 6 6 8 10 10 9 15 19 22 22 21 24 27 27 20 14 13 12 10
71 58 32 27 29 23 13 12 15 20 28 31 29 25 22 20 18 16 12 9 8 7 6 6 6 7 9 10 9 16 23 24 23 22 24 27 35 30 19 12 12 10 11
73 70 53 30 21 19 12 12 15 18 25 31 34 31 27 23 20 18 15 12 10 9 7 7 7 7 8 9 11 20 22 24 24 24 27 34 36 16 12 13 11 10 12
85 77 61 51 39 18 12 11 14 18 23 29 35 38 35 30 25 22 20 17 15 13 9 8 8 8 9 13 16 16 20 24 22 21 26 40 36 15 8 10 10 10 13
79 72 55 44 47 22 12 12 13 16 22 29 37 44 42 38 32 27 23 20 18 18 13 11 9 9 12 15 14 13 17 18 19 19 16 21 13 8 8 10 12 11 14
63 51 50 39 52 29 14 13 13 16 23 29 39 45 45 44 37 30 26 24 22 19 16 13 12 12 12 15 14 14 15 19 21 21 15 13 12 9 9 11 12 12 14
39 33 34 36 63 72 24 16 14 14 24 32 37 42 48 47 42 44 39 32 27 24 21 17 14 13 13 14 18 18 16 24 28 32 20 16 13 10 13 14 14 13 14
29 27 30 30 46 74 76 38 24 22 29 36 39 47 51 52 53 52 48 41 36 33 26 20 17 16 14 16 16 15 19 26 31 38 27 18 13 15 16 20 18 15 14
35 30 33 33 42 74 80 97 84 39 36 38 46 49 56 58 57 57 54 48 43 40 27 22 20 19 18 18 21 18 20 24 30 32 27 18 14 16 18 22 20 14 14
40 40 36 35 43 58 74 82 97 94 72 50 50 55 61 64 65 63 55 46 41 36 30 27 29 31 21 25 28 20 20 30 34 34 22 18 14 17 23 22 16 13 16
49 44 44 43 42 52 68 82 87 97 98 95 55 61 65 68 69 65 53 46 42 42 36 34 37 35 26 23 24 21 24 33 41 32 18 14 15 21 24 22 18 14 18
94 61 54 53 49 46 58 68 90 100 96 93 88 74 67 66 60 57 51 46 42 40 37 33 33 32 29 24 23 26 33 46 43 19 15 16 19 23 25 22 15 16 18
94 92 62 68 66 66 70 91 99 96 86 75 69 66 62 61 59 55 52 48 44 42 40 37 34 33 33 30 29 40 55 41 23 21 27 34 33 28 22 16 15 18 17
97 94 95 86 86 95 97 92 82 69 63 62 71 65 63 62 61 57 55 55 54 49 43 40 38 34 30 37 60 63 34 34 26 26 34 32 29 21 16 15 19 19 16
89 87 95 96 97 98 95 90 91 87 90 82 77 77 81 77 75 66 68 67 58 52 53 46 39 38 52 64 64 41 44 46 37 34 34 31 25 15 15 19 20 18 13

GFSSE_500_rhum_072.txt.gz
RH
55 51 48 42 34 26 20 15 16 13 10 5 3 4 5 6 8 9 9 7 5 3 2 2 1 1 1 1 1 2 2 2 2 3 4 4 3 3 3 3 3 3 2
61 53 45 40 33 26 21 18 16 14 9 5 4 4 7 10 10 10 8 6 3 2 2 2 1 1 1 1 2 2 2 3 4 4 4 4 4 4 4 4 5 5 5
67 61 48 38 32 27 24 19 17 16 10 7 5 7 10 11 11 9 7 4 3 2 2 1 1 1 2 2 2 2 3 4 5 4 4 4 5 5 5 6 7 7 6
70 65 54 42 30 26 21 17 14 14 12 8 7 9 10 12 11 8 6 4 3 2 2 2 1 2 2 2 2 3 5 5 5 4 4 5 6 6 6 7 7 8 10
74 65 54 40 32 22 16 14 11 11 11 9 9 10 12 12 11 8 5 4 3 2 2 2 2 2 2 2 4 6 6 5 4 4 5 6 6 6 7 8 8 11 13
77 68 56 44 34 27 16 11 8 8 8 10 10 11 13 13 11 8 5 4 3 2 2 2 2 2 4 5 6 6 6 4 4 6 6 6 8 8 11 10 10 14 16
78 72 64 51 39 29 20 11 8 7 7 11 12 14 14 14 12 9 6 4 3 3 3 3 3 4 5 6 6 4 4 5 6 6 7 10 10 11 14 14 16 17 17
77 72 66 58 42 32 23 12 8 6 8 13 16 16 16 15 13 9 7 5 4 4 4 4 4 5 5 6 4 4 6 6 7 9 11 13 13 14 16 17 16 16 17
77 70 66 60 53 35 27 14 8 7 10 16 19 18 17 16 15 12 9 6 5 4 4 5 5 5 5 5 5 6 7 8 9 13 17 18 17 18 20 19 16 13 15
77 75 66 60 55 46 32 17 8 9 15 18 21 20 20 18 16 14 12 8 5 5 5 5 6 5 5 6 8 9 8 11 17 20 21 19 19 22 22 19 16 13 14
81 76 66 54 56 50 39 20 9 10 17 22 23 22 21 20 17 16 13 10 7 6 6 6 6 6 6 7 8 8 9 18 21 22 20 20 22 23 24 16 13 12 13
88 78 70 57 53 50 44 31 10 11 17 24 25 24 23 21 19 18 16 13 9 9 8 7 7 6 6 7 8 9 13 18 19 22 22 21 21 24 26 21 10 11 12
92 76 74 60 45 44 44 38 16 11 17 23 27 28 26 22 20 18 17 13 11 9 8 8 7 7 7 7 8 11 16 15 16 22 20 27 26 21 19 13 7 8 11
98 97 78 62 47 40 35 31 24 11 14 20 27 30 30 28 24 21 20 19 14 12 10 10 9 8 8 8 10 14 16 13 15 18 20 26 25 19 12 11 8 9 11
99 94 87 69 55 46 42 29 23 14 12 16 23 30 33 34 33 29 26 23 20 16 15 14 12 10 9 9 12 15 14 13 15 16 22 30 36 28 15 13 9 12 15
97 99 99 89 83 57 50 40 16 12 12 15 20 27 32 37 40 38 34 28 23 20 19 18 16 14 13 12 13 14 15 17 18 16 25 30 37 40 23 15 11 16 21
93 86 94 94 71 52 45 44 28 14 13 14 18 23 29 38 44 43 42 33 28 28 26 23 22 19 17 15 15 15 16 19 15 18 23 28 32 38 30 17 14 18 24
73 70 74 70 69 60 48 46 41 18 13 14 16 21 27 36 38 45 49 44 47 44 37 32 31 27 21 19 19 20 20 21 19 19 21 25 30 36 26 18 14 19 26
50 55 54 57 60 49 40 43 65 50 17 15 15 18 26 32 38 50 54 54 53 52 52 45 41 34 27 25 29 28 26 26 25 21 21 26 36 44 27 16 14 21 26
35 40 46 45 51 41 31 37 60 72 65 39 28 23 26 36 43 52 61 62 60 60 55 46 43 36 34 31 38 38 29 30 27 23 24 34 46 42 26 15 18 24 29
44 42 43 40 44 48 44 42 48 66 72 87 92 42 38 43 51 56 66 70 70 69 58 50 49 50 41 39 39 39 33 28 28 29 32 47 38 27 20 22 28 30 29
81 46 43 62 47 38 46 36 34 40 59 71 88 95 85 62 53 52 60 67 67 67 58 54 50 44 41 36 38 40 39 33 32 38 55 40 22 24 29 34 32 29 29
95 93 86 56 48 45 39 35 38 52 62 72 83 90 96 96 92 60 63 64 61 58 56 52 48 46 44 42 38 44 50 48 43 60 56 42 28 25 35 33 31 30 23
90 91 96 94 84 55 58 46 43 43 51 67 75 93 93 86 77 73 74 68 62 59 58 56 51 53 53 49 46 46 43 44 58 61 48 48 40 37 35 33 31 28 15
94 94 95 97 93 96 80 56 56 53 48 51 63 69 80 82 73 64 61 59 60 67 69 60 59 63 58 57 62 51 44 59 64 59 51 46 40 36 32 33 29 16 14
95 95 94 94 90 94 98 78 65 75 69 75 78 78 79 66 64 63 63 64 63 68 77 74 81 84 76 60 55 51 60 66 65 55 48 34 34 33 30 37 22 15 16

GFSSE_500_rhum_078.txt.gz
RH
56 52 51 51 48 43 39 29 21 16 12 8 4 5 5 5 5 7 8 8 6 4 2 2 1 1 2 2 2 2 3 4 6 5 5 6 8 9 9 10 12 12 15
59 55 51 47 47 44 38 27 19 16 13 10 6 4 4 5 7 9 9 8 5 4 3 2 2 1 2 2 2 2 3 5 6 5 5 6 8 9 9 13 14 14 16
61 59 54 48 46 44 39 27 20 17 14 10 8 6 5 7 9 10 9 7 4 3 3 2 2 1 2 2 2 3 5 6 6 4 6 7 8 10 11 15 15 16 16
62 60 56 52 47 44 38 27 22 18 16 12 10 8 7 9 10 11 8 6 4 3 2 2 2 2 2 2 4 5 6 7 5 5 6 8 10 13 15 17 18 17 16
67 63 59 53 52 43 36 29 23 18 15 14 11 9 9 10 10 11 8 6 4 3 2 2 2 2 3 4 5 5 5 4 5 6 8 11 16 17 18 20 20 17 16
67 65 62 56 54 50 39 26 20 16 13 13 12 11 11 11 12 11 8 6 4 3 3 2 2 3 4 5 5 5 5 6 7 9 12 18 20 20 23 23 22 16 15
66 62 62 60 56 56 44 28 16 14 10 10 10 12 12 12 13 12 10 7 4 3 3 3 3 4 5 5 5 5 6 8 9 14 20 21 22 25 25 25 23 16 13
71 70 68 64 61 56 44 33 24 15 9 8 9 12 13 14 14 13 11 7 5 4 4 4 5 5 6 5 5 7 9 9 15 20 20 21 24 28 31 31 25 19 14
77 79 76 71 68 56 44 35 26 20 13 8 8 10 14 16 16 15 12 9 7 5 4 5 5 6 6 6 6 8 9 10 19 19 20 22 25 27 30 35 28 15 14
88 81 78 76 73 67 58 46 31 21 13 8 9 12 16 18 18 16 14 11 9 6 5 5 6 6 6 6 7 7 9 14 19 18 20 23 24 26 29 31 38 30 21
95 94 85 82 78 72 65 58 47 33 23 11 10 14 18 20 20 18 15 13 11 7 6 6 7 7 7 7 7 8 9 15 20 21 22 24 24 24 28 30 38 41 32
96 96 95 85 79 74 68 60 54 47 31 17 10 13 20 23 22 21 19 17 14 12 9 9 9 9 9 8 8 8 10 14 18 21 22 24 23 26 28 30 31 42 43
99 96 96 95 84 77 68 62 54 49 46 25 13 14 20 24 24 24 22 21 19 18 15 12 12 12 13 12 11 10 12 16 21 24 24 27 28 26 29 31 32 35 44
95 96 95 95 94 84 74 63 58 54 48 42 22 13 18 25 28 27 26 24 22 21 21 20 17 16 18 18 17 16 18 20 22 23 24 27 30 31 30 30 33 37 47
96 96 95 95 96 98 87 71 65 52 45 41 37 20 14 18 26 29 30 30 29 28 26 25 22 19 20 22 22 21 20 20 23 25 28 31 36 37 35 34 33 38 48
92 94 96 96 94 93 95 96 80 62 45 39 35 28 15 15 19 26 31 34 36 38 38 35 29 25 26 27 28 28 28 25 25 27 32 36 38 39 38 38 38 40 49
96 96 96 96 96 95 95 94 86 73 60 47 38 28 22 14 16 20 26 32 36 43 46 44 37 36 40 38 38 40 37 31 30 32 36 40 40 40 39 40 41 47 49
97 95 88 92 97 96 97 96 85 78 78 60 48 39 25 16 15 17 22 28 36 45 49 51 48 52 54 55 50 45 44 39 38 39 41 43 42 40 42 45 44 53 48
88 90 96 93 93 96 96 96 98 92 82 63 53 52 46 33 25 18 18 24 30 39 43 51 57 59 59 59 59 52 48 49 49 43 41 42 45 45 50 49 53 56 48
76 91 83 92 97 93 95 96 91 86 81 69 60 54 57 64 42 21 21 20 26 31 38 47 55 61 63 63 66 63 58 54 49 46 44 47 47 49 52 54 53 57 45
28 46 76 87 96 98 94 75 90 77 71 66 60 42 40 58 77 71 55 40 31 27 32 36 46 53 62 62 62 63 59 53 51 49 48 50 52 54 71 58 56 58 51
24 34 54 55 58 89 96 84 65 80 58 75 88 72 55 52 83 89 88 97 96 64 50 44 45 48 53 58 54 54 56 59 57 57 56 58 60 67 72 57 60 62 53
26 29 32 46 50 76 76 93 84 79 63 74 72 69 83 90 66 66 74 78 88 96 95 86 77 71 59 80 70 63 59 61 63 60 63 74 86 84 65 60 63 64 53
39 37 46 52 76 93 86 89 94 94 87 68 77 86 86 87 89 70 78 73 81 83 86 85 87 84 74 74 72 80 66 59 61 60 68 73 79 75 66 65 67 61 48
30 36 57 66 76 86 97 98 97 96 97 95 88 87 93 94 93 94 81 79 63 69 72 79 79 92 89 82 70 63 62 55 51 47 52 78 74 70 68 69 66 54 44
28 26 33 31 53 64 94 89 97 98 96 97 96 96 97 96 97 96 96 91 77 83 73 75 90 87 81 73 61 63 63 64 72 69 66 73 74 75 67 63 56 52 41

GFSSE_500_rhum_081.txt.gz
RH
46 44 42 47 47 45 41 39 31 21 14 9 5 6 6 5 5 5 7 8 7 5 2 2 2 1 1 2 2 2 3 5 6 6 6 7 8 9 10 13 15 16 16
47 41 42 48 46 46 43 38 29 18 15 12 7 4 4 5 6 7 8 8 7 4 3 2 2 2 1 2 2 2 4 6 7 6 6 7 8 10 12 15 17 17 17
50 52 48 50 48 45 44 40 30 19 15 12 9 7 5 5 6 8 9 8 6 4 3 2 2 2 2 2 2 3 6 7 7 6 6 7 10 13 16 18 19 19 18
52 50 53 54 50 46 44 40 31 22 17 14 11 9 7 7 8 8 9 8 6 4 3 2 2 2 2 2 4 5 6 6 5 6 7 10 14 18 20 23 23 22 19
63 58 57 57 54 48 44 40 32 24 18 16 13 11 10 8 9 9 9 8 6 4 3 2 2 2 2 4 5 6 5 5 6 8 10 15 19 21 23 24 24 23 18
66 63 63 62 58 52 44 39 32 26 18 15 14 13 10 10 11 11 10 9 7 4 3 2 2 2 4 4 5 5 5 6 9 11 16 21 22 23 26 27 28 26 22
75 71 67 68 64 57 51 42 32 25 16 12 12 13 11 12 12 12 11 10 7 4 3 3 3 4 5 5 5 5 7 9 11 18 21 21 22 25 26 27 30 29 24
83 80 74 74 67 60 55 48 32 18 13 10 8 10 12 13 13 14 12 11 8 5 4 4 4 5 6 5 5 7 9 9 15 20 20 21 24 25 25 26 28 33 33
93 85 84 78 68 64 57 49 35 20 16 10 9 10 12 14 15 15 14 12 8 6 5 4 5 5 6 6 6 8 8 9 17 20 22 24 25 25 26 28 30 34 38
94 94 92 84 74 64 55 44 30 23 16 11 11 11 13 15 16 18 16 14 10 8 6 5 5 6 6 6 7 8 8 11 18 22 24 25 26 28 29 30 32 33 37
99 95 92 87 79 70 62 47 37 26 17 12 11 12 14 17 18 19 18 16 13 11 8 6 6 7 7 7 7 7 8 10 18 22 26 27 29 29 30 33 34 35 36
94 94 94 90 84 76 70 60 54 41 30 20 14 13 16 19 22 22 20 18 15 14 11 9 8 9 9 9 9 8 10 13 18 22 26 28 32 33 34 35 36 36 39
97 96 96 94 92 87 79 70 64 57 52 42 26 15 14 20 24 25 23 22 20 18 18 16 13 12 12 14 14 13 14 14 17 23 26 29 32 35 37 39 39 38 38
96 94 98 100 94 96 92 81 74 63 56 50 46 29 17 15 20 26 27 26 24 23 22 22 22 20 17 18 20 19 18 18 19 22 26 29 36 38 39 41 41 40 37
87 97 96 97 95 95 95 96 94 74 62 53 45 42 32 15 16 22 27 30 29 28 27 27 26 26 24 22 22 24 25 26 26 25 26 30 37 41 41 43 43 42 43
94 95 90 96 96 96 92 91 95 93 70 58 50 42 37 30 16 15 20 26 30 32 33 34 36 36 33 29 28 32 33 35 36 32 31 33 38 42 44 45 46 48 50
95 99 95 96 97 96 93 94 88 86 81 64 54 45 41 32 26 18 16 19 26 32 37 40 40 42 40 38 38 42 43 44 44 42 39 40 42 43 44 47 49 50 53
85 80 91 95 96 96 96 95 95 87 78 74 56 48 48 47 36 21 16 17 20 26 32 38 43 47 49 49 54 55 54 52 49 46 47 49 46 44 44 47 48 51 54
85 73 94 94 96 96 96 96 96 97 95 86 79 62 52 52 50 41 32 22 19 20 26 31 41 46 51 54 56 60 62 63 60 58 56 53 48 46 47 48 52 54 69
86 79 93 94 95 96 92 96 94 97 97 97 81 80 79 69 60 64 70 50 30 20 19 25 31 36 39 39 52 64 67 68 67 65 59 53 50 49 53 55 59 60 74
96 97 96 89 96 95 97 93 96 91 93 78 69 74 72 63 57 43 56 76 70 42 22 21 22 24 29 35 45 57 64 70 67 62 58 57 56 58 58 61 71 75 76
55 63 79 92 82 78 86 79 72 82 96 95 79 73 66 74 74 67 48 57 86 96 98 97 85 49 41 40 42 44 55 77 74 71 69 71 73 68 69 70 74 76 75
26 31 51 49 32 65 86 94 97 96 96 95 93 92 90 76 68 86 91 75 74 84 89 97 94 91 92 94 92 81 70 70 78 80 83 78 69 70 58 57 70 74 77
38 26 27 52 68 74 76 79 93 94 96 97 96 96 94 93 87 98 98 96 96 96 96 85 85 83 76 84 96 94 78 64 54 56 63 64 65 60 58 66 76 74 71
45 35 24 34 46 60 61 70 57 83 96 96 97 95 98 97 96 96 96 97 96 97 95 95 95 89 84 78 74 73 68 68 71 73 56 69 68 70 72 74 76 76 76
32 25 28 37 39 35 34 56 65 74 69 82 97 96 97 97 96 96 96 96 96 97 96 96 95 94 84 71 54 67 74 76 88 69 64 59 66 71 68 72 75 72 71

GFSSE_500_rhum_084.txt.gz
RH
43 39 40 37 38 42 42 40 38 32 20 11 6 6 6 6 5 5 6 7 8 7 4 3 2 2 1 2 2 2 3 5 6 7 6 8 8 10 12 14 17 18 19
41 39 37 37 41 44 46 42 39 31 21 14 9 5 4 4 5 6 8 8 8 6 4 3 2 2 2 2 2 2 4 6 7 6 6 7 9 12 15 18 20 21 21
46 46 42 40 44 46 48 43 39 31 20 15 11 7 5 5 4 6 8 8 8 6 4 3 2 2 2 2 2 3 5 7 7 6 6 8 11 15 18 21 21 21 22
47 48 45 41 45 46 47 44 40 34 22 16 13 10 8 7 6 8 8 8 8 6 4 3 2 2 2 2 3 5 6 6 5 6 8 11 15 18 19 20 21 22 23
53 52 48 45 44 47 48 44 41 36 26 19 15 12 10 10 9 10 9 8 8 7 5 3 2 2 2 3 4 5 5 5 6 8 11 15 19 20 20 20 21 23 25
56 60 56 51 48 50 50 45 42 37 29 22 18 14 12 11 10 11 10 10 8 7 5 3 3 2 3 4 5 5 5 6 8 11 15 19 20 20 20 22 23 24 27
64 63 63 61 55 53 54 48 41 35 29 24 19 16 14 12 12 11 12 10 10 8 6 4 3 3 4 5 5 5 6 8 10 14 19 20 20 23 24 24 24 28 29
68 66 67 65 62 58 56 53 44 35 29 21 16 12 13 12 12 12 13 12 11 9 6 4 4 4 5 6 5 6 8 9 11 17 20 22 23 24 25 26 28 31 32
76 77 75 76 69 67 63 58 52 42 28 18 15 9 10 11 13 13 14 13 12 10 7 5 4 5 5 6 6 7 8 8 11 19 22 25 25 26 28 30 33 34 36
92 88 87 85 78 74 73 64 54 48 33 17 13 9 10 10 12 14 15 16 14 12 9 7 5 5 6 6 7 7 7 8 12 20 24 26 27 28 31 32 34 35 37
98 98 90 86 82 82 74 67 56 49 37 25 17 12 12 12 13 16 16 18 16 14 12 10 6 6 7 7 7 7 8 8 11 18 23 26 28 32 34 35 36 38 38
99 95 94 89 90 80 71 62 56 41 29 23 17 13 11 12 14 17 18 19 19 17 15 13 9 8 8 9 9 9 10 11 13 16 21 27 30 33 36 37 38 40 40
96 91 94 95 90 82 75 64 56 41 33 26 20 17 15 14 16 19 21 22 22 20 18 17 16 13 12 12 13 14 16 16 18 20 21 25 29 33 38 39 40 42 44
95 95 99 96 95 94 79 69 62 53 49 42 36 30 29 19 16 17 22 26 25 24 22 21 21 21 20 18 17 19 22 23 24 25 26 26 29 33 39 41 42 44 46
97 96 95 96 96 95 93 85 73 72 65 57 52 48 44 34 23 17 17 23 28 28 28 27 26 25 26 26 26 24 24 26 28 30 32 34 32 34 37 41 43 45 48
95 96 96 96 95 100 97 86 78 78 75 66 57 51 45 41 33 24 16 15 21 28 31 32 34 35 35 34 34 33 31 31 35 38 40 40 40 40 42 44 44 44 46
93 95 95 97 98 97 99 98 96 84 81 73 61 53 45 40 37 35 30 20 15 18 25 30 36 40 42 43 42 40 39 40 43 46 47 48 47 47 49 48 45 44 47
96 96 93 98 96 97 94 96 94 84 88 81 83 58 51 44 40 37 33 30 26 18 18 21 29 36 44 46 48 48 46 50 52 54 54 56 57 57 56 52 47 48 55
97 96 96 98 94 96 96 96 97 94 95 95 86 64 57 49 44 37 37 35 30 22 17 18 21 27 31 39 43 47 52 57 59 60 62 62 60 62 59 52 51 56 59
90 92 92 89 90 96 95 95 97 95 96 93 96 94 74 65 55 47 56 59 55 52 37 29 23 20 22 27 33 42 44 56 58 62 64 63 63 62 59 61 61 66 69
97 95 93 96 97 97 95 94 95 97 94 95 94 92 82 71 58 57 62 59 50 55 62 64 45 26 22 20 24 29 37 48 55 63 64 64 64 58 62 65 74 71 67
97 95 96 95 96 94 94 89 94 96 94 93 93 93 93 78 52 61 73 64 62 58 45 55 68 73 60 47 44 44 46 72 72 74 73 75 72 67 77 66 63 64 60
96 94 85 76 70 94 61 83 96 96 95 97 91 96 96 94 90 84 87 88 88 91 90 90 89 95 95 95 94 91 86 95 94 100 97 96 94 90 79 71 64 59 61
83 64 64 51 64 72 77 90 82 94 94 94 96 95 96 96 96 96 95 96 96 96 97 96 96 96 97 97 96 83 75 70 67 71 80 80 78 62 69 66 63 66 65
63 50 46 41 36 29 37 49 62 55 56 70 82 79 94 96 97 95 94 97 96 96 97 97 97 97 97 97 96 94 91 89 81 69 62 56 62 60 70 70 66 68 73
63 52 40 36 39 33 27 45 59 66 68 77 83 95 96 92 94 97 84 96 97 96 96 96 97 96 95 96 96 94 88 81 81 74 62 61 66 80 75 73 69 65 71

GFSSE_500_rhum_087.txt.gz
RH
42 39 37 31 28 27 33 35 34 34 28 14 7 6 6 6 6 5 5 6 6 7 6 5 3 2 2 2 2 2 3 5 6 7 6 7 8 11 13 16 17 17 18
41 36 35 32 28 28 34 36 35 36 33 19 11 7 5 5 5 5 5 6 6 7 6 5 4 2 2 2 2 2 3 6 7 7 6 7 9 12 15 17 16 16 17
46 46 39 36 31 27 30 36 38 38 34 24 15 10 6 5 5 5 5 6 7 7 7 6 4 3 2 2 2 2 4 6 7 6 6 8 12 14 16 16 16 16 18
48 49 46 38 35 30 30 37 41 39 34 26 17 13 9 8 6 8 9 7 7 7 7 5 4 3 2 2 3 4 5 6 5 6 8 11 14 16 17 16 17 16 19
55 52 48 43 37 34 33 39 42 41 36 26 17 15 12 10 9 9 10 9 8 8 7 5 4 3 2 3 4 4 5 5 6 7 11 14 16 18 18 19 19 20 22
61 58 51 48 45 39 38 39 41 42 38 30 21 17 14 13 12 10 11 11 10 9 8 6 4 3 3 4 5 5 5 5 7 10 14 17 18 19 20 20 21 24 25
64 57 55 52 49 44 45 45 43 42 40 33 25 19 16 15 14 11 12 12 10 10 9 7 4 3 4 5 5 5 5 7 9 12 16 19 21 21 22 23 24 26 28
66 62 57 56 53 50 50 49 48 44 41 36 30 23 18 16 14 12 12 12 12 11 10 8 6 5 4 5 6 5 6 8 9 11 17 22 23 23 24 26 26 25 28
65 63 62 63 58 57 56 53 52 47 42 38 32 27 20 15 13 12 13 12 12 12 11 10 8 7 6 5 6 6 7 8 8 12 18 23 24 24 26 28 26 27 29
60 62 68 68 67 66 63 60 55 52 46 41 34 27 22 13 10 11 12 12 13 13 13 11 10 9 7 6 6 6 7 8 8 11 18 23 26 27 29 29 28 29 30
76 71 70 75 73 70 68 66 61 55 52 47 38 27 21 11 10 9 11 12 14 15 15 14 12 8 7 7 7 7 7 8 8 10 15 22 26 28 30 31 32 30 32
94 79 72 70 72 73 72 70 70 65 62 53 45 32 24 12 14 10 11 15 16 17 17 16 14 11 8 8 9 9 9 9 10 12 15 18 24 28 31 34 34 32 32
96 98 90 82 82 78 76 80 78 72 62 55 46 39 27 18 15 12 12 16 17 18 19 19 17 15 13 11 11 11 13 16 18 20 21 22 23 25 30 34 37 36 36
97 95 97 95 95 95 88 86 79 72 60 53 39 34 26 21 18 22 24 21 20 21 21 21 20 19 19 18 16 15 17 20 23 24 26 27 28 30 31 33 36 39 40
95 97 97 95 96 98 92 83 82 70 60 51 39 39 30 28 29 30 27 26 21 20 24 24 25 24 23 23 24 25 24 24 25 26 28 32 36 38 39 39 41 44 45
96 96 96 95 96 94 81 94 92 77 66 61 53 44 39 35 39 36 28 24 18 18 21 26 29 29 30 30 31 32 32 32 32 32 33 36 40 42 45 45 47 50 49
97 97 96 99 94 94 91 94 95 90 80 86 63 56 55 56 54 47 39 29 23 17 16 19 24 27 30 32 34 36 37 36 38 38 37 38 40 42 44 50 52 56 54
96 97 96 97 97 96 92 96 95 94 93 86 72 64 66 69 66 47 41 37 34 31 25 20 17 19 23 25 30 35 38 39 39 38 38 40 41 43 48 54 54 58 57
96 96 97 96 96 93 97 94 95 93 94 91 86 83 91 93 69 48 43 38 34 32 30 28 24 21 17 18 24 30 32 33 34 36 41 43 43 42 49 56 60 60 57
97 97 95 93 92 94 98 83 75 89 96 96 96 95 93 95 70 58 50 46 56 37 35 31 28 26 24 23 19 18 22 22 29 31 35 40 40 43 52 59 60 58 60
96 93 90 98 96 96 80 92 86 97 97 97 94 90 98 87 73 68 59 55 53 43 46 52 51 48 49 48 38 30 21 19 25 29 32 31 30 36 45 48 56 60 72
91 84 94 95 94 94 96 97 97 96 96 97 94 89 86 80 91 95 86 73 60 62 70 76 52 54 58 67 66 64 48 33 28 32 43 52 76 80 77 83 88 78 66
94 93 99 100 96 87 91 95 94 94 97 97 97 96 97 92 91 95 96 94 75 89 97 97 96 97 100 98 97 94 87 94 88 89 94 95 89 85 87 87 81 74 59
97 98 92 94 82 94 94 97 94 92 95 97 96 97 96 97 98 96 97 97 96 96 97 96 97 96 96 96 96 96 97 98 96 100 96 95 93 96 88 78 66 54 62
96 95 96 98 96 93 97 95 95 96 96 96 96 96 97 97 96 97 95 96 97 94 97 96 96 97 97 96 98 97 98 94 89 88 84 86 69 62 68 69 71 67 73
89 72 61 62 71 66 80 88 87 79 85 87 78 76 95 93 95 96 96 97 96 93 96 96 97 96 96 96 96 96 96 94 94 90 81 73 78 69 70 71 66 71 75

GFSSE_500_rhum_090.txt.gz
RH
30 39 39 33 30 30 25 22 27 31 30 25 12 7 7 6 6 6 4 4 4 6 6 6 5 4 2 2 2 2 2 4 6 7 6 7 8 11 14 15 14 14 14
32 34 36 35 31 29 26 21 26 31 33 30 15 7 6 6 6 6 5 5 5 6 6 6 6 4 3 2 2 2 2 4 6 7 7 7 10 13 14 14 14 14 15
38 39 39 38 36 32 28 23 24 31 34 33 24 12 7 5 6 6 5 5 7 7 6 6 6 5 3 2 2 2 3 5 7 6 6 8 13 15 15 15 16 16 16
42 43 41 41 38 34 30 24 24 31 34 34 30 19 12 8 8 5 9 8 8 8 7 6 6 5 4 2 2 3 4 5 5 6 7 11 14 16 16 17 17 16 18
52 46 44 42 40 36 32 29 29 32 35 35 29 23 16 12 10 7 10 11 10 10 8 7 6 5 4 3 3 4 5 5 5 7 10 13 16 17 17 17 17 18 19
57 55 48 48 46 38 34 31 31 33 36 37 31 24 18 14 12 10 11 12 11 10 9 8 7 5 4 4 4 5 5 5 6 8 11 14 16 18 18 18 19 19 20
54 56 53 51 52 46 38 34 36 36 39 38 34 28 22 16 14 14 11 12 12 11 10 9 8 6 5 4 5 5 5 6 8 10 12 14 17 19 20 20 20 20 21
53 53 55 58 56 50 45 39 39 40 41 40 37 31 25 20 17 16 14 12 13 12 11 11 9 7 6 5 5 6 6 7 8 9 11 15 18 21 21 22 23 23 23
61 57 55 58 61 52 51 46 43 44 44 41 39 35 29 25 21 18 15 13 12 12 12 12 10 9 8 6 6 6 6 7 8 9 11 16 21 23 23 24 24 25 25
75 73 64 56 56 56 52 51 49 50 50 45 41 37 32 26 20 16 14 13 13 12 12 12 12 10 9 8 7 7 7 7 8 8 10 15 20 24 25 26 27 28 27
93 81 76 68 67 62 59 58 58 56 53 50 45 38 34 27 22 15 12 10 11 10 11 12 13 13 12 9 8 7 7 8 8 8 9 12 18 23 26 29 30 31 32
96 98 92 89 82 77 66 64 62 65 62 57 53 46 36 26 20 14 10 9 8 12 12 11 14 14 15 12 10 9 9 8 9 10 11 13 16 20 23 26 30 33 34
96 96 97 99 93 90 76 71 70 68 67 61 59 54 44 32 23 14 12 13 8 15 19 17 15 16 16 16 14 12 12 11 12 14 16 18 20 22 25 27 30 32 35
96 95 96 96 100 100 88 81 79 73 75 73 63 57 50 40 33 23 17 16 13 15 24 24 19 18 18 18 18 16 16 15 16 19 22 24 26 28 30 33 35 36 38
96 96 93 96 97 99 100 92 90 88 84 78 69 56 48 40 28 26 20 15 21 24 26 27 22 19 20 21 21 21 22 22 22 23 24 25 27 30 33 37 40 42 43
96 96 96 96 96 96 98 100 98 97 86 78 67 52 48 34 27 23 19 23 28 28 29 26 22 22 22 24 25 25 26 27 28 29 31 32 32 35 38 43 45 48 50
96 97 95 97 95 96 97 94 91 70 59 48 58 51 40 34 28 32 24 27 40 26 26 22 20 20 22 24 27 28 30 30 32 33 33 34 35 38 38 42 44 47 51
96 96 97 97 99 98 98 94 93 62 42 55 51 39 58 48 62 36 48 55 58 36 32 26 23 19 18 17 20 24 26 28 30 30 28 32 30 32 36 39 39 43 48
95 96 96 96 97 97 95 95 93 68 69 88 40 50 65 88 63 41 50 76 73 47 39 36 33 30 29 26 22 19 18 20 21 20 22 26 27 32 32 28 30 35 40
94 95 96 96 96 95 95 96 91 95 95 87 82 69 84 78 53 58 69 94 70 44 43 39 36 34 30 28 25 23 21 19 18 18 19 20 23 23 27 35 31 28 38
94 96 96 96 97 96 96 97 99 99 96 97 93 80 81 72 69 81 95 95 84 57 52 50 53 48 36 37 43 45 42 42 36 28 23 22 22 22 25 26 32 59 78
97 96 95 97 96 96 96 97 97 83 96 96 94 92 86 90 90 91 97 96 99 88 72 58 57 55 58 76 84 92 85 68 58 57 45 37 33 34 40 63 79 80 75
96 97 99 96 88 95 96 95 97 97 90 97 96 88 93 96 97 94 96 97 95 96 96 98 90 68 96 99 92 90 84 90 88 94 97 90 82 80 85 88 82 76 72
96 97 94 91 97 96 95 95 97 97 96 97 97 97 92 97 96 95 95 94 96 96 96 97 96 95 97 96 98 90 85 96 96 100 99 97 88 97 99 92 82 72 64
97 98 96 96 96 96 95 96 97 95 97 97 96 96 97 96 97 97 97 96 97 97 96 96 97 96 96 97 97 97 97 97 96 94 97 97 97 96 98 95 88 81 72
97 95 97 96 96 96 96 98 92 96 96 96 95 97 91 97 96 97 96 96 97 97 96 95 96 95 96 97 96 96 95 97 97 96 95 97 97 97 96 96 94 89 80

GFSSE_500_rhum_093.txt.gz
RH
20 22 27 31 34 32 30 27 23 21 22 26 26 17 8 8 7 6 6 4 4 5 5 6 6 5 4 2 2 2 2 4 6 7 7 7 8 12 13 13 13 13 12
23 24 28 29 35 35 32 27 24 21 22 26 27 18 8 6 6 6 5 5 6 6 6 6 6 6 4 2 2 2 2 3 5 7 7 7 10 12 13 14 14 14 13
25 27 29 35 36 40 35 31 26 23 21 25 30 23 12 6 6 6 5 5 7 7 8 6 6 6 5 3 2 2 3 4 6 6 6 7 11 13 14 15 14 13 14
29 29 34 36 40 42 38 35 28 25 24 25 30 29 21 10 6 6 6 8 7 8 10 8 6 6 6 4 3 2 3 4 5 5 6 10 12 13 15 15 14 14 14
37 31 33 40 45 44 42 37 33 27 28 30 31 31 27 17 10 9 7 11 9 10 11 9 6 6 6 5 4 3 4 5 5 6 8 10 12 13 15 16 16 16 16
56 40 36 41 51 47 45 42 36 30 32 32 32 32 30 20 14 11 10 11 12 12 12 11 9 7 6 5 5 4 5 5 5 7 10 11 13 15 17 17 17 17 17
75 54 45 41 52 56 48 45 40 35 35 36 36 34 32 22 16 13 13 11 13 13 12 12 10 9 7 5 5 5 5 6 6 8 10 11 13 16 18 18 19 19 20
86 66 60 48 47 55 57 49 45 42 38 40 41 37 34 28 20 16 15 15 13 14 14 12 11 10 8 7 6 6 6 6 7 8 9 11 14 17 20 21 22 22 23
89 81 73 60 53 50 56 56 50 46 45 42 43 41 36 31 25 21 18 18 16 13 14 13 12 12 10 9 8 7 7 6 7 8 9 11 14 18 22 23 23 25 26
88 87 84 63 58 58 57 59 56 50 48 47 45 42 39 34 28 24 22 20 16 14 14 13 13 12 12 11 10 8 8 7 8 8 8 10 13 16 21 24 25 26 28
92 89 84 76 63 68 59 64 62 57 52 52 49 45 42 36 32 27 23 19 16 13 13 12 11 11 10 11 12 10 9 8 8 8 9 10 11 14 20 22 25 27 29
96 97 89 93 74 72 69 69 66 62 59 56 54 49 44 39 35 27 21 18 14 12 10 9 9 9 12 14 13 12 12 11 10 10 11 11 12 15 18 21 24 26 28
96 96 97 97 87 74 78 72 69 64 60 60 61 56 51 42 31 26 21 18 14 11 10 10 17 18 15 16 15 14 14 14 13 12 12 14 16 20 21 24 27 29 32
95 97 84 93 97 83 87 74 77 73 66 65 66 66 61 51 42 32 25 20 15 12 13 10 16 23 30 26 18 17 16 16 16 15 15 17 21 23 25 27 29 30 32
96 96 96 96 94 89 95 96 87 82 75 73 75 71 64 55 50 40 33 22 20 17 16 14 18 24 30 26 20 18 19 19 20 20 20 21 22 24 26 28 29 30 33
96 97 96 97 96 96 96 97 94 90 88 86 83 75 69 58 51 35 33 26 24 22 15 18 27 29 30 24 21 19 20 22 23 24 24 26 27 30 31 31 32 33 36
99 91 96 97 96 95 97 96 95 93 97 95 86 76 69 57 48 36 34 28 25 22 18 39 34 31 28 24 22 22 23 24 26 27 27 30 32 33 32 33 34 35 37
96 93 96 93 96 96 97 97 98 96 95 89 84 83 61 52 40 37 55 30 30 20 63 26 61 35 24 23 20 20 23 25 25 25 26 30 32 35 38 38 40 42 40
97 95 96 96 92 95 94 96 96 94 93 93 94 81 64 55 39 87 32 36 30 89 60 39 85 40 28 31 29 26 22 21 21 21 20 22 23 25 30 37 37 37 36
94 94 95 96 97 94 97 96 92 89 82 89 92 85 76 52 77 36 34 69 72 45 25 72 90 60 40 38 35 32 31 29 26 24 22 20 20 20 24 24 25 27 29
96 98 98 95 96 99 95 97 96 89 89 92 89 78 71 72 89 27 73 73 87 27 51 73 91 43 43 43 44 52 43 42 49 53 47 40 36 33 31 29 26 25 26
97 94 93 96 97 96 95 94 97 96 96 95 96 96 94 96 58 44 71 80 76 41 80 95 96 63 62 67 78 88 92 97 82 82 72 65 57 59 64 64 69 68 72
94 95 97 98 99 96 96 95 96 96 95 97 91 90 97 96 82 96 74 79 67 79 90 97 97 97 95 93 95 87 88 93 88 88 88 91 84 92 96 99 97 94 91
97 97 95 96 96 95 97 97 94 82 91 96 97 96 96 96 96 94 96 94 94 95 96 95 97 96 96 97 95 98 98 97 97 98 96 97 96 100 90 95 95 95 97
97 97 97 97 95 96 96 94 94 97 97 97 97 98 99 97 96 96 95 93 96 95 97 95 96 96 97 96 95 96 96 97 97 96 97 96 96 96 97 96 96 92 93
96 96 96 97 98 97 97 95 97 97 97 98 97 98 97 96 96 97 96 97 96 93 98 95 96 97 96 97 96 96 97 98 92 84 94 96 95 96 96 96 92 90 83

GFSSE_500_rhum_096.txt.gz
RH
26 22 20 18 25 29 35 35 27 26 23 20 23 27 22 11 10 8 6 6 5 5 5 5 5 6 5 3 2 2 2 3 5 6 7 7 8 10 11 11 12 12 11
30 26 25 23 21 28 32 38 30 28 24 22 22 26 22 11 7 6 6 5 6 6 6 6 5 5 6 4 3 2 2 2 4 6 7 6 8 10 11 11 12 12 12
46 32 28 27 24 28 34 40 36 30 26 22 22 25 25 14 6 6 6 5 5 8 7 7 6 6 6 5 3 2 2 3 4 6 6 6 10 11 12 13 13 13 13
38 51 32 32 30 29 38 42 42 35 29 23 24 25 27 21 10 6 6 5 6 8 8 10 7 6 6 5 4 3 3 4 4 5 6 8 10 11 12 14 14 15 15
8 62 45 36 36 35 36 42 44 39 32 27 26 27 26 27 17 9 8 7 11 10 10 12 10 6 6 5 4 4 4 4 5 6 7 9 11 12 13 15 15 16 16
3 53 66 47 40 40 39 40 46 44 38 32 30 30 29 30 25 17 11 9 10 13 13 13 13 9 8 6 6 5 5 5 5 6 8 10 11 12 14 16 17 18 18
2 18 79 54 50 44 47 43 45 48 44 37 32 31 27 32 28 19 15 12 11 13 15 14 13 11 10 8 6 6 5 6 6 6 8 10 11 12 15 18 18 19 20
2 3 67 71 49 50 47 46 44 46 45 39 36 33 26 32 28 22 17 14 14 13 15 15 14 12 12 10 8 7 6 6 6 7 8 10 11 13 15 18 20 21 23
8 8 29 87 51 54 56 50 46 46 48 41 39 35 28 30 33 26 20 16 15 16 15 14 15 13 13 12 11 10 8 8 7 7 8 9 10 13 15 18 22 23 23
20 15 21 67 72 51 62 60 54 48 52 50 40 38 31 35 36 32 25 20 17 17 16 14 14 14 13 13 12 12 11 9 9 8 9 9 10 12 14 17 22 23 25
29 28 14 78 89 67 64 70 61 56 54 55 50 40 36 37 39 36 30 24 21 20 17 15 14 13 12 11 10 10 11 11 10 9 9 10 10 12 14 16 19 22 25
30 43 41 61 96 86 67 74 68 60 63 59 54 46 41 40 38 40 36 29 27 22 18 15 13 12 10 10 10 14 14 12 12 11 10 10 12 13 15 16 19 22 25
4 4 73 60 96 88 72 77 74 70 69 64 60 54 48 44 44 42 38 30 27 20 19 15 12 10 11 12 15 22 21 15 13 13 14 13 13 15 16 19 23 25 27
3 3 42 78 95 91 88 74 78 77 73 70 65 60 52 50 51 46 39 34 29 24 19 16 12 12 12 19 23 31 26 18 16 15 16 15 15 16 18 21 24 26 28
3 3 12 62 95 95 87 98 78 81 78 75 70 58 59 59 59 55 49 40 32 28 23 17 14 14 13 16 25 29 26 20 18 18 18 19 19 18 19 22 25 28 31
3 3 4 64 86 90 92 100 96 84 78 79 74 66 70 68 64 63 57 50 40 36 26 22 19 17 15 20 42 31 29 22 20 19 21 22 23 24 25 27 30 32 33
6 4 4 35 95 97 98 97 97 100 88 87 82 78 75 74 72 68 64 51 45 38 32 24 24 20 16 53 67 33 30 24 22 20 23 25 26 28 30 31 34 35 36
16 14 9 91 96 95 97 97 97 99 96 97 94 87 81 79 77 72 65 56 51 37 32 27 27 22 24 68 57 52 28 26 24 24 24 25 27 29 30 29 30 32 32
69 22 44 91 96 96 99 96 96 96 98 94 93 91 91 88 83 78 71 63 52 33 29 46 28 26 70 46 73 86 26 25 26 27 25 25 24 24 23 23 24 26 29
99 57 53 96 95 94 96 96 96 97 97 97 96 96 94 92 86 81 77 64 49 30 86 40 75 58 76 33 59 94 31 31 33 34 34 35 31 27 26 23 23 24 23
98 98 47 94 98 97 96 96 97 95 97 97 97 95 96 96 92 83 84 57 57 71 94 38 90 82 33 37 59 84 39 44 51 61 60 51 52 55 54 52 50 50 53
96 88 72 58 93 95 95 95 96 96 97 98 96 96 95 96 96 96 71 78 86 88 81 74 90 65 31 60 97 96 68 76 86 93 94 96 95 92 91 93 90 96 94
97 98 86 86 96 96 94 93 94 96 97 96 96 97 96 98 98 98 94 95 94 97 88 91 92 78 46 97 95 98 96 95 95 94 93 92 95 95 97 97 96 97 82
97 97 96 93 96 96 97 98 93 80 97 96 95 98 97 94 96 95 96 98 96 97 92 94 94 90 77 96 95 97 96 95 96 100 98 99 96 97 92 95 90 92 96
96 96 95 97 95 86 100 99 99 92 95 96 96 96 95 97 96 96 96 98 96 95 96 96 94 96 97 95 95 97 95 97 96 97 96 93 80 85 74 87 95 96 98
96 96 98 100 96 94 98 99 95 97 96 96 97 97 96 96 95 97 96 97 96 98 95 97 98 97 96 97 85 88 96 98 96 95 80 66 55 45 37 35 32 26 25

GFSSE_500_rhum_099.txt.gz
RH
39 24 20 19 17 20 24 27 32 34 32 28 23 20 27 22 12 11 9 6 5 5 6 5 5 5 5 4 2 2 2 3 5 6 7 7 8 10 10 10 11 11 12
24 40 24 22 22 20 22 25 30 33 33 32 26 19 23 24 14 8 7 6 6 6 7 7 6 5 5 5 4 2 2 2 3 5 7 6 8 10 10 11 11 12 12
4 27 40 26 25 25 24 25 29 32 34 32 28 22 21 26 16 7 6 6 6 7 9 10 11 7 6 5 4 3 2 2 4 5 6 6 9 10 11 12 13 14 14
3 5 46 42 28 27 28 29 30 32 35 34 30 25 22 26 22 9 6 6 7 6 9 12 15 12 7 6 5 4 3 3 4 5 6 8 10 11 12 13 14 14 15
4 3 20 50 40 29 31 32 35 33 35 35 33 28 24 26 28 16 8 6 8 10 11 12 16 15 9 7 6 5 4 4 4 5 6 9 10 11 12 13 15 15 16
7 4 3 42 51 36 33 35 42 40 36 36 34 30 26 28 30 26 16 9 10 10 13 14 16 17 13 10 8 7 6 5 5 6 7 9 10 11 12 14 16 17 19
8 6 2 4 50 48 36 40 44 49 42 36 37 32 27 27 32 29 23 18 12 11 12 15 16 16 16 12 10 8 7 6 6 6 7 9 10 11 12 14 17 19 20
16 11 7 3 9 52 42 41 46 53 50 43 36 35 28 25 31 32 28 20 16 13 12 13 16 16 16 14 12 10 9 7 7 7 7 8 9 11 12 14 17 20 21
18 22 11 7 11 21 50 39 42 55 56 50 43 36 32 24 30 34 29 23 18 14 14 14 14 16 16 15 14 12 11 10 9 9 8 8 9 10 12 14 16 19 22
23 28 16 9 23 22 53 46 45 57 63 54 48 40 37 31 28 33 33 27 20 17 16 16 16 14 15 15 14 13 12 12 11 10 10 9 10 11 12 13 14 18 21
39 63 48 25 19 29 32 65 45 52 68 61 55 48 41 38 32 30 36 34 28 21 18 18 18 16 14 14 13 12 10 12 13 11 10 9 10 11 12 12 14 16 19
42 59 74 50 49 25 25 42 69 49 67 73 63 56 49 42 39 36 40 37 35 28 23 22 20 17 14 14 12 10 10 16 18 14 12 12 11 10 11 12 13 15 20
15 16 42 49 52 40 27 27 71 64 61 80 76 65 56 49 45 43 42 42 39 35 29 22 21 18 15 13 10 10 12 24 28 19 14 13 13 13 12 13 13 16 22
13 14 17 16 34 27 18 29 62 80 65 71 82 73 61 60 55 52 46 45 42 38 33 28 22 20 15 12 11 14 18 27 32 26 18 16 15 15 15 14 16 18 22
14 15 19 16 6 5 6 34 54 89 94 66 80 78 70 72 60 56 51 49 45 39 32 28 22 21 18 14 13 15 18 24 29 27 22 18 18 18 18 19 20 22 24
18 17 20 17 8 5 5 13 86 98 98 81 70 81 97 91 64 60 58 54 50 45 41 34 27 24 19 16 15 15 18 34 56 27 25 21 19 20 22 23 24 26 28
28 23 22 16 9 7 4 12 69 96 95 100 79 78 86 79 74 68 66 62 58 56 52 44 36 33 27 21 21 17 32 61 61 33 25 23 22 22 23 26 27 30 32
22 23 17 9 7 5 4 28 95 96 96 96 90 79 97 89 80 74 71 68 63 61 54 51 48 34 29 23 20 18 38 50 83 61 29 27 25 26 25 24 24 24 26
13 12 9 6 5 7 4 31 95 97 97 97 94 89 100 95 86 80 75 73 71 68 61 57 56 36 29 22 29 27 38 61 71 73 49 28 28 28 30 29 28 26 24
5 5 5 8 10 15 5 6 66 95 96 96 96 94 100 96 90 86 83 81 78 78 75 70 60 37 26 40 68 86 76 50 52 62 62 33 39 42 47 48 41 40 44
3 27 73 69 68 37 9 8 30 98 94 94 95 97 97 96 92 94 90 88 84 80 79 74 64 55 48 70 67 90 56 39 46 81 51 48 59 72 71 81 83 81 81
90 98 97 96 97 38 64 98 95 95 96 97 97 96 95 97 97 97 96 94 92 91 77 68 78 85 78 90 94 90 42 62 99 88 79 71 80 81 75 76 83 81 80
97 98 96 97 98 49 90 96 96 96 96 96 97 96 96 97 97 96 95 90 81 73 95 96 96 98 97 95 97 91 46 88 98 97 97 96 93 92 91 82 78 85 79
97 98 91 90 99 64 87 96 96 96 97 97 96 97 96 97 97 97 98 97 96 95 95 95 94 96 96 95 96 96 84 95 96 94 98 96 93 95 98 91 86 83 82
99 98 97 97 99 84 93 95 96 96 97 96 95 95 97 96 97 96 95 96 96 97 96 96 97 96 90 95 96 97 95 82 86 89 88 86 89 98 96 82 57 38 26
95 95 95 97 97 97 93 94 95 96 96 97 97 97 96 96 95 93 97 97 94 96 97 94 92 100 84 79 86 97 96 87 94 85 92 97 98 67 56 45 38 26 22

GFSSE_500_rhum_102.txt.gz
RH
24 28 22 16 14 14 17 22 29 34 31 30 29 26 25 27 20 12 13 9 6 5 6 6 7 5 5 4 2 2 2 4 6 6 7 7 7 9 10 10 10 10 11
9 29 32 22 19 16 16 20 26 31 33 29 30 29 24 26 26 12 8 8 6 6 8 8 11 9 6 5 4 2 2 2 3 5 6 7 7 10 10 10 11 12 12
6 6 26 38 24 22 22 18 23 29 31 30 30 30 26 23 27 17 7 7 6 6 8 10 14 13 8 6 5 4 3 2 3 4 6 6 8 10 10 10 11 12 13
4 4 4 24 34 26 22 23 21 25 32 32 30 31 29 23 26 24 8 6 6 6 6 10 14 17 12 7 6 5 4 3 3 4 5 6 9 10 10 11 11 12 14
7 5 3 5 24 33 24 23 24 24 27 32 33 32 30 27 24 30 17 6 6 7 9 11 13 17 16 10 7 6 6 4 4 5 5 7 9 10 11 11 12 14 16
10 6 5 3 12 34 34 26 24 25 26 30 34 35 32 30 27 30 27 15 6 7 9 12 14 17 17 13 10 8 7 6 6 5 6 7 9 10 11 11 13 15 16
13 11 7 5 2 16 35 35 25 24 26 31 32 36 36 32 28 29 31 23 14 10 9 11 14 16 18 17 13 11 9 8 7 6 6 7 8 9 10 12 13 15 17
15 13 12 8 4 2 9 33 36 26 27 30 35 37 38 36 32 30 32 30 18 14 12 11 12 15 17 18 16 14 12 11 8 8 7 7 8 9 10 11 13 15 17
25 15 14 14 8 5 2 6 30 36 30 33 39 42 40 40 34 33 32 34 29 17 14 12 12 13 15 16 16 16 14 12 11 10 9 9 9 9 10 11 12 14 16
40 30 15 17 18 9 7 7 10 39 33 33 38 50 46 43 39 33 34 35 33 23 16 14 13 14 14 15 15 15 15 14 12 12 11 10 10 10 10 11 12 13 15
64 55 36 32 17 18 10 19 20 16 45 33 37 49 58 51 47 40 36 38 36 29 21 17 15 16 17 16 14 14 13 13 11 15 19 12 10 10 10 10 12 13 14
63 70 57 56 53 33 14 14 27 21 25 49 37 42 58 62 60 46 42 38 39 36 30 24 19 18 19 18 15 14 13 11 10 16 25 22 14 12 12 11 12 13 14
17 30 68 56 50 54 42 20 29 20 18 26 49 41 55 60 67 58 49 46 44 42 38 33 27 23 24 21 18 15 13 10 10 18 28 28 20 15 14 14 14 14 15
20 17 22 46 34 33 53 45 41 31 22 20 40 51 49 60 66 68 59 51 49 45 42 38 34 30 26 23 20 17 13 12 13 20 31 31 25 19 16 16 16 17 18
23 22 19 19 17 15 15 21 21 22 8 15 32 47 58 58 68 67 69 61 56 51 46 41 35 32 28 24 20 17 14 13 15 19 28 28 31 24 19 18 18 19 20
26 25 24 22 15 14 15 16 19 16 6 8 28 49 61 62 70 71 70 66 60 54 48 44 37 33 27 25 23 20 16 14 15 17 28 58 51 25 22 21 20 21 21
31 27 25 26 23 17 16 16 19 16 8 10 28 40 72 81 78 79 88 95 74 53 49 45 41 37 34 31 29 24 20 19 17 23 55 57 53 30 24 24 25 24 23
34 33 33 29 29 23 23 21 21 18 8 19 32 57 80 82 81 82 82 84 70 63 54 52 48 51 47 43 39 27 22 19 19 25 40 55 79 73 33 29 30 31 32
38 36 37 30 35 31 30 27 24 13 8 9 31 100 93 91 80 96 96 96 86 67 64 63 60 56 55 50 54 37 26 22 21 29 65 57 64 67 64 37 42 38 47
38 40 40 38 37 34 26 26 19 9 7 9 32 84 96 97 85 96 82 77 79 77 74 69 65 61 59 58 55 41 23 41 39 54 88 75 56 57 63 45 47 51 58
30 31 37 38 33 27 23 17 11 8 6 9 45 91 92 89 97 100 95 98 90 85 74 67 72 71 66 61 50 70 84 66 45 74 82 51 46 53 65 53 58 72 73
24 26 28 27 25 21 14 8 8 9 8 6 81 95 96 97 96 92 94 88 98 87 81 84 93 62 55 71 61 90 82 87 89 87 81 61 93 86 85 82 80 83 79
13 18 20 19 10 7 37 35 28 47 34 10 90 98 96 92 92 97 95 96 96 86 89 94 94 74 87 96 99 87 91 89 95 97 82 78 96 95 88 84 89 86 81
8 8 8 5 10 52 60 86 64 61 76 68 26 73 96 84 91 97 96 95 94 99 98 96 93 100 96 94 93 96 97 97 97 97 95 89 95 92 87 85 83 89 75
10 13 13 77 96 97 92 86 46 90 99 98 97 55 66 84 95 94 97 97 98 96 96 97 96 94 95 96 97 96 94 96 89 91 92 84 74 77 80 68 67 88 69
97 98 87 91 78 70 78 62 97 97 97 97 97 97 95 96 96 96 97 96 96 96 95 96 97 94 97 97 92 88 82 81 90 98 88 79 68 70 69 75 77 79 56

GFSSE_500_rhum_105.txt.gz
RH
16 19 18 13 11 9 9 14 20 25 29 29 26 26 26 26 27 19 11 11 8 6 6 7 8 9 5 5 3 2 2 4 6 6 6 7 7 8 9 9 8 9 9
4 10 25 18 15 13 10 11 14 17 20 27 29 26 25 24 24 26 12 8 7 6 7 9 11 15 8 6 5 4 2 2 3 4 5 6 7 9 10 10 9 9 10
2 4 11 25 22 17 13 13 13 15 18 20 29 28 27 25 23 27 20 7 7 6 6 9 12 18 16 7 6 5 3 2 2 3 4 6 6 9 9 10 10 10 11
3 4 5 8 23 24 18 16 14 14 16 20 24 31 30 29 26 22 26 10 7 6 6 7 10 16 20 11 6 6 5 4 3 4 4 5 7 9 10 10 10 11 12
6 3 4 3 7 26 23 18 17 16 14 15 19 26 32 31 29 26 26 22 7 6 6 7 10 14 20 18 10 7 7 6 4 5 5 6 8 10 10 10 11 12 13
11 7 5 4 3 4 21 24 19 18 18 15 15 21 29 33 32 27 25 28 18 6 6 8 11 13 18 21 17 10 9 8 7 6 6 6 7 9 10 11 12 13 14
11 12 8 7 5 3 3 18 24 21 19 20 18 19 25 33 35 32 26 26 30 17 8 8 10 12 16 19 21 16 12 10 9 7 6 6 7 8 9 10 12 13 14
9 10 12 11 9 5 2 3 17 27 24 20 21 20 22 30 36 36 32 28 30 29 16 11 9 11 13 16 18 19 16 13 12 9 8 7 7 8 8 10 11 12 14
35 12 13 12 13 9 5 2 4 20 31 28 22 21 24 28 34 39 37 33 30 33 29 17 12 11 12 13 16 16 17 16 13 12 11 10 9 9 8 9 10 12 13
61 47 26 20 14 13 10 7 3 3 18 35 35 24 22 29 34 41 42 40 32 33 32 27 16 13 13 14 14 16 15 16 15 13 11 15 12 10 10 9 10 11 12
58 71 58 36 28 15 14 13 8 5 2 10 32 36 27 26 39 43 43 49 39 34 37 29 20 15 14 15 15 16 15 15 14 13 11 17 21 16 11 10 10 10 10
19 63 71 70 64 35 19 16 16 13 14 8 7 32 37 29 34 45 44 52 50 41 38 34 28 22 19 17 17 18 19 15 14 12 11 14 24 25 19 13 12 13 13
18 30 35 68 76 76 60 34 22 15 12 22 18 11 34 40 36 42 45 55 59 52 45 42 36 31 26 22 21 21 19 18 15 13 10 11 24 28 26 18 15 15 14
22 19 25 46 68 73 68 56 41 32 14 21 18 16 16 31 46 44 42 52 58 60 50 48 44 38 34 28 25 24 21 20 15 13 12 12 20 27 25 28 21 18 17
25 23 20 20 23 48 51 31 40 44 30 30 29 19 11 16 39 46 39 44 56 59 59 52 50 44 39 33 29 25 21 21 19 15 13 15 17 22 37 43 35 25 20
25 26 26 23 22 32 32 31 33 30 42 37 26 22 10 11 16 40 50 41 52 56 61 59 56 49 43 36 31 28 24 21 21 16 14 15 16 27 57 51 44 33 25
24 23 26 27 26 21 39 22 19 17 15 15 19 19 12 18 32 35 50 63 72 61 59 66 61 54 46 41 34 30 31 28 24 21 18 17 18 41 54 59 57 54 32
25 25 25 24 27 26 23 22 20 19 16 14 15 19 17 14 31 52 62 81 96 67 62 63 65 60 55 45 43 42 41 39 35 27 21 19 19 32 33 46 61 69 67
29 27 29 29 30 32 29 26 24 24 22 19 18 18 18 9 36 68 76 78 98 80 68 86 93 71 58 57 57 56 52 50 46 34 26 24 20 23 33 50 69 62 64
46 38 33 32 32 34 36 32 28 27 24 24 25 21 21 11 10 73 79 97 90 96 73 61 84 90 84 65 66 65 65 59 56 56 37 26 25 69 41 76 76 64 61
44 44 43 40 38 38 38 38 34 33 34 30 30 27 21 9 9 66 94 88 95 89 84 97 94 89 79 70 70 69 67 70 72 62 48 56 96 72 77 91 64 52 51
36 40 39 40 41 43 41 41 36 39 38 33 26 25 19 8 7 65 85 97 97 98 99 80 83 96 92 85 74 68 68 64 64 66 71 86 88 91 97 99 63 79 78
24 31 31 32 34 37 40 41 43 40 36 30 24 16 10 7 7 26 60 82 95 97 96 95 91 96 95 86 77 72 76 81 88 82 95 94 94 99 95 94 89 98 88
17 20 24 26 28 30 32 36 40 37 30 20 13 9 9 9 8 27 90 96 97 96 96 98 98 94 94 89 78 91 95 94 93 96 97 94 97 99 99 97 96 96 84
13 16 18 19 20 23 28 32 31 21 12 22 18 23 25 23 12 39 94 95 94 94 95 97 98 97 98 96 94 95 95 95 96 95 80 82 81 88 88 96 90 76 80
6 10 14 17 17 18 21 24 14 20 55 68 90 99 84 70 26 91 97 96 96 97 94 97 96 97 96 94 93 95 97 93 95 88 90 88 73 83 78 82 88 93 99

GFSSE_500_rhum_108.txt.gz
RH
10 19 15 12 10 10 9 9 18 28 34 28 25 24 21 21 23 26 16 12 11 7 6 10 10 15 8 5 4 2 2 3 5 6 6 6 7 7 9 9 9 9 9
4 4 12 19 16 11 11 9 8 14 20 24 24 24 24 21 21 24 26 11 8 7 6 9 11 17 17 9 6 4 3 2 3 4 5 6 7 7 9 10 9 9 10
4 3 3 7 19 18 12 11 9 9 13 15 17 21 23 24 21 20 24 22 7 7 6 7 9 16 19 16 7 5 5 3 2 3 4 5 6 7 10 10 10 10 10
8 6 2 3 6 19 18 14 12 11 10 12 15 18 22 24 23 22 20 25 14 7 6 6 8 12 19 21 14 7 6 5 4 4 4 5 6 8 10 10 10 11 12
9 8 4 4 4 7 19 18 18 14 12 12 13 16 20 23 24 24 21 20 26 10 6 6 8 11 16 21 21 13 9 8 6 5 5 5 6 8 10 11 11 12 13
10 10 7 4 4 3 5 11 19 20 16 14 13 13 17 21 24 25 24 21 22 25 9 6 8 10 14 18 22 20 13 11 9 7 6 6 6 7 9 10 11 12 13
10 10 10 8 6 4 3 3 6 21 23 18 16 16 15 17 23 28 27 24 21 26 25 9 7 9 11 16 19 21 20 16 12 11 8 7 6 7 8 9 10 11 12
8 9 11 11 11 8 5 4 2 5 18 29 20 17 19 18 19 26 29 28 26 25 29 26 12 9 10 12 16 18 20 19 16 13 11 10 9 9 8 8 9 10 11
25 27 10 10 12 12 10 8 5 2 3 16 28 23 19 21 21 24 31 30 29 28 28 31 28 16 12 11 13 16 17 18 18 16 13 12 12 13 12 10 9 10 10
10 50 55 18 10 11 12 12 12 5 2 5 13 25 27 22 19 20 27 32 31 31 31 30 33 25 17 13 13 15 16 17 16 16 15 13 12 18 20 15 11 10 10
10 17 54 62 40 13 16 14 12 10 7 3 6 21 29 31 26 21 21 30 35 32 31 34 34 32 22 16 14 15 17 19 18 16 14 13 11 16 23 24 20 16 13
12 11 28 63 73 52 25 20 14 14 13 9 5 3 8 28 36 32 26 26 31 37 37 37 37 35 30 22 18 16 18 20 24 21 16 14 11 11 22 26 25 22 18
17 16 12 31 63 81 74 55 44 16 15 15 13 9 6 6 15 34 32 31 29 32 41 41 43 41 37 29 26 22 21 22 25 24 18 15 13 11 13 27 28 29 27
16 20 19 16 39 72 84 80 79 66 33 19 20 15 13 19 14 21 25 36 35 34 34 42 43 47 47 36 29 27 25 25 25 24 22 18 15 12 13 18 26 33 37
18 20 23 20 16 26 51 56 71 71 61 38 34 25 15 19 16 16 16 28 41 36 38 43 43 49 50 52 41 33 28 28 27 26 24 24 19 15 15 16 19 40 51
19 20 24 22 20 26 38 91 81 73 59 45 36 36 22 22 18 12 9 10 39 45 44 37 38 49 51 54 52 44 36 31 30 29 25 24 22 16 15 16 19 31 40
21 23 21 24 22 20 26 60 78 42 55 33 33 38 31 29 24 20 13 17 47 62 46 52 40 44 55 58 56 54 44 36 33 31 28 26 25 20 18 19 24 34 38
27 23 25 25 27 24 20 24 24 30 58 40 32 32 39 37 22 22 16 19 46 74 64 96 56 54 59 64 65 62 52 44 37 35 34 35 34 32 31 29 33 28 33
39 29 27 26 27 31 26 24 21 24 26 50 26 21 18 15 14 16 22 24 36 75 93 80 82 88 91 58 72 70 62 50 45 45 44 48 50 44 41 58 49 25 55
52 45 31 27 26 29 30 30 27 29 77 49 26 22 19 19 17 18 36 23 55 66 93 97 99 97 94 73 56 72 67 53 54 57 57 59 52 53 76 50 38 28 94
44 51 51 37 29 30 30 33 31 28 28 40 25 25 24 24 20 23 25 24 39 42 70 94 87 94 97 93 93 72 99 76 79 71 69 63 66 78 87 39 55 80 84
19 37 53 54 47 34 32 34 37 34 30 28 27 27 34 31 27 27 29 29 19 18 33 83 89 96 95 83 90 91 86 93 79 71 76 73 91 86 92 73 74 91 87
8 12 30 50 54 52 42 38 37 41 38 37 34 30 28 34 36 34 31 29 20 10 53 100 86 94 98 93 92 94 91 94 94 95 96 95 93 93 96 95 94 92 93
8 8 11 29 44 49 50 46 44 43 44 45 44 40 36 36 35 34 30 26 17 8 34 98 100 97 96 96 96 97 95 97 95 97 94 96 98 100 99 97 95 87 85
11 9 8 15 32 39 44 43 42 42 44 46 47 46 44 41 38 29 24 14 9 9 14 66 90 97 98 99 94 97 95 96 95 95 97 96 97 99 95 86 85 80 80
10 10 12 12 20 28 32 35 34 33 35 38 48 46 42 33 26 19 17 20 15 11 13 48 88 99 96 92 97 98 95 91 96 98 98 100 94 98 87 83 79 87 76

GFSSE_500_rhum_111.txt.gz
RH
12 21 20 14 14 14 12 11 13 28 34 35 28 22 19 16 19 21 19 12 12 8 9 12 13 16 15 7 5 3 2 3 4 5 6 6 6 7 8 9 9 9 9
3 5 12 21 17 12 12 11 10 11 22 29 31 26 20 18 15 18 23 19 9 8 7 11 12 18 18 15 7 5 4 3 2 3 4 5 6 7 9 10 10 9 10
5 4 4 6 18 19 15 12 11 10 10 16 20 20 21 19 17 14 18 24 12 7 6 8 10 15 19 18 13 7 6 4 3 3 4 4 5 6 8 10 10 10 10
8 8 8 4 2 6 17 16 15 12 10 9 13 16 17 17 19 18 15 17 23 9 7 6 8 11 17 20 19 12 9 8 6 5 5 5 5 6 8 10 10 10 12
9 9 9 7 4 3 3 12 18 14 13 12 10 13 16 18 18 21 19 16 18 20 8 6 6 9 12 18 20 19 13 10 9 8 7 6 6 6 8 9 9 10 11
9 9 10 13 7 4 3 4 11 20 16 14 12 12 13 18 20 22 23 22 17 19 20 8 6 8 10 15 19 21 20 14 12 11 10 8 7 6 7 8 9 10 11
8 9 10 10 16 14 5 4 4 7 20 23 19 15 13 13 15 21 23 26 23 19 22 23 9 7 9 12 15 19 21 21 16 13 12 10 9 9 8 8 9 9 10
8 11 9 10 15 23 25 8 5 6 6 11 23 22 18 16 15 14 20 27 28 24 20 24 26 15 9 10 12 15 18 21 21 18 15 13 12 12 12 12 11 10 10
8 9 19 12 14 20 24 28 23 13 5 7 9 22 27 21 25 33 29 20 28 30 25 22 25 29 19 14 11 12 14 17 20 19 19 18 15 13 19 22 20 15 13
9 12 10 42 20 10 20 24 19 22 24 5 3 3 18 28 25 30 43 36 23 28 31 28 22 26 30 22 16 12 12 14 16 18 17 16 15 14 13 20 24 24 21
11 10 11 11 54 31 10 11 16 18 26 22 7 3 3 13 25 29 27 30 25 24 30 34 31 25 29 31 24 15 13 14 16 19 19 16 15 14 12 13 21 24 24
14 12 10 9 11 59 55 19 10 13 17 19 16 17 4 3 8 20 30 29 25 23 26 33 37 34 28 32 29 22 16 14 16 17 21 21 17 15 13 11 13 24 27
15 17 14 12 11 18 60 68 58 16 16 15 15 18 12 7 4 4 11 26 35 32 28 27 32 38 36 32 32 29 25 20 17 18 21 22 20 17 14 12 11 14 23
18 17 19 17 13 19 58 68 71 64 24 19 20 16 14 14 12 10 8 9 17 28 32 30 33 38 43 40 37 38 32 27 23 19 19 22 22 20 18 15 13 14 16
18 22 21 23 21 14 20 54 70 75 70 51 52 33 23 19 20 15 18 15 15 20 28 35 34 34 41 54 48 44 41 33 29 24 20 24 25 25 25 21 16 15 16
26 19 22 23 26 23 16 15 52 73 76 70 66 60 33 35 29 18 21 16 14 14 15 25 32 37 38 45 59 54 49 49 44 35 30 28 30 28 24 23 18 19 23
19 31 19 22 28 30 26 20 18 44 70 54 64 63 67 46 40 25 23 19 14 11 12 14 20 28 40 40 43 63 58 54 52 46 39 34 32 30 28 27 27 30 29
5 13 34 19 24 28 29 26 20 20 27 60 55 68 64 45 35 38 28 26 23 19 46 37 45 54 51 57 60 56 60 70 64 59 50 40 33 31 32 32 34 34 36
5 4 12 34 20 25 31 33 27 21 29 54 75 61 65 51 35 41 32 36 25 24 23 39 86 68 61 78 84 54 55 74 78 71 56 48 43 37 36 39 40 41 56
4 4 5 15 33 22 26 36 33 27 23 54 72 49 43 53 39 34 42 46 32 66 58 66 84 78 75 81 76 78 93 86 85 79 76 61 46 43 45 47 49 58 59
4 4 6 7 35 34 27 30 39 35 26 26 35 41 41 54 43 35 30 23 30 51 67 60 47 80 93 94 95 98 91 96 94 96 76 56 40 50 47 70 80 74 89
8 7 12 15 24 53 38 33 36 45 45 44 51 59 34 58 46 46 28 31 26 32 24 38 34 83 72 89 86 90 90 98 98 96 97 97 94 86 92 93 83 94 94
16 12 16 20 24 46 59 48 39 43 44 43 41 55 46 90 97 61 41 90 30 33 30 30 32 33 23 20 51 68 85 98 96 96 93 95 95 95 95 89 95 95 95
14 15 11 20 20 26 47 58 48 41 45 48 42 34 30 34 63 41 30 43 66 28 28 30 31 33 31 16 24 84 95 98 96 97 95 95 96 96 95 97 92 95 99
27 18 13 12 16 18 22 40 56 56 50 52 50 44 37 32 30 30 30 31 30 33 35 34 34 30 21 13 24 97 96 96 97 94 96 96 95 97 96 96 94 98 96
35 29 17 12 11 11 12 15 29 49 55 53 51 52 50 46 43 42 41 42 41 40 40 37 28 23 11 10 14 93 97 97 95 99 96 96 96 96 100 95 97 93 95

GFSSE_500_rhum_114.txt.gz
RH
4 13 17 15 17 18 18 14 11 24 29 34 33 26 20 14 18 21 17 14 13 8 12 13 16 17 14 9 6 4 2 3 4 5 5 5 6 7 8 10 9 9 9
4 5 11 16 18 16 16 16 14 11 17 28 34 34 26 20 14 16 20 15 12 9 8 12 15 18 18 14 8 6 5 3 2 3 4 4 5 6 7 10 10 10 10
6 5 4 6 16 21 19 16 14 12 10 12 23 29 28 24 20 15 14 20 13 8 6 9 11 17 19 18 12 8 8 6 4 4 4 4 5 6 7 9 9 10 10
7 7 7 6 4 4 14 20 17 14 12 10 9 14 19 21 22 21 16 14 19 11 7 6 8 12 17 20 19 13 10 9 8 6 6 6 6 6 6 8 9 10 10
8 8 8 8 8 6 3 4 13 20 17 13 11 9 11 16 19 22 22 18 14 19 10 7 6 8 13 17 20 19 15 12 10 9 8 8 7 6 6 7 8 9 10
9 9 12 10 17 21 8 4 3 9 22 22 15 12 10 10 14 20 23 25 20 16 20 10 6 6 9 13 17 20 20 17 13 11 11 10 9 8 8 8 8 9 9
8 8 9 10 24 28 30 16 5 3 9 25 26 19 15 12 12 16 23 26 28 22 16 21 13 6 8 10 13 16 20 21 20 16 13 12 11 12 12 12 12 10 10
9 8 11 9 10 32 41 30 18 8 6 8 18 27 26 21 16 14 17 24 27 28 25 19 23 18 8 8 10 12 16 18 20 20 18 14 13 13 15 18 20 18 15
10 10 9 20 20 13 34 42 40 37 17 10 9 12 18 30 27 26 24 19 22 26 27 27 22 24 24 14 10 10 12 14 16 18 19 18 16 14 12 14 20 22 22
14 11 10 9 22 38 14 21 39 38 38 32 18 10 6 14 32 39 39 37 34 27 23 29 30 27 25 28 23 18 13 12 13 15 17 18 16 14 14 12 12 17 21
10 14 12 10 9 10 42 30 19 30 40 40 34 29 16 4 5 17 37 41 37 43 35 23 29 32 30 27 30 26 19 15 13 14 15 17 17 15 14 12 12 11 15
13 11 13 13 10 10 18 33 30 22 33 32 34 34 23 11 9 9 19 34 37 33 34 29 24 28 34 33 29 32 27 19 14 14 14 16 17 19 18 15 14 13 11
16 13 12 14 14 12 10 15 35 45 22 24 19 24 28 20 16 7 26 45 33 31 33 31 28 24 28 35 36 31 30 26 21 17 14 15 17 21 22 21 18 15 14
15 18 15 14 16 16 13 11 15 31 62 36 13 14 16 17 24 12 10 14 20 28 23 24 31 34 32 31 39 43 40 35 30 22 19 17 16 18 21 21 21 21 17
30 23 18 18 16 18 18 15 14 12 28 63 67 26 17 17 21 15 13 13 15 26 15 14 24 29 36 36 40 49 50 47 44 39 28 23 22 19 20 23 24 23 21
5 14 29 19 20 21 22 23 18 14 30 43 64 70 36 20 22 25 17 17 19 19 18 15 15 22 35 42 40 40 55 55 55 50 47 44 37 30 28 26 28 27 22
4 4 5 20 27 19 25 25 26 19 64 59 60 69 71 45 54 68 34 33 27 25 20 16 15 16 16 19 30 32 40 48 54 58 60 56 52 41 35 33 29 27 25
6 4 4 4 8 27 22 26 27 26 23 26 24 52 73 82 72 75 74 50 44 27 21 19 13 18 18 19 26 41 40 40 47 55 58 69 64 60 45 37 33 29 28
13 9 6 5 3 4 21 26 26 29 26 24 16 18 70 81 81 78 86 74 46 36 29 22 21 24 98 43 59 58 60 53 74 78 70 70 74 71 61 47 42 37 30
13 10 8 7 6 4 4 10 28 27 31 40 26 22 20 70 64 86 94 74 60 36 32 31 30 31 41 67 86 64 58 84 84 84 90 94 92 83 75 66 59 43 37
12 11 9 8 7 6 5 4 8 31 33 38 35 30 28 66 62 97 94 90 69 40 44 38 47 48 62 80 56 57 77 92 77 98 96 93 99 96 85 70 61 41 31
9 10 10 9 8 7 6 6 4 18 39 41 46 39 25 61 75 95 99 70 95 71 53 42 37 42 41 56 35 33 51 91 79 98 95 99 98 96 96 88 86 95 98
5 5 5 5 6 6 6 6 5 5 27 40 39 43 40 29 55 98 99 96 92 76 63 66 37 32 37 26 24 27 30 42 44 59 64 86 88 94 96 95 94 93 94
16 10 10 10 8 6 4 5 5 5 8 50 47 58 59 44 42 45 72 51 50 49 76 98 52 89 59 26 34 30 33 35 34 31 25 35 92 94 95 94 90 91 95
44 41 20 15 13 13 13 7 6 8 9 44 61 60 63 60 47 68 65 73 61 100 98 97 58 55 89 48 31 34 34 34 31 25 32 74 96 90 93 98 95 95 96
40 52 44 27 18 15 15 15 9 16 18 35 68 65 63 61 53 50 43 51 46 49 75 82 37 30 34 34 38 39 39 32 25 17 15 30 98 90 94 96 95 97 97

GFSSE_500_rhum_117.txt.gz
RH
3 7 16 16 18 20 18 15 13 17 28 32 33 29 26 18 17 19 18 15 12 8 12 14 17 16 12 7 6 4 3 3 4 5 5 5 6 6 7 10 10 9 10
5 4 5 14 17 17 19 19 17 15 12 21 31 36 33 25 18 14 18 16 14 8 10 12 17 18 16 11 7 6 5 4 3 3 4 4 5 6 6 9 10 9 10
7 5 4 5 10 15 17 20 20 18 16 12 11 26 33 31 25 19 13 18 16 10 7 10 14 18 19 17 11 8 7 6 6 6 5 5 5 6 6 8 9 9 10
8 7 7 6 6 5 9 15 20 22 18 14 12 13 14 25 25 22 20 14 17 15 8 7 9 14 18 20 18 13 10 9 8 8 8 7 6 6 6 7 8 9 10
8 11 8 8 8 8 8 4 6 13 22 22 17 14 10 10 17 19 20 21 16 18 16 7 6 9 14 18 20 19 16 12 11 10 10 9 8 7 7 7 8 9 9
8 14 24 11 8 9 12 8 5 4 5 18 23 22 15 11 10 15 19 22 23 18 17 17 7 6 9 14 18 19 19 18 16 13 12 11 9 8 9 9 9 10 11
10 8 14 34 17 13 26 33 27 12 7 10 15 27 23 17 14 13 16 20 22 24 21 17 19 8 6 9 13 17 19 20 20 19 16 14 12 11 11 12 13 14 16
11 10 9 12 25 21 17 34 43 36 19 7 6 15 29 29 22 20 15 18 20 23 26 24 18 21 12 7 9 12 15 18 19 21 21 19 17 15 14 14 18 20 20
9 10 11 10 13 25 11 20 40 51 38 27 16 24 20 24 32 34 28 24 17 18 23 28 26 21 22 22 11 9 10 13 16 18 19 20 20 20 18 16 14 15 18
11 9 9 11 11 16 37 30 14 34 51 48 38 26 28 12 16 25 34 36 31 26 20 21 24 27 25 22 26 24 13 11 12 13 15 17 18 19 18 16 16 15 13
15 12 11 11 13 12 10 18 44 32 19 38 45 45 39 32 16 7 11 31 42 43 39 37 29 22 24 28 26 26 30 22 15 12 12 13 14 17 18 17 16 16 15
16 16 13 12 13 14 13 10 9 16 50 30 28 42 46 37 31 10 5 8 24 33 38 41 45 39 25 23 28 30 29 29 27 20 14 13 13 14 16 17 18 19 19
16 17 18 15 13 14 16 15 12 10 17 43 48 35 35 32 37 25 17 37 35 29 30 35 37 33 30 25 23 29 36 34 32 29 24 17 14 14 14 16 18 21 22
25 26 18 19 18 14 14 16 17 22 22 17 32 42 30 25 20 24 24 32 35 44 40 23 19 22 28 34 33 32 32 36 39 37 33 29 24 20 18 16 16 19 22
5 10 26 26 20 20 18 16 18 18 22 23 23 36 57 51 14 15 15 19 24 32 34 29 20 19 20 24 30 34 36 35 37 41 45 43 42 37 30 26 22 19 21
4 4 4 9 24 26 19 21 20 19 22 21 19 18 26 63 66 58 17 16 21 15 15 19 20 24 16 17 20 27 34 39 39 39 42 45 51 52 50 47 41 35 28
6 6 5 4 4 5 20 24 20 22 21 25 23 17 15 17 33 79 67 31 17 19 18 20 22 19 23 20 19 20 23 27 37 40 46 50 47 53 62 62 58 51 44
12 8 7 7 6 5 3 5 21 24 22 22 28 34 31 28 68 78 84 61 50 74 61 67 48 31 21 20 14 11 13 19 24 36 40 44 49 54 48 53 54 56 59
18 18 16 12 8 7 6 4 3 7 23 23 24 30 40 68 98 76 92 95 84 88 92 86 81 58 26 23 19 19 54 42 34 41 51 52 74 83 79 69 78 86 78
14 14 14 16 17 16 12 8 5 4 4 16 28 31 36 33 50 76 69 99 90 94 92 92 90 67 36 29 22 25 62 41 44 73 60 40 60 77 83 81 93 88 92
13 14 13 14 15 16 16 14 12 6 4 4 11 32 34 33 27 25 22 46 88 96 94 83 85 72 54 36 35 59 56 43 40 66 50 48 79 84 81 95 95 76 90
9 9 11 13 16 16 15 14 13 12 7 5 5 18 35 32 35 33 25 39 96 98 86 88 90 78 61 56 62 59 54 51 63 43 34 38 75 80 62 87 93 93 83
6 6 7 8 10 12 15 14 12 12 11 8 6 5 14 44 48 44 39 60 49 67 95 99 100 95 84 59 63 45 41 31 31 33 31 31 33 36 35 36 30 23 53
33 22 11 7 6 6 6 10 11 12 11 9 7 6 6 19 47 48 47 38 55 89 92 97 98 97 95 86 70 67 49 52 52 33 29 30 34 34 36 33 34 22 50
50 46 40 28 29 17 8 6 6 8 9 8 8 6 7 30 37 61 61 53 40 69 79 81 96 98 92 63 53 86 81 54 38 37 42 31 35 37 36 33 28 22 63
88 82 78 69 52 39 34 15 9 8 6 6 6 7 7 11 26 49 65 67 54 44 48 74 93 86 73 56 88 91 91 65 30 33 35 41 42 37 34 29 25 16 45

GFSSE_500_rhum_120.txt.gz
RH
4 3 8 16 16 20 23 18 18 14 20 32 35 31 28 21 17 20 20 16 14 10 10 15 16 13 11 6 5 4 3 3 3 4 4 4 5 6 6 9 9 9 10
7 5 4 5 15 17 18 20 24 20 16 14 18 37 39 31 22 15 18 19 15 11 12 14 18 17 13 10 6 6 5 4 4 4 4 4 5 6 6 8 8 9 10
8 7 5 4 4 10 17 17 19 20 19 18 16 13 25 36 33 23 16 16 18 14 9 11 15 18 18 14 11 8 7 6 6 6 6 6 6 6 6 7 8 9 10
8 7 8 6 5 5 7 12 15 19 19 22 21 18 16 16 26 29 23 19 15 18 13 8 10 15 18 18 16 12 10 10 9 8 9 8 8 7 8 8 8 8 9
9 8 8 8 7 7 7 6 6 13 19 19 24 25 18 18 12 15 20 22 19 16 15 13 7 8 14 18 19 17 15 13 12 11 10 10 10 9 9 9 10 10 12
10 10 8 10 21 11 8 8 8 8 8 6 8 19 26 22 15 11 12 17 20 20 18 16 16 7 7 12 17 19 19 18 16 15 13 13 13 12 11 12 12 14 16
10 11 10 9 10 37 19 16 20 24 19 12 11 9 12 24 23 17 13 14 17 20 22 20 16 17 8 6 10 15 18 19 19 19 18 16 15 14 14 14 15 17 19
11 10 11 11 10 10 36 40 28 35 41 30 19 10 6 10 24 24 18 16 15 16 21 23 24 19 19 12 6 9 11 16 18 20 20 20 20 19 18 17 16 17 19
13 12 10 10 11 10 9 11 36 16 35 50 42 26 15 20 14 20 27 23 22 19 19 17 20 24 22 20 20 9 8 10 12 15 17 19 20 21 21 20 19 18 16
15 14 13 11 12 12 13 11 15 26 17 23 51 48 25 27 25 15 19 25 26 27 29 27 19 17 21 26 23 24 23 14 10 10 12 13 15 16 18 18 18 17 17
15 15 14 14 12 11 12 14 14 16 32 38 20 30 49 40 32 31 18 12 14 23 34 39 36 31 24 23 25 28 25 25 27 23 17 13 12 12 13 14 16 17 18
18 16 15 15 14 12 13 13 13 12 12 16 34 42 27 34 47 44 39 25 8 5 19 36 46 45 43 42 31 26 28 30 28 28 28 26 22 17 14 13 14 15 16
21 26 22 17 17 17 14 12 13 16 13 11 10 14 41 42 27 37 39 34 23 17 17 22 30 37 45 48 47 37 28 24 27 33 33 32 29 25 20 17 16 16 16
5 9 20 26 24 18 17 17 13 14 20 21 15 10 12 22 46 38 34 28 34 31 30 34 32 30 28 39 41 36 34 32 32 34 39 43 40 37 36 34 28 24 24
4 4 4 6 13 25 26 20 18 18 20 22 23 23 21 20 17 34 38 27 17 23 23 28 37 40 30 24 30 31 33 33 37 38 39 36 39 41 44 43 44 44 41
5 4 4 4 4 5 9 20 28 24 19 23 27 20 19 24 22 22 41 57 41 26 18 20 25 17 15 18 22 28 21 25 28 31 37 34 34 37 41 46 48 50 52
12 9 6 5 5 4 4 4 5 12 25 31 30 24 25 24 25 23 18 28 60 65 64 21 18 17 15 16 22 19 19 18 17 20 23 30 30 27 33 40 46 49 54
18 15 15 14 11 8 6 5 4 4 4 8 22 26 31 34 42 30 19 18 20 30 47 76 40 27 31 38 29 33 22 18 16 14 14 17 22 33 40 42 52 58 55
19 19 17 15 12 11 12 10 7 6 6 5 4 17 32 34 36 40 43 28 28 79 74 90 82 66 69 81 74 67 37 22 21 19 24 27 33 42 54 52 59 71 79
20 18 17 17 16 14 12 11 11 11 8 7 6 5 10 31 41 39 40 48 44 83 85 100 96 97 91 87 88 82 74 35 26 34 31 45 33 56 41 46 49 82 60
12 12 12 13 14 15 16 14 12 12 14 12 11 8 6 9 15 52 45 47 53 70 94 90 94 86 97 97 93 92 77 53 34 32 38 49 48 53 39 27 30 40 69
6 6 6 7 8 10 11 12 14 13 11 10 15 14 11 7 16 27 53 44 48 48 43 67 83 84 94 97 94 88 79 69 67 61 53 46 40 35 28 28 28 30 32
4 4 5 5 6 7 8 9 11 14 14 12 11 16 14 11 13 25 39 39 41 40 36 91 51 68 98 98 93 98 97 86 74 64 57 50 50 54 56 38 30 29 29
23 28 30 28 27 21 12 6 7 10 13 15 15 16 14 13 11 17 36 37 47 48 39 54 40 77 96 98 74 92 100 99 97 75 66 61 61 50 43 32 38 36 33
48 42 39 41 60 58 52 38 27 11 8 10 14 16 14 13 12 11 17 37 73 76 64 49 48 45 66 73 73 97 97 98 96 85 60 51 65 82 50 30 32 36 40
50 61 57 56 72 79 87 79 57 46 25 9 7 9 11 11 11 11 15 28 48 58 54 54 54 58 59 91 82 95 90 96 97 85 58 40 71 87 52 34 38 42 44

GFSSE_500_rhum_123.txt.gz
RH
5 5 4 9 19 17 21 25 20 16 16 20 32 36 31 27 19 19 21 18 16 9 11 14 16 13 10 6 4 3 3 4 4 4 4 4 5 6 6 8 9 10 11
7 7 6 4 5 15 16 18 22 21 21 18 17 15 30 36 33 22 16 19 18 15 10 12 17 17 13 10 7 6 5 4 4 4 5 5 6 6 7 8 9 9 10
8 8 8 6 4 4 9 16 17 21 22 22 20 18 16 14 30 36 26 17 16 18 13 9 14 18 18 14 10 8 8 7 6 6 7 7 7 7 8 8 8 9 10
9 8 8 8 8 8 4 6 12 17 21 22 22 20 21 19 14 16 30 27 20 15 18 13 8 12 18 19 16 12 10 10 9 8 9 10 10 9 9 9 9 10 12
11 10 9 8 8 9 9 10 8 9 11 21 21 21 21 21 19 18 13 19 22 21 17 16 14 7 10 17 19 18 16 13 12 11 11 11 11 11 11 11 11 12 14
12 12 10 10 10 20 19 18 16 16 12 18 16 15 16 18 20 18 14 12 12 15 19 20 16 17 8 7 14 18 19 18 17 16 14 13 13 13 12 12 13 14 16
12 12 11 10 11 10 16 31 26 25 26 20 16 9 10 10 12 20 21 18 12 11 14 18 22 18 18 12 6 10 16 19 20 19 19 18 18 17 16 15 15 15 17
13 14 14 13 12 15 14 13 31 38 39 38 36 27 19 10 6 8 18 24 19 14 12 13 19 22 22 19 19 8 7 11 16 18 19 20 20 20 20 20 18 18 17
14 14 15 14 12 10 11 12 12 14 22 37 27 47 43 32 14 14 9 14 23 20 18 16 16 17 22 25 22 22 19 8 9 11 13 15 17 18 19 20 20 20 20
16 15 16 16 15 13 11 11 12 10 11 14 24 16 46 56 34 25 22 16 14 21 27 27 25 24 18 17 21 26 24 24 22 12 10 10 11 12 13 14 15 16 18
16 15 14 14 16 16 15 13 11 11 12 12 13 32 25 23 47 45 29 26 15 15 21 28 31 34 33 27 22 21 26 28 27 28 28 28 19 14 12 12 12 13 13
22 21 18 16 14 15 15 16 15 12 11 13 15 15 24 37 27 34 43 42 38 31 14 5 8 26 36 43 42 39 34 31 31 34 32 32 32 30 26 21 18 15 14
8 12 16 19 20 18 16 15 18 19 15 15 13 13 12 12 20 37 30 33 43 38 34 17 14 15 20 29 44 49 55 46 35 33 30 34 36 35 32 29 27 24 22
4 4 5 8 12 17 21 23 17 16 21 24 16 14 16 12 10 11 25 40 34 34 34 35 28 27 29 30 26 30 45 51 49 39 34 36 38 38 38 41 39 37 40
4 4 4 4 4 5 7 12 19 24 22 23 29 21 20 21 22 16 11 14 21 39 33 24 23 25 26 30 34 30 28 28 27 33 33 37 38 37 37 37 36 40 48
7 7 6 4 4 4 4 4 5 8 16 25 31 34 29 25 23 22 25 23 21 19 31 43 24 27 23 21 25 21 18 19 22 23 21 22 28 30 33 33 34 33 35
11 12 11 11 10 8 5 5 5 4 4 6 14 39 43 35 29 26 23 18 23 23 23 30 52 54 37 22 21 20 16 16 20 20 19 18 18 21 20 24 20 25 30
18 16 16 16 15 14 12 12 10 8 5 5 4 4 32 50 49 41 33 24 28 24 26 22 20 30 58 63 51 24 18 23 35 32 25 20 17 13 18 22 36 40 46
24 24 24 25 21 18 16 13 12 12 11 10 7 6 5 20 47 34 29 33 33 41 39 26 20 20 24 45 84 57 58 68 72 63 52 28 22 23 36 32 43 54 52
32 30 28 27 25 23 20 18 17 15 14 13 13 10 8 8 29 43 48 54 55 50 54 45 45 39 66 99 96 81 70 81 79 83 80 65 31 38 52 51 39 45 44
25 23 21 20 18 17 18 18 18 17 17 15 14 16 13 10 13 19 30 37 58 64 71 77 65 60 90 82 96 77 73 73 75 92 90 78 51 32 30 46 47 44 40
10 8 8 9 8 7 6 7 10 10 11 12 14 15 17 13 15 16 33 33 43 58 77 76 73 69 73 88 84 97 78 89 99 96 83 84 70 50 44 48 43 38 35
4 4 4 4 4 3 4 5 5 5 6 8 10 12 18 21 19 19 25 38 47 43 64 79 69 67 73 80 97 88 74 92 97 95 91 94 89 70 70 58 55 50 49
25 29 31 33 32 31 27 24 23 14 8 7 8 10 13 18 19 19 19 23 31 38 51 66 90 83 64 88 66 65 72 56 96 97 98 95 96 95 85 74 55 55 65
50 51 51 45 38 36 32 51 42 33 38 42 24 10 9 11 18 20 20 18 24 38 43 52 74 72 56 85 56 74 64 98 98 96 98 99 98 98 97 85 70 54 77
38 39 41 43 34 45 51 61 67 60 71 73 62 41 24 15 10 13 20 19 21 26 39 49 57 93 96 97 95 78 60 61 97 96 95 92 96 98 92 92 63 67 93

GFSSE_500_rhum_126.txt.gz
RH
6 5 5 4 12 20 18 23 26 21 16 18 22 29 32 32 30 23 17 20 17 13 10 13 16 14 9 6 5 4 3 3 4 4 4 5 6 6 7 8 10 11 12
7 7 7 6 5 21 16 20 21 25 23 18 17 17 17 22 32 36 29 16 18 18 12 9 15 18 15 11 6 6 6 4 4 4 4 5 6 7 8 9 10 11 12
9 8 8 8 7 13 16 14 19 21 20 22 23 23 17 16 14 18 32 32 20 16 18 13 9 15 18 16 12 7 7 6 6 6 7 7 8 8 8 9 9 11 13
11 10 8 8 8 12 17 20 14 15 21 21 23 24 21 20 19 18 14 19 30 23 16 16 16 8 13 18 18 15 9 8 8 8 9 10 10 10 10 10 11 12 13
11 11 10 10 8 15 14 14 17 18 18 22 21 18 22 22 20 21 19 17 13 17 22 19 16 17 8 10 17 19 18 15 13 12 11 11 11 12 12 11 11 12 13
12 12 10 12 16 13 26 21 19 19 24 17 19 23 17 17 18 19 20 19 15 12 10 15 19 18 17 12 7 14 19 20 18 16 15 15 14 14 14 13 13 13 15
12 13 12 12 28 39 13 15 18 32 28 27 22 20 19 9 10 11 13 16 18 16 12 10 12 17 21 18 18 8 8 14 19 20 20 19 18 18 18 17 16 16 16
12 13 14 13 13 19 19 17 23 22 23 39 34 34 30 22 17 11 6 8 14 20 19 14 12 12 16 21 22 20 17 8 9 14 18 19 20 20 20 20 21 21 21
13 13 14 14 15 18 25 16 11 15 14 17 24 39 32 38 40 30 18 11 10 17 22 20 16 13 12 16 22 26 24 23 19 9 9 10 12 14 15 16 17 18 18
14 14 14 14 14 15 15 14 14 16 11 12 17 12 24 20 26 50 42 24 20 18 19 26 23 19 17 15 16 18 26 28 26 25 23 13 10 10 11 12 12 12 12
16 14 12 13 13 13 14 15 16 16 14 11 11 11 11 16 27 23 35 46 28 24 16 18 24 26 27 26 24 24 22 22 31 29 30 29 31 30 25 17 14 13 12
21 22 20 17 16 15 14 14 15 18 24 17 12 11 12 13 15 28 34 28 41 42 37 28 16 7 8 18 28 32 35 36 38 33 35 38 38 34 33 32 29 27 23
6 8 10 14 17 19 19 18 18 16 20 27 22 21 11 11 14 15 19 26 33 32 39 44 36 24 13 12 15 24 40 48 54 53 46 40 37 37 38 39 37 32 29
4 4 4 4 4 5 7 11 15 18 20 24 26 26 18 17 14 13 12 13 14 23 36 34 36 35 32 24 26 29 31 31 40 50 54 53 44 37 35 36 41 47 45
4 4 4 4 4 4 4 4 4 5 9 15 20 36 43 44 30 18 15 14 13 12 17 28 39 37 30 30 29 29 32 39 33 28 25 27 30 31 32 34 36 38 38
4 4 5 5 6 6 6 5 4 4 4 4 6 13 23 42 46 38 23 21 21 22 19 14 18 27 36 31 21 24 22 24 26 21 22 22 24 21 18 19 22 26 31
7 7 7 7 8 9 10 10 10 9 7 5 4 4 5 24 46 43 41 34 28 29 31 26 24 23 23 42 55 44 25 20 23 22 17 17 20 23 20 18 18 18 21
17 17 17 15 14 13 14 15 15 14 14 12 10 8 5 4 10 41 52 54 52 33 32 38 28 21 23 26 35 51 66 63 52 30 20 20 32 36 28 20 16 13 16
24 24 24 25 23 22 20 20 20 20 18 16 14 13 12 10 7 5 24 56 73 64 45 47 52 48 31 28 26 26 32 33 39 64 47 65 74 67 52 33 24 18 25
31 32 32 32 32 32 31 28 26 25 24 22 20 18 16 14 14 10 7 20 42 75 78 66 51 49 54 56 37 28 25 23 42 47 75 71 87 91 87 75 42 35 41
34 32 31 28 26 23 21 20 19 20 21 22 22 21 20 18 16 16 14 10 14 33 68 79 71 55 58 67 64 56 54 67 96 79 93 86 84 90 93 85 70 40 31
29 26 21 17 14 10 8 7 7 8 9 11 12 15 17 18 18 18 17 17 15 20 36 52 81 84 90 83 83 80 80 93 88 97 89 79 84 97 99 95 84 52 38
12 9 7 6 5 4 5 5 5 4 4 5 5 7 8 11 14 16 17 18 19 21 24 41 49 91 79 94 96 94 86 79 100 93 97 92 98 95 97 96 95 80 64
6 5 5 12 34 39 35 27 27 26 23 26 31 14 6 7 10 13 15 17 20 20 25 30 42 49 97 86 96 96 95 91 82 92 97 78 82 92 96 94 98 96 81
30 36 42 41 41 44 39 30 29 21 22 44 42 47 39 17 10 8 9 14 17 22 22 25 36 50 54 73 88 96 96 94 96 97 96 91 72 87 97 97 91 98 97
40 38 39 43 41 39 37 35 27 18 12 46 59 65 73 38 34 28 17 11 10 16 21 25 30 48 57 72 75 87 90 92 82 89 96 82 73 97 96 96 99 97 96